<?xml version="1.0" encoding="UTF-8" standalone="no" ?>
<gpx xmlns="http://www.topografix.com/GPX/1/1" xmlns:xsi="http://www.w3.org/2001/XMLSchema-instance" xsi:schemaLocation="http://www.topografix.com/GPX/1/1 http://www.topografix.com/GPX/1/1/gpx.xsd" version="1.1" creator="VisuGPX - https://www.visugpx.com">
  <metadata>
    <name>courchevel mars 2013</name>
    <desc><![CDATA[sorti couchevel 1 mars 2013 pierre,nicolas,nara,daniel]]></desc>
  </metadata>
  <trk>
    <name><![CDATA[ven. 01/mars/2013 09:14:05]]></name>
    <trkseg>
      <trkpt lat="45.43139" lon="6.59731">
        <ele>1372.5999755859</ele>
        <time>2013-03-01T08:14:05Z</time>
      </trkpt>
      <trkpt lat="45.43157" lon="6.59761">
        <ele>1355.5999755859</ele>
        <time>2013-03-01T10:37:34Z</time>
      </trkpt>
      <trkpt lat="45.43133" lon="6.59792">
        <ele>1355.5</ele>
        <time>2013-03-01T10:37:34Z</time>
      </trkpt>
      <trkpt lat="45.43106" lon="6.59813">
        <ele>1378.1999511719</ele>
        <time>2013-03-01T10:37:34Z</time>
      </trkpt>
      <trkpt lat="45.43078" lon="6.59836">
        <ele>1387.0999755859</ele>
        <time>2013-03-01T10:37:34Z</time>
      </trkpt>
      <trkpt lat="45.4305" lon="6.59857">
        <ele>1395.0999755859</ele>
        <time>2013-03-01T10:37:34Z</time>
      </trkpt>
      <trkpt lat="45.43023" lon="6.59877">
        <ele>1403.3000488281</ele>
        <time>2013-03-01T10:37:34Z</time>
      </trkpt>
      <trkpt lat="45.42997" lon="6.59898">
        <ele>1412.4000244141</ele>
        <time>2013-03-01T10:37:34Z</time>
      </trkpt>
      <trkpt lat="45.4297" lon="6.59919">
        <ele>1423.3000488281</ele>
        <time>2013-03-01T10:37:34Z</time>
      </trkpt>
      <trkpt lat="45.42943" lon="6.59942">
        <ele>1428.8000488281</ele>
        <time>2013-03-01T10:37:34Z</time>
      </trkpt>
      <trkpt lat="45.42916" lon="6.59963">
        <ele>1436.5</ele>
        <time>2013-03-01T10:37:34Z</time>
      </trkpt>
      <trkpt lat="45.42889" lon="6.59985">
        <ele>1446.5</ele>
        <time>2013-03-01T10:37:34Z</time>
      </trkpt>
      <trkpt lat="45.42863" lon="6.60005">
        <ele>1454.9000244141</ele>
        <time>2013-03-01T10:37:34Z</time>
      </trkpt>
      <trkpt lat="45.42836" lon="6.60028">
        <ele>1462.1999511719</ele>
        <time>2013-03-01T10:37:34Z</time>
      </trkpt>
      <trkpt lat="45.4281" lon="6.60047">
        <ele>1465.5999755859</ele>
        <time>2013-03-01T10:37:34Z</time>
      </trkpt>
      <trkpt lat="45.42785" lon="6.60069">
        <ele>1476.3000488281</ele>
        <time>2013-03-01T10:37:34Z</time>
      </trkpt>
      <trkpt lat="45.42757" lon="6.60092">
        <ele>1483.1999511719</ele>
        <time>2013-03-01T10:37:34Z</time>
      </trkpt>
      <trkpt lat="45.42728" lon="6.60113">
        <ele>1487.1999511719</ele>
        <time>2013-03-01T10:37:34Z</time>
      </trkpt>
      <trkpt lat="45.42703" lon="6.60136">
        <ele>1497.9000244141</ele>
        <time>2013-03-01T10:37:34Z</time>
      </trkpt>
      <trkpt lat="45.42677" lon="6.60158">
        <ele>1511.5999755859</ele>
        <time>2013-03-01T10:37:34Z</time>
      </trkpt>
      <trkpt lat="45.42651" lon="6.60178">
        <ele>1523.4000244141</ele>
        <time>2013-03-01T10:37:34Z</time>
      </trkpt>
      <trkpt lat="45.42626" lon="6.60198">
        <ele>1537.3000488281</ele>
        <time>2013-03-01T10:37:34Z</time>
      </trkpt>
      <trkpt lat="45.426" lon="6.60218">
        <ele>1551.3000488281</ele>
        <time>2013-03-01T10:37:34Z</time>
      </trkpt>
      <trkpt lat="45.42575" lon="6.6024">
        <ele>1568</ele>
        <time>2013-03-01T10:37:34Z</time>
      </trkpt>
      <trkpt lat="45.42549" lon="6.60262">
        <ele>1578.9000244141</ele>
        <time>2013-03-01T10:37:34Z</time>
      </trkpt>
      <trkpt lat="45.42523" lon="6.60283">
        <ele>1591.5</ele>
        <time>2013-03-01T10:37:34Z</time>
      </trkpt>
      <trkpt lat="45.42496" lon="6.60303">
        <ele>1604</ele>
        <time>2013-03-01T10:37:34Z</time>
      </trkpt>
      <trkpt lat="45.42471" lon="6.60324">
        <ele>1617.3000488281</ele>
        <time>2013-03-01T10:37:34Z</time>
      </trkpt>
      <trkpt lat="45.42447" lon="6.60346">
        <ele>1632.5</ele>
        <time>2013-03-01T10:37:34Z</time>
      </trkpt>
      <trkpt lat="45.42419" lon="6.60366">
        <ele>1642.3000488281</ele>
        <time>2013-03-01T10:37:34Z</time>
      </trkpt>
      <trkpt lat="45.42393" lon="6.60387">
        <ele>1653</ele>
        <time>2013-03-01T10:37:34Z</time>
      </trkpt>
      <trkpt lat="45.42366" lon="6.60407">
        <ele>1664.4000244141</ele>
        <time>2013-03-01T10:37:34Z</time>
      </trkpt>
      <trkpt lat="45.42341" lon="6.60428">
        <ele>1676.4000244141</ele>
        <time>2013-03-01T10:37:34Z</time>
      </trkpt>
      <trkpt lat="45.42316" lon="6.6045">
        <ele>1685.9000244141</ele>
        <time>2013-03-01T10:37:34Z</time>
      </trkpt>
      <trkpt lat="45.42289" lon="6.60472">
        <ele>1694.9000244141</ele>
        <time>2013-03-01T10:37:34Z</time>
      </trkpt>
      <trkpt lat="45.42262" lon="6.60491">
        <ele>1705.0999755859</ele>
        <time>2013-03-01T10:37:34Z</time>
      </trkpt>
      <trkpt lat="45.42235" lon="6.60513">
        <ele>1712</ele>
        <time>2013-03-01T10:37:34Z</time>
      </trkpt>
      <trkpt lat="45.42211" lon="6.60533">
        <ele>1721.0999755859</ele>
        <time>2013-03-01T10:37:34Z</time>
      </trkpt>
      <trkpt lat="45.42183" lon="6.60552">
        <ele>1731.8000488281</ele>
        <time>2013-03-01T10:37:34Z</time>
      </trkpt>
      <trkpt lat="45.42157" lon="6.60573">
        <ele>1742.1999511719</ele>
        <time>2013-03-01T10:37:34Z</time>
      </trkpt>
      <trkpt lat="45.42131" lon="6.60595">
        <ele>1753.1999511719</ele>
        <time>2013-03-01T10:37:34Z</time>
      </trkpt>
      <trkpt lat="45.42105" lon="6.60615">
        <ele>1764.0999755859</ele>
        <time>2013-03-01T10:37:34Z</time>
      </trkpt>
      <trkpt lat="45.42078" lon="6.60637">
        <ele>1773.3000488281</ele>
        <time>2013-03-01T10:37:34Z</time>
      </trkpt>
      <trkpt lat="45.42051" lon="6.60659">
        <ele>1783.5999755859</ele>
        <time>2013-03-01T10:37:34Z</time>
      </trkpt>
      <trkpt lat="45.42025" lon="6.60681">
        <ele>1793.6999511719</ele>
        <time>2013-03-01T10:37:34Z</time>
      </trkpt>
      <trkpt lat="45.41999" lon="6.607">
        <ele>1804.3000488281</ele>
        <time>2013-03-01T10:37:34Z</time>
      </trkpt>
      <trkpt lat="45.41973" lon="6.60721">
        <ele>1816.3000488281</ele>
        <time>2013-03-01T10:37:34Z</time>
      </trkpt>
      <trkpt lat="45.41947" lon="6.60742">
        <ele>1827.5999755859</ele>
        <time>2013-03-01T10:37:34Z</time>
      </trkpt>
      <trkpt lat="45.4192" lon="6.60763">
        <ele>1838.3000488281</ele>
        <time>2013-03-01T10:37:34Z</time>
      </trkpt>
      <trkpt lat="45.41893" lon="6.60783">
        <ele>1848.8000488281</ele>
        <time>2013-03-01T10:37:34Z</time>
      </trkpt>
      <trkpt lat="45.41868" lon="6.60805">
        <ele>1861.4000244141</ele>
        <time>2013-03-01T10:37:34Z</time>
      </trkpt>
      <trkpt lat="45.41842" lon="6.60826">
        <ele>1872.5</ele>
        <time>2013-03-01T10:37:34Z</time>
      </trkpt>
      <trkpt lat="45.41817" lon="6.60846">
        <ele>1883.8000488281</ele>
        <time>2013-03-01T10:37:34Z</time>
      </trkpt>
      <trkpt lat="45.4179" lon="6.60869">
        <ele>1888.6999511719</ele>
        <time>2013-03-01T10:37:34Z</time>
      </trkpt>
      <trkpt lat="45.41763" lon="6.60891">
        <ele>1893.5999755859</ele>
        <time>2013-03-01T10:37:34Z</time>
      </trkpt>
      <trkpt lat="45.41737" lon="6.60913">
        <ele>1895.1999511719</ele>
        <time>2013-03-01T10:37:34Z</time>
      </trkpt>
      <trkpt lat="45.41711" lon="6.60929">
        <ele>1888.3000488281</ele>
        <time>2013-03-01T10:37:34Z</time>
      </trkpt>
      <trkpt lat="45.41686" lon="6.60907">
        <ele>1892.5999755859</ele>
        <time>2013-03-01T10:37:34Z</time>
      </trkpt>
      <trkpt lat="45.4167" lon="6.60869">
        <ele>1886.8000488281</ele>
        <time>2013-03-01T10:37:34Z</time>
      </trkpt>
      <trkpt lat="45.4166" lon="6.60825">
        <ele>1880.8000488281</ele>
        <time>2013-03-01T10:37:34Z</time>
      </trkpt>
      <trkpt lat="45.41647" lon="6.60782">
        <ele>1877.4000244141</ele>
        <time>2013-03-01T10:37:34Z</time>
      </trkpt>
      <trkpt lat="45.41629" lon="6.60745">
        <ele>1876.6999511719</ele>
        <time>2013-03-01T10:37:34Z</time>
      </trkpt>
      <trkpt lat="45.41625" lon="6.60703">
        <ele>1876.9000244141</ele>
        <time>2013-03-01T10:37:34Z</time>
      </trkpt>
      <trkpt lat="45.41598" lon="6.60711">
        <ele>1863</ele>
        <time>2013-03-01T10:37:35Z</time>
      </trkpt>
      <trkpt lat="45.41573" lon="6.60694">
        <ele>1858.3000488281</ele>
        <time>2013-03-01T10:37:35Z</time>
      </trkpt>
      <trkpt lat="45.41547" lon="6.6068">
        <ele>1864.6999511719</ele>
        <time>2013-03-01T10:37:35Z</time>
      </trkpt>
      <trkpt lat="45.41518" lon="6.60665">
        <ele>1880.0999755859</ele>
        <time>2013-03-01T10:37:35Z</time>
      </trkpt>
      <trkpt lat="45.41491" lon="6.60652">
        <ele>1893.3000488281</ele>
        <time>2013-03-01T10:37:35Z</time>
      </trkpt>
      <trkpt lat="45.41462" lon="6.60645">
        <ele>1895</ele>
        <time>2013-03-01T10:37:35Z</time>
      </trkpt>
      <trkpt lat="45.41434" lon="6.60629">
        <ele>1915.3000488281</ele>
        <time>2013-03-01T10:37:35Z</time>
      </trkpt>
      <trkpt lat="45.41405" lon="6.60616">
        <ele>1934.5</ele>
        <time>2013-03-01T10:37:35Z</time>
      </trkpt>
      <trkpt lat="45.41378" lon="6.60599">
        <ele>1945.4000244141</ele>
        <time>2013-03-01T10:37:35Z</time>
      </trkpt>
      <trkpt lat="45.41351" lon="6.60582">
        <ele>1953.5999755859</ele>
        <time>2013-03-01T10:37:35Z</time>
      </trkpt>
      <trkpt lat="45.41326" lon="6.60568">
        <ele>1963.6999511719</ele>
        <time>2013-03-01T10:37:35Z</time>
      </trkpt>
      <trkpt lat="45.41298" lon="6.60562">
        <ele>1970.3000488281</ele>
        <time>2013-03-01T10:37:35Z</time>
      </trkpt>
      <trkpt lat="45.41272" lon="6.60549">
        <ele>1986.8000488281</ele>
        <time>2013-03-01T10:37:35Z</time>
      </trkpt>
      <trkpt lat="45.41246" lon="6.60534">
        <ele>2006.6000976562</ele>
        <time>2013-03-01T10:37:35Z</time>
      </trkpt>
      <trkpt lat="45.41217" lon="6.6052">
        <ele>2032</ele>
        <time>2013-03-01T10:37:35Z</time>
      </trkpt>
      <trkpt lat="45.41191" lon="6.60506">
        <ele>2055.8999023438</ele>
        <time>2013-03-01T10:37:35Z</time>
      </trkpt>
      <trkpt lat="45.41165" lon="6.60492">
        <ele>2079.1000976562</ele>
        <time>2013-03-01T10:37:35Z</time>
      </trkpt>
      <trkpt lat="45.41137" lon="6.60477">
        <ele>2097.1999511719</ele>
        <time>2013-03-01T10:37:35Z</time>
      </trkpt>
      <trkpt lat="45.41111" lon="6.60462">
        <ele>2116.8999023438</ele>
        <time>2013-03-01T10:37:35Z</time>
      </trkpt>
      <trkpt lat="45.41083" lon="6.60449">
        <ele>2138.3999023438</ele>
        <time>2013-03-01T10:37:35Z</time>
      </trkpt>
      <trkpt lat="45.41055" lon="6.60433">
        <ele>2160.3000488281</ele>
        <time>2013-03-01T10:37:35Z</time>
      </trkpt>
      <trkpt lat="45.41027" lon="6.60418">
        <ele>2179.3999023438</ele>
        <time>2013-03-01T10:37:35Z</time>
      </trkpt>
      <trkpt lat="45.41001" lon="6.60403">
        <ele>2200.6999511719</ele>
        <time>2013-03-01T10:37:35Z</time>
      </trkpt>
      <trkpt lat="45.40974" lon="6.60388">
        <ele>2222</ele>
        <time>2013-03-01T10:37:35Z</time>
      </trkpt>
      <trkpt lat="45.40947" lon="6.60374">
        <ele>2233.8999023438</ele>
        <time>2013-03-01T10:37:35Z</time>
      </trkpt>
      <trkpt lat="45.40919" lon="6.60358">
        <ele>2240.5</ele>
        <time>2013-03-01T10:37:35Z</time>
      </trkpt>
      <trkpt lat="45.40892" lon="6.60343">
        <ele>2252.5</ele>
        <time>2013-03-01T10:37:35Z</time>
      </trkpt>
      <trkpt lat="45.40865" lon="6.60331">
        <ele>2268.3999023438</ele>
        <time>2013-03-01T10:37:35Z</time>
      </trkpt>
      <trkpt lat="45.40838" lon="6.60317">
        <ele>2284.3000488281</ele>
        <time>2013-03-01T10:37:35Z</time>
      </trkpt>
      <trkpt lat="45.40811" lon="6.60303">
        <ele>2295.1000976562</ele>
        <time>2013-03-01T10:37:35Z</time>
      </trkpt>
      <trkpt lat="45.40782" lon="6.60289">
        <ele>2298.3999023438</ele>
        <time>2013-03-01T10:37:35Z</time>
      </trkpt>
      <trkpt lat="45.40754" lon="6.60293">
        <ele>2297.6000976562</ele>
        <time>2013-03-01T10:37:35Z</time>
      </trkpt>
      <trkpt lat="45.40725" lon="6.60312">
        <ele>2302.8999023438</ele>
        <time>2013-03-01T10:37:35Z</time>
      </trkpt>
      <trkpt lat="45.40702" lon="6.60339">
        <ele>2303.3999023438</ele>
        <time>2013-03-01T10:37:35Z</time>
      </trkpt>
      <trkpt lat="45.40681" lon="6.60366">
        <ele>2300.8999023438</ele>
        <time>2013-03-01T10:37:35Z</time>
      </trkpt>
      <trkpt lat="45.40667" lon="6.60405">
        <ele>2292.3000488281</ele>
        <time>2013-03-01T10:37:35Z</time>
      </trkpt>
      <trkpt lat="45.40653" lon="6.60448">
        <ele>2287.8999023438</ele>
        <time>2013-03-01T10:37:36Z</time>
      </trkpt>
      <trkpt lat="45.40644" lon="6.60492">
        <ele>2285.8000488281</ele>
        <time>2013-03-01T10:37:36Z</time>
      </trkpt>
      <trkpt lat="45.40632" lon="6.60531">
        <ele>2281.1000976562</ele>
        <time>2013-03-01T10:37:36Z</time>
      </trkpt>
      <trkpt lat="45.40622" lon="6.60575">
        <ele>2275.3000488281</ele>
        <time>2013-03-01T10:37:36Z</time>
      </trkpt>
      <trkpt lat="45.40618" lon="6.60638">
        <ele>2274.8000488281</ele>
        <time>2013-03-01T10:37:36Z</time>
      </trkpt>
      <trkpt lat="45.40614" lon="6.60678">
        <ele>2272.8999023438</ele>
        <time>2013-03-01T10:37:36Z</time>
      </trkpt>
      <trkpt lat="45.40611" lon="6.60732">
        <ele>2273.5</ele>
        <time>2013-03-01T10:37:36Z</time>
      </trkpt>
      <trkpt lat="45.40608" lon="6.60785">
        <ele>2268.5</ele>
        <time>2013-03-01T10:37:36Z</time>
      </trkpt>
      <trkpt lat="45.40609" lon="6.60841">
        <ele>2264</ele>
        <time>2013-03-01T10:37:36Z</time>
      </trkpt>
      <trkpt lat="45.40614" lon="6.6089">
        <ele>2259.3999023438</ele>
        <time>2013-03-01T10:37:36Z</time>
      </trkpt>
      <trkpt lat="45.40621" lon="6.60934">
        <ele>2257.5</ele>
        <time>2013-03-01T10:37:36Z</time>
      </trkpt>
      <trkpt lat="45.40632" lon="6.60986">
        <ele>2256</ele>
        <time>2013-03-01T10:37:36Z</time>
      </trkpt>
      <trkpt lat="45.40629" lon="6.61031">
        <ele>2254.6999511719</ele>
        <time>2013-03-01T10:37:36Z</time>
      </trkpt>
      <trkpt lat="45.40616" lon="6.61067">
        <ele>2247.5</ele>
        <time>2013-03-01T10:37:36Z</time>
      </trkpt>
      <trkpt lat="45.40601" lon="6.6111">
        <ele>2241.6000976562</ele>
        <time>2013-03-01T10:37:36Z</time>
      </trkpt>
      <trkpt lat="45.40592" lon="6.61155">
        <ele>2237</ele>
        <time>2013-03-01T10:37:36Z</time>
      </trkpt>
      <trkpt lat="45.40585" lon="6.61197">
        <ele>2234.3000488281</ele>
        <time>2013-03-01T10:37:36Z</time>
      </trkpt>
      <trkpt lat="45.40573" lon="6.61236">
        <ele>2228.6000976562</ele>
        <time>2013-03-01T10:37:36Z</time>
      </trkpt>
      <trkpt lat="45.40547" lon="6.61254">
        <ele>2222.3000488281</ele>
        <time>2013-03-01T10:37:36Z</time>
      </trkpt>
      <trkpt lat="45.40517" lon="6.6127">
        <ele>2219.1999511719</ele>
        <time>2013-03-01T10:37:36Z</time>
      </trkpt>
      <trkpt lat="45.4049" lon="6.61289">
        <ele>2214.6000976562</ele>
        <time>2013-03-01T10:37:36Z</time>
      </trkpt>
      <trkpt lat="45.40462" lon="6.61311">
        <ele>2214.5</ele>
        <time>2013-03-01T10:37:36Z</time>
      </trkpt>
      <trkpt lat="45.40439" lon="6.61344">
        <ele>2214.1999511719</ele>
        <time>2013-03-01T10:37:36Z</time>
      </trkpt>
      <trkpt lat="45.40415" lon="6.61382">
        <ele>2212.1999511719</ele>
        <time>2013-03-01T10:37:36Z</time>
      </trkpt>
      <trkpt lat="45.40399" lon="6.61418">
        <ele>2206</ele>
        <time>2013-03-01T10:37:36Z</time>
      </trkpt>
      <trkpt lat="45.40381" lon="6.61452">
        <ele>2196.6000976562</ele>
        <time>2013-03-01T10:37:36Z</time>
      </trkpt>
      <trkpt lat="45.40364" lon="6.61491">
        <ele>2182.8999023438</ele>
        <time>2013-03-01T10:37:36Z</time>
      </trkpt>
      <trkpt lat="45.4034" lon="6.61513">
        <ele>2174.1000976562</ele>
        <time>2013-03-01T10:37:36Z</time>
      </trkpt>
      <trkpt lat="45.40316" lon="6.61538">
        <ele>2169.3999023438</ele>
        <time>2013-03-01T10:37:36Z</time>
      </trkpt>
      <trkpt lat="45.403" lon="6.61578">
        <ele>2164.6999511719</ele>
        <time>2013-03-01T10:37:36Z</time>
      </trkpt>
      <trkpt lat="45.40282" lon="6.61613">
        <ele>2152.6999511719</ele>
        <time>2013-03-01T10:37:36Z</time>
      </trkpt>
      <trkpt lat="45.40253" lon="6.61622">
        <ele>2141.6999511719</ele>
        <time>2013-03-01T10:37:36Z</time>
      </trkpt>
      <trkpt lat="45.40228" lon="6.61643">
        <ele>2129.8000488281</ele>
        <time>2013-03-01T10:37:36Z</time>
      </trkpt>
      <trkpt lat="45.4022" lon="6.61684">
        <ele>2115.6999511719</ele>
        <time>2013-03-01T10:37:36Z</time>
      </trkpt>
      <trkpt lat="45.40223" lon="6.61724">
        <ele>2102.8000488281</ele>
        <time>2013-03-01T10:37:36Z</time>
      </trkpt>
      <trkpt lat="45.40234" lon="6.6176">
        <ele>2102.5</ele>
        <time>2013-03-01T10:37:36Z</time>
      </trkpt>
      <trkpt lat="45.40229" lon="6.618">
        <ele>2090.6000976562</ele>
        <time>2013-03-01T10:37:36Z</time>
      </trkpt>
      <trkpt lat="45.40235" lon="6.61843">
        <ele>2076.3999023438</ele>
        <time>2013-03-01T10:37:36Z</time>
      </trkpt>
      <trkpt lat="45.40255" lon="6.61882">
        <ele>2077.5</ele>
        <time>2013-03-01T10:37:36Z</time>
      </trkpt>
      <trkpt lat="45.40269" lon="6.61927">
        <ele>2069</ele>
        <time>2013-03-01T10:37:36Z</time>
      </trkpt>
      <trkpt lat="45.40272" lon="6.61967">
        <ele>2063.5</ele>
        <time>2013-03-01T10:37:36Z</time>
      </trkpt>
      <trkpt lat="45.40291" lon="6.61999">
        <ele>2048.3999023438</ele>
        <time>2013-03-01T10:37:36Z</time>
      </trkpt>
      <trkpt lat="45.4031" lon="6.62032">
        <ele>2043.1000976562</ele>
        <time>2013-03-01T10:37:36Z</time>
      </trkpt>
      <trkpt lat="45.4033" lon="6.62067">
        <ele>2038.3000488281</ele>
        <time>2013-03-01T10:37:36Z</time>
      </trkpt>
      <trkpt lat="45.40351" lon="6.62106">
        <ele>2032.3999023438</ele>
        <time>2013-03-01T10:37:36Z</time>
      </trkpt>
      <trkpt lat="45.40374" lon="6.62152">
        <ele>2026.3999023438</ele>
        <time>2013-03-01T10:37:36Z</time>
      </trkpt>
      <trkpt lat="45.40401" lon="6.62187">
        <ele>2019.3000488281</ele>
        <time>2013-03-01T10:37:36Z</time>
      </trkpt>
      <trkpt lat="45.40422" lon="6.62226">
        <ele>2014.1999511719</ele>
        <time>2013-03-01T10:37:36Z</time>
      </trkpt>
      <trkpt lat="45.40441" lon="6.62263">
        <ele>2010.6000976562</ele>
        <time>2013-03-01T10:37:36Z</time>
      </trkpt>
      <trkpt lat="45.40464" lon="6.623">
        <ele>2007.8000488281</ele>
        <time>2013-03-01T10:37:36Z</time>
      </trkpt>
      <trkpt lat="45.40489" lon="6.62333">
        <ele>2006.6000976562</ele>
        <time>2013-03-01T10:37:36Z</time>
      </trkpt>
      <trkpt lat="45.4051" lon="6.62375">
        <ele>2001.5</ele>
        <time>2013-03-01T10:37:36Z</time>
      </trkpt>
      <trkpt lat="45.40537" lon="6.6242">
        <ele>1997.5</ele>
        <time>2013-03-01T10:37:36Z</time>
      </trkpt>
      <trkpt lat="45.40558" lon="6.62451">
        <ele>1995.6999511719</ele>
        <time>2013-03-01T10:37:36Z</time>
      </trkpt>
      <trkpt lat="45.40581" lon="6.62481">
        <ele>1995.8000488281</ele>
        <time>2013-03-01T10:37:36Z</time>
      </trkpt>
      <trkpt lat="45.40609" lon="6.6252">
        <ele>1994.5</ele>
        <time>2013-03-01T10:37:36Z</time>
      </trkpt>
      <trkpt lat="45.40638" lon="6.62555">
        <ele>1984.9000244141</ele>
        <time>2013-03-01T10:37:36Z</time>
      </trkpt>
      <trkpt lat="45.40669" lon="6.62586">
        <ele>1974.6999511719</ele>
        <time>2013-03-01T10:37:36Z</time>
      </trkpt>
      <trkpt lat="45.40705" lon="6.62607">
        <ele>1965.3000488281</ele>
        <time>2013-03-01T10:37:36Z</time>
      </trkpt>
      <trkpt lat="45.40737" lon="6.62621">
        <ele>1955.0999755859</ele>
        <time>2013-03-01T10:37:36Z</time>
      </trkpt>
      <trkpt lat="45.40764" lon="6.62641">
        <ele>1946.8000488281</ele>
        <time>2013-03-01T10:37:36Z</time>
      </trkpt>
      <trkpt lat="45.40734" lon="6.6265">
        <ele>1938</ele>
        <time>2013-03-01T10:37:36Z</time>
      </trkpt>
      <trkpt lat="45.407" lon="6.62651">
        <ele>1932.4000244141</ele>
        <time>2013-03-01T10:37:36Z</time>
      </trkpt>
      <trkpt lat="45.40671" lon="6.62644">
        <ele>1926.4000244141</ele>
        <time>2013-03-01T10:37:36Z</time>
      </trkpt>
      <trkpt lat="45.40643" lon="6.62639">
        <ele>1924.3000488281</ele>
        <time>2013-03-01T10:37:36Z</time>
      </trkpt>
      <trkpt lat="45.4061" lon="6.62627">
        <ele>1922.5999755859</ele>
        <time>2013-03-01T10:37:36Z</time>
      </trkpt>
      <trkpt lat="45.40581" lon="6.6261">
        <ele>1920.1999511719</ele>
        <time>2013-03-01T10:37:36Z</time>
      </trkpt>
      <trkpt lat="45.40552" lon="6.62592">
        <ele>1915.0999755859</ele>
        <time>2013-03-01T10:37:36Z</time>
      </trkpt>
      <trkpt lat="45.40519" lon="6.62577">
        <ele>1911.1999511719</ele>
        <time>2013-03-01T10:37:36Z</time>
      </trkpt>
      <trkpt lat="45.40491" lon="6.62583">
        <ele>1902.0999755859</ele>
        <time>2013-03-01T10:37:36Z</time>
      </trkpt>
      <trkpt lat="45.40468" lon="6.62618">
        <ele>1896.1999511719</ele>
        <time>2013-03-01T10:37:36Z</time>
      </trkpt>
      <trkpt lat="45.40466" lon="6.62666">
        <ele>1894.3000488281</ele>
        <time>2013-03-01T10:37:36Z</time>
      </trkpt>
      <trkpt lat="45.40477" lon="6.62711">
        <ele>1891.5</ele>
        <time>2013-03-01T10:37:36Z</time>
      </trkpt>
      <trkpt lat="45.40493" lon="6.62754">
        <ele>1889.6999511719</ele>
        <time>2013-03-01T10:37:36Z</time>
      </trkpt>
      <trkpt lat="45.40512" lon="6.62786">
        <ele>1887.1999511719</ele>
        <time>2013-03-01T10:37:36Z</time>
      </trkpt>
      <trkpt lat="45.40532" lon="6.62817">
        <ele>1884</ele>
        <time>2013-03-01T10:37:36Z</time>
      </trkpt>
      <trkpt lat="45.40553" lon="6.62844">
        <ele>1881.5999755859</ele>
        <time>2013-03-01T10:37:36Z</time>
      </trkpt>
      <trkpt lat="45.40576" lon="6.6287">
        <ele>1878.5999755859</ele>
        <time>2013-03-01T10:37:36Z</time>
      </trkpt>
      <trkpt lat="45.40604" lon="6.62895">
        <ele>1876.1999511719</ele>
        <time>2013-03-01T10:37:36Z</time>
      </trkpt>
      <trkpt lat="45.40628" lon="6.6292">
        <ele>1872.3000488281</ele>
        <time>2013-03-01T10:37:36Z</time>
      </trkpt>
      <trkpt lat="45.4065" lon="6.62945">
        <ele>1870.6999511719</ele>
        <time>2013-03-01T10:37:36Z</time>
      </trkpt>
      <trkpt lat="45.40622" lon="6.62947">
        <ele>1862.0999755859</ele>
        <time>2013-03-01T10:37:36Z</time>
      </trkpt>
      <trkpt lat="45.40595" lon="6.62936">
        <ele>1868.4000244141</ele>
        <time>2013-03-01T10:37:36Z</time>
      </trkpt>
      <trkpt lat="45.40568" lon="6.62923">
        <ele>1873.8000488281</ele>
        <time>2013-03-01T10:37:36Z</time>
      </trkpt>
      <trkpt lat="45.40538" lon="6.62912">
        <ele>1879.5999755859</ele>
        <time>2013-03-01T10:37:36Z</time>
      </trkpt>
      <trkpt lat="45.4051" lon="6.62901">
        <ele>1888.3000488281</ele>
        <time>2013-03-01T10:37:36Z</time>
      </trkpt>
      <trkpt lat="45.40483" lon="6.6289">
        <ele>1892.0999755859</ele>
        <time>2013-03-01T10:37:36Z</time>
      </trkpt>
      <trkpt lat="45.40454" lon="6.62875">
        <ele>1895.0999755859</ele>
        <time>2013-03-01T10:37:36Z</time>
      </trkpt>
      <trkpt lat="45.40427" lon="6.62863">
        <ele>1902.4000244141</ele>
        <time>2013-03-01T10:37:36Z</time>
      </trkpt>
      <trkpt lat="45.40401" lon="6.6285">
        <ele>1910.1999511719</ele>
        <time>2013-03-01T10:37:36Z</time>
      </trkpt>
      <trkpt lat="45.40373" lon="6.62841">
        <ele>1915.4000244141</ele>
        <time>2013-03-01T10:37:36Z</time>
      </trkpt>
      <trkpt lat="45.40345" lon="6.6283">
        <ele>1921.5</ele>
        <time>2013-03-01T10:37:36Z</time>
      </trkpt>
      <trkpt lat="45.40318" lon="6.62819">
        <ele>1928.4000244141</ele>
        <time>2013-03-01T10:37:36Z</time>
      </trkpt>
      <trkpt lat="45.40288" lon="6.62807">
        <ele>1940.6999511719</ele>
        <time>2013-03-01T10:37:36Z</time>
      </trkpt>
      <trkpt lat="45.40262" lon="6.62797">
        <ele>1941.0999755859</ele>
        <time>2013-03-01T10:37:36Z</time>
      </trkpt>
      <trkpt lat="45.40235" lon="6.62786">
        <ele>1943.1999511719</ele>
        <time>2013-03-01T10:37:36Z</time>
      </trkpt>
      <trkpt lat="45.40208" lon="6.62774">
        <ele>1943.0999755859</ele>
        <time>2013-03-01T10:37:36Z</time>
      </trkpt>
      <trkpt lat="45.40179" lon="6.62759">
        <ele>1947.3000488281</ele>
        <time>2013-03-01T10:37:36Z</time>
      </trkpt>
      <trkpt lat="45.40151" lon="6.62747">
        <ele>1951.3000488281</ele>
        <time>2013-03-01T10:37:36Z</time>
      </trkpt>
      <trkpt lat="45.40123" lon="6.62735">
        <ele>1957.5</ele>
        <time>2013-03-01T10:37:36Z</time>
      </trkpt>
      <trkpt lat="45.40097" lon="6.62724">
        <ele>1964.0999755859</ele>
        <time>2013-03-01T10:37:36Z</time>
      </trkpt>
      <trkpt lat="45.40068" lon="6.62709">
        <ele>1967.5999755859</ele>
        <time>2013-03-01T10:37:36Z</time>
      </trkpt>
      <trkpt lat="45.40039" lon="6.62695">
        <ele>1974.0999755859</ele>
        <time>2013-03-01T10:37:36Z</time>
      </trkpt>
      <trkpt lat="45.40012" lon="6.62686">
        <ele>1987.9000244141</ele>
        <time>2013-03-01T10:37:36Z</time>
      </trkpt>
      <trkpt lat="45.39982" lon="6.62675">
        <ele>2002</ele>
        <time>2013-03-01T10:37:36Z</time>
      </trkpt>
      <trkpt lat="45.39956" lon="6.62661">
        <ele>2013.1999511719</ele>
        <time>2013-03-01T10:37:36Z</time>
      </trkpt>
      <trkpt lat="45.39929" lon="6.62648">
        <ele>2024.1000976562</ele>
        <time>2013-03-01T10:37:36Z</time>
      </trkpt>
      <trkpt lat="45.39902" lon="6.62638">
        <ele>2032.8000488281</ele>
        <time>2013-03-01T10:37:36Z</time>
      </trkpt>
      <trkpt lat="45.39876" lon="6.62626">
        <ele>2040.3999023438</ele>
        <time>2013-03-01T10:37:37Z</time>
      </trkpt>
      <trkpt lat="45.39848" lon="6.62612">
        <ele>2048.1999511719</ele>
        <time>2013-03-01T10:37:37Z</time>
      </trkpt>
      <trkpt lat="45.39821" lon="6.62601">
        <ele>2052.8000488281</ele>
        <time>2013-03-01T10:37:37Z</time>
      </trkpt>
      <trkpt lat="45.39793" lon="6.62588">
        <ele>2058.5</ele>
        <time>2013-03-01T10:37:37Z</time>
      </trkpt>
      <trkpt lat="45.39763" lon="6.62574">
        <ele>2063.8000488281</ele>
        <time>2013-03-01T10:37:37Z</time>
      </trkpt>
      <trkpt lat="45.39735" lon="6.6256">
        <ele>2072.8999023438</ele>
        <time>2013-03-01T10:37:37Z</time>
      </trkpt>
      <trkpt lat="45.39708" lon="6.62549">
        <ele>2087.1999511719</ele>
        <time>2013-03-01T10:37:37Z</time>
      </trkpt>
      <trkpt lat="45.39681" lon="6.62537">
        <ele>2098.1999511719</ele>
        <time>2013-03-01T10:37:37Z</time>
      </trkpt>
      <trkpt lat="45.39653" lon="6.62526">
        <ele>2104.3999023438</ele>
        <time>2013-03-01T10:37:37Z</time>
      </trkpt>
      <trkpt lat="45.39626" lon="6.62516">
        <ele>2104.6000976562</ele>
        <time>2013-03-01T10:37:37Z</time>
      </trkpt>
      <trkpt lat="45.39597" lon="6.62504">
        <ele>2109.3000488281</ele>
        <time>2013-03-01T10:37:37Z</time>
      </trkpt>
      <trkpt lat="45.3957" lon="6.62494">
        <ele>2118.3999023438</ele>
        <time>2013-03-01T10:37:37Z</time>
      </trkpt>
      <trkpt lat="45.39544" lon="6.62482">
        <ele>2126.1999511719</ele>
        <time>2013-03-01T10:37:37Z</time>
      </trkpt>
      <trkpt lat="45.39518" lon="6.62469">
        <ele>2130.6999511719</ele>
        <time>2013-03-01T10:37:37Z</time>
      </trkpt>
      <trkpt lat="45.39488" lon="6.62456">
        <ele>2131.3000488281</ele>
        <time>2013-03-01T10:37:37Z</time>
      </trkpt>
      <trkpt lat="45.3946" lon="6.62444">
        <ele>2135.6999511719</ele>
        <time>2013-03-01T10:37:37Z</time>
      </trkpt>
      <trkpt lat="45.39431" lon="6.62434">
        <ele>2142.6000976562</ele>
        <time>2013-03-01T10:37:37Z</time>
      </trkpt>
      <trkpt lat="45.39403" lon="6.62419">
        <ele>2147.8000488281</ele>
        <time>2013-03-01T10:37:37Z</time>
      </trkpt>
      <trkpt lat="45.39376" lon="6.62407">
        <ele>2159.6000976562</ele>
        <time>2013-03-01T10:37:37Z</time>
      </trkpt>
      <trkpt lat="45.3935" lon="6.62394">
        <ele>2171.1000976562</ele>
        <time>2013-03-01T10:37:37Z</time>
      </trkpt>
      <trkpt lat="45.39323" lon="6.62385">
        <ele>2185.6000976562</ele>
        <time>2013-03-01T10:37:37Z</time>
      </trkpt>
      <trkpt lat="45.39296" lon="6.62371">
        <ele>2189.3999023438</ele>
        <time>2013-03-01T10:37:37Z</time>
      </trkpt>
      <trkpt lat="45.39269" lon="6.6236">
        <ele>2197.3999023438</ele>
        <time>2013-03-01T10:37:37Z</time>
      </trkpt>
      <trkpt lat="45.39241" lon="6.62349">
        <ele>2206.8999023438</ele>
        <time>2013-03-01T10:37:37Z</time>
      </trkpt>
      <trkpt lat="45.39215" lon="6.62334">
        <ele>2214.5</ele>
        <time>2013-03-01T10:37:37Z</time>
      </trkpt>
      <trkpt lat="45.39191" lon="6.62313">
        <ele>2221.6000976562</ele>
        <time>2013-03-01T10:37:37Z</time>
      </trkpt>
      <trkpt lat="45.39184" lon="6.62274">
        <ele>2222.1000976562</ele>
        <time>2013-03-01T10:37:37Z</time>
      </trkpt>
      <trkpt lat="45.39208" lon="6.6225">
        <ele>2208.3000488281</ele>
        <time>2013-03-01T10:37:37Z</time>
      </trkpt>
      <trkpt lat="45.39238" lon="6.62246">
        <ele>2207.1999511719</ele>
        <time>2013-03-01T10:37:37Z</time>
      </trkpt>
      <trkpt lat="45.39246" lon="6.62204">
        <ele>2189.5</ele>
        <time>2013-03-01T10:37:37Z</time>
      </trkpt>
      <trkpt lat="45.39268" lon="6.62169">
        <ele>2182.1000976562</ele>
        <time>2013-03-01T10:37:37Z</time>
      </trkpt>
      <trkpt lat="45.39268" lon="6.6213">
        <ele>2169.5</ele>
        <time>2013-03-01T10:37:37Z</time>
      </trkpt>
      <trkpt lat="45.39273" lon="6.6209">
        <ele>2166.1999511719</ele>
        <time>2013-03-01T10:37:37Z</time>
      </trkpt>
      <trkpt lat="45.39298" lon="6.6207">
        <ele>2158.3000488281</ele>
        <time>2013-03-01T10:37:37Z</time>
      </trkpt>
      <trkpt lat="45.39332" lon="6.62071">
        <ele>2144.3000488281</ele>
        <time>2013-03-01T10:37:37Z</time>
      </trkpt>
      <trkpt lat="45.39361" lon="6.62061">
        <ele>2135.1000976562</ele>
        <time>2013-03-01T10:37:37Z</time>
      </trkpt>
      <trkpt lat="45.39388" lon="6.62039">
        <ele>2128.1999511719</ele>
        <time>2013-03-01T10:37:37Z</time>
      </trkpt>
      <trkpt lat="45.39416" lon="6.62026">
        <ele>2126.3999023438</ele>
        <time>2013-03-01T10:37:37Z</time>
      </trkpt>
      <trkpt lat="45.39447" lon="6.62018">
        <ele>2123.6000976562</ele>
        <time>2013-03-01T10:37:37Z</time>
      </trkpt>
      <trkpt lat="45.39476" lon="6.62013">
        <ele>2122</ele>
        <time>2013-03-01T10:37:37Z</time>
      </trkpt>
      <trkpt lat="45.39506" lon="6.61991">
        <ele>2120.1999511719</ele>
        <time>2013-03-01T10:37:37Z</time>
      </trkpt>
      <trkpt lat="45.39535" lon="6.61963">
        <ele>2118.8000488281</ele>
        <time>2013-03-01T10:37:37Z</time>
      </trkpt>
      <trkpt lat="45.39572" lon="6.61974">
        <ele>2105.6999511719</ele>
        <time>2013-03-01T10:37:37Z</time>
      </trkpt>
      <trkpt lat="45.39597" lon="6.61995">
        <ele>2101</ele>
        <time>2013-03-01T10:37:37Z</time>
      </trkpt>
      <trkpt lat="45.39618" lon="6.61969">
        <ele>2081.3999023438</ele>
        <time>2013-03-01T10:37:37Z</time>
      </trkpt>
      <trkpt lat="45.39644" lon="6.61954">
        <ele>2079.8000488281</ele>
        <time>2013-03-01T10:37:37Z</time>
      </trkpt>
      <trkpt lat="45.39618" lon="6.6193">
        <ele>2089.6999511719</ele>
        <time>2013-03-01T10:37:37Z</time>
      </trkpt>
      <trkpt lat="45.39588" lon="6.61909">
        <ele>2093.3000488281</ele>
        <time>2013-03-01T10:37:37Z</time>
      </trkpt>
      <trkpt lat="45.39556" lon="6.61888">
        <ele>2095.6999511719</ele>
        <time>2013-03-01T10:37:37Z</time>
      </trkpt>
      <trkpt lat="45.39526" lon="6.61863">
        <ele>2093.3999023438</ele>
        <time>2013-03-01T10:37:37Z</time>
      </trkpt>
      <trkpt lat="45.39503" lon="6.61833">
        <ele>2093.5</ele>
        <time>2013-03-01T10:37:37Z</time>
      </trkpt>
      <trkpt lat="45.39471" lon="6.61817">
        <ele>2097.5</ele>
        <time>2013-03-01T10:37:37Z</time>
      </trkpt>
      <trkpt lat="45.39442" lon="6.61796">
        <ele>2098.1000976562</ele>
        <time>2013-03-01T10:37:37Z</time>
      </trkpt>
      <trkpt lat="45.3941" lon="6.61769">
        <ele>2099.6000976562</ele>
        <time>2013-03-01T10:37:37Z</time>
      </trkpt>
      <trkpt lat="45.39382" lon="6.61748">
        <ele>2100.3999023438</ele>
        <time>2013-03-01T10:37:38Z</time>
      </trkpt>
      <trkpt lat="45.39353" lon="6.61724">
        <ele>2101.8999023438</ele>
        <time>2013-03-01T10:37:38Z</time>
      </trkpt>
      <trkpt lat="45.39325" lon="6.61707">
        <ele>2104</ele>
        <time>2013-03-01T10:37:38Z</time>
      </trkpt>
      <trkpt lat="45.39293" lon="6.61681">
        <ele>2115.3000488281</ele>
        <time>2013-03-01T10:37:38Z</time>
      </trkpt>
      <trkpt lat="45.39263" lon="6.6166">
        <ele>2121.8999023438</ele>
        <time>2013-03-01T10:37:38Z</time>
      </trkpt>
      <trkpt lat="45.39229" lon="6.61649">
        <ele>2128.8999023438</ele>
        <time>2013-03-01T10:37:38Z</time>
      </trkpt>
      <trkpt lat="45.392" lon="6.61633">
        <ele>2135.3000488281</ele>
        <time>2013-03-01T10:37:38Z</time>
      </trkpt>
      <trkpt lat="45.39174" lon="6.61614">
        <ele>2136.8000488281</ele>
        <time>2013-03-01T10:37:38Z</time>
      </trkpt>
      <trkpt lat="45.39145" lon="6.61597">
        <ele>2140.8999023438</ele>
        <time>2013-03-01T10:37:38Z</time>
      </trkpt>
      <trkpt lat="45.39114" lon="6.61592">
        <ele>2154</ele>
        <time>2013-03-01T10:37:38Z</time>
      </trkpt>
      <trkpt lat="45.39084" lon="6.61584">
        <ele>2162.1000976562</ele>
        <time>2013-03-01T10:37:38Z</time>
      </trkpt>
      <trkpt lat="45.39059" lon="6.61565">
        <ele>2168.3000488281</ele>
        <time>2013-03-01T10:37:38Z</time>
      </trkpt>
      <trkpt lat="45.39032" lon="6.61549">
        <ele>2176.6999511719</ele>
        <time>2013-03-01T10:37:38Z</time>
      </trkpt>
      <trkpt lat="45.39004" lon="6.61535">
        <ele>2179.6000976562</ele>
        <time>2013-03-01T10:37:38Z</time>
      </trkpt>
      <trkpt lat="45.38976" lon="6.6152">
        <ele>2186.6999511719</ele>
        <time>2013-03-01T10:37:38Z</time>
      </trkpt>
      <trkpt lat="45.38952" lon="6.61494">
        <ele>2196.6999511719</ele>
        <time>2013-03-01T10:37:38Z</time>
      </trkpt>
      <trkpt lat="45.3892" lon="6.61468">
        <ele>2206.1999511719</ele>
        <time>2013-03-01T10:37:38Z</time>
      </trkpt>
      <trkpt lat="45.389" lon="6.61438">
        <ele>2215</ele>
        <time>2013-03-01T10:37:38Z</time>
      </trkpt>
      <trkpt lat="45.38873" lon="6.61413">
        <ele>2223.6000976562</ele>
        <time>2013-03-01T10:37:38Z</time>
      </trkpt>
      <trkpt lat="45.3884" lon="6.61398">
        <ele>2235.3999023438</ele>
        <time>2013-03-01T10:37:38Z</time>
      </trkpt>
      <trkpt lat="45.38816" lon="6.61378">
        <ele>2247.5</ele>
        <time>2013-03-01T10:37:38Z</time>
      </trkpt>
      <trkpt lat="45.38784" lon="6.61362">
        <ele>2264.6000976562</ele>
        <time>2013-03-01T10:37:38Z</time>
      </trkpt>
      <trkpt lat="45.38753" lon="6.61344">
        <ele>2276.5</ele>
        <time>2013-03-01T10:37:38Z</time>
      </trkpt>
      <trkpt lat="45.38718" lon="6.61324">
        <ele>2282.3999023438</ele>
        <time>2013-03-01T10:37:38Z</time>
      </trkpt>
      <trkpt lat="45.38689" lon="6.6129">
        <ele>2295.6999511719</ele>
        <time>2013-03-01T10:37:38Z</time>
      </trkpt>
      <trkpt lat="45.38668" lon="6.61265">
        <ele>2298</ele>
        <time>2013-03-01T10:37:38Z</time>
      </trkpt>
      <trkpt lat="45.38647" lon="6.61239">
        <ele>2302</ele>
        <time>2013-03-01T10:37:38Z</time>
      </trkpt>
      <trkpt lat="45.3862" lon="6.61212">
        <ele>2304.3000488281</ele>
        <time>2013-03-01T10:37:38Z</time>
      </trkpt>
      <trkpt lat="45.38594" lon="6.61178">
        <ele>2314.5</ele>
        <time>2013-03-01T10:37:38Z</time>
      </trkpt>
      <trkpt lat="45.38566" lon="6.61158">
        <ele>2321.8000488281</ele>
        <time>2013-03-01T10:37:38Z</time>
      </trkpt>
      <trkpt lat="45.38545" lon="6.61127">
        <ele>2333</ele>
        <time>2013-03-01T10:37:38Z</time>
      </trkpt>
      <trkpt lat="45.38517" lon="6.61106">
        <ele>2338.1999511719</ele>
        <time>2013-03-01T10:37:38Z</time>
      </trkpt>
      <trkpt lat="45.38489" lon="6.61087">
        <ele>2343.8000488281</ele>
        <time>2013-03-01T10:37:38Z</time>
      </trkpt>
      <trkpt lat="45.38461" lon="6.6107">
        <ele>2348.6000976562</ele>
        <time>2013-03-01T10:37:38Z</time>
      </trkpt>
      <trkpt lat="45.38428" lon="6.61061">
        <ele>2360.8000488281</ele>
        <time>2013-03-01T10:37:38Z</time>
      </trkpt>
      <trkpt lat="45.38399" lon="6.61059">
        <ele>2380.1999511719</ele>
        <time>2013-03-01T10:37:38Z</time>
      </trkpt>
      <trkpt lat="45.38373" lon="6.61072">
        <ele>2485.1000976562</ele>
        <time>2013-03-01T10:37:38Z</time>
      </trkpt>
      <trkpt lat="45.3835" lon="6.61052">
        <ele>2647.6000976562</ele>
        <time>2013-03-01T10:37:38Z</time>
      </trkpt>
      <trkpt lat="45.38373" lon="6.61028">
        <ele>2696.5</ele>
        <time>2013-03-01T10:37:38Z</time>
      </trkpt>
      <trkpt lat="45.384" lon="6.6101">
        <ele>2687.3999023438</ele>
        <time>2013-03-01T10:37:38Z</time>
      </trkpt>
      <trkpt lat="45.3843" lon="6.60998">
        <ele>2679.6000976562</ele>
        <time>2013-03-01T10:37:38Z</time>
      </trkpt>
      <trkpt lat="45.38437" lon="6.61038">
        <ele>2650.3000488281</ele>
        <time>2013-03-01T10:37:38Z</time>
      </trkpt>
      <trkpt lat="45.38434" lon="6.61081">
        <ele>2628.3999023438</ele>
        <time>2013-03-01T10:37:38Z</time>
      </trkpt>
      <trkpt lat="45.38456" lon="6.61109">
        <ele>2607.3000488281</ele>
        <time>2013-03-01T10:37:38Z</time>
      </trkpt>
      <trkpt lat="45.3845" lon="6.6115">
        <ele>2591.6000976562</ele>
        <time>2013-03-01T10:37:38Z</time>
      </trkpt>
      <trkpt lat="45.38448" lon="6.61192">
        <ele>2586.8000488281</ele>
        <time>2013-03-01T10:37:38Z</time>
      </trkpt>
      <trkpt lat="45.38476" lon="6.61214">
        <ele>2562</ele>
        <time>2013-03-01T10:37:38Z</time>
      </trkpt>
      <trkpt lat="45.38501" lon="6.6125">
        <ele>2549.5</ele>
        <time>2013-03-01T10:37:38Z</time>
      </trkpt>
      <trkpt lat="45.38528" lon="6.61272">
        <ele>2520.6999511719</ele>
        <time>2013-03-01T10:37:38Z</time>
      </trkpt>
      <trkpt lat="45.38557" lon="6.61276">
        <ele>2508.6000976562</ele>
        <time>2013-03-01T10:37:38Z</time>
      </trkpt>
      <trkpt lat="45.38589" lon="6.61269">
        <ele>2490.5</ele>
        <time>2013-03-01T10:37:38Z</time>
      </trkpt>
      <trkpt lat="45.38621" lon="6.6128">
        <ele>2471.3999023438</ele>
        <time>2013-03-01T10:37:38Z</time>
      </trkpt>
      <trkpt lat="45.38652" lon="6.61273">
        <ele>2469.8999023438</ele>
        <time>2013-03-01T10:37:38Z</time>
      </trkpt>
      <trkpt lat="45.38678" lon="6.61252">
        <ele>2467.1999511719</ele>
        <time>2013-03-01T10:37:38Z</time>
      </trkpt>
      <trkpt lat="45.38696" lon="6.61215">
        <ele>2461</ele>
        <time>2013-03-01T10:37:38Z</time>
      </trkpt>
      <trkpt lat="45.38724" lon="6.61185">
        <ele>2454.1999511719</ele>
        <time>2013-03-01T10:37:38Z</time>
      </trkpt>
      <trkpt lat="45.38756" lon="6.61172">
        <ele>2447.3000488281</ele>
        <time>2013-03-01T10:37:38Z</time>
      </trkpt>
      <trkpt lat="45.38787" lon="6.61158">
        <ele>2440.1000976562</ele>
        <time>2013-03-01T10:37:38Z</time>
      </trkpt>
      <trkpt lat="45.38817" lon="6.61167">
        <ele>2429.6999511719</ele>
        <time>2013-03-01T10:37:38Z</time>
      </trkpt>
      <trkpt lat="45.38849" lon="6.61181">
        <ele>2417.6000976562</ele>
        <time>2013-03-01T10:37:38Z</time>
      </trkpt>
      <trkpt lat="45.38876" lon="6.61199">
        <ele>2404.3999023438</ele>
        <time>2013-03-01T10:37:38Z</time>
      </trkpt>
      <trkpt lat="45.38906" lon="6.61206">
        <ele>2388.1000976562</ele>
        <time>2013-03-01T10:37:38Z</time>
      </trkpt>
      <trkpt lat="45.38935" lon="6.61217">
        <ele>2375.6999511719</ele>
        <time>2013-03-01T10:37:38Z</time>
      </trkpt>
      <trkpt lat="45.38969" lon="6.61209">
        <ele>2364.5</ele>
        <time>2013-03-01T10:37:38Z</time>
      </trkpt>
      <trkpt lat="45.39001" lon="6.61233">
        <ele>2354.8000488281</ele>
        <time>2013-03-01T10:37:38Z</time>
      </trkpt>
      <trkpt lat="45.3901" lon="6.61274">
        <ele>2349.6999511719</ele>
        <time>2013-03-01T10:37:38Z</time>
      </trkpt>
      <trkpt lat="45.39021" lon="6.6131">
        <ele>2336.3999023438</ele>
        <time>2013-03-01T10:37:38Z</time>
      </trkpt>
      <trkpt lat="45.39051" lon="6.61318">
        <ele>2321.3000488281</ele>
        <time>2013-03-01T10:37:38Z</time>
      </trkpt>
      <trkpt lat="45.39076" lon="6.61344">
        <ele>2306.8999023438</ele>
        <time>2013-03-01T10:37:38Z</time>
      </trkpt>
      <trkpt lat="45.39094" lon="6.61381">
        <ele>2299.3999023438</ele>
        <time>2013-03-01T10:37:38Z</time>
      </trkpt>
      <trkpt lat="45.39125" lon="6.6138">
        <ele>2289.8000488281</ele>
        <time>2013-03-01T10:37:38Z</time>
      </trkpt>
      <trkpt lat="45.3914" lon="6.61415">
        <ele>2287.3999023438</ele>
        <time>2013-03-01T10:37:38Z</time>
      </trkpt>
      <trkpt lat="45.39155" lon="6.61447">
        <ele>2281.1999511719</ele>
        <time>2013-03-01T10:37:39Z</time>
      </trkpt>
      <trkpt lat="45.39175" lon="6.61475">
        <ele>2273.3999023438</ele>
        <time>2013-03-01T10:37:39Z</time>
      </trkpt>
      <trkpt lat="45.39196" lon="6.61509">
        <ele>2269.8999023438</ele>
        <time>2013-03-01T10:37:39Z</time>
      </trkpt>
      <trkpt lat="45.39215" lon="6.6155">
        <ele>2262.6000976562</ele>
        <time>2013-03-01T10:37:39Z</time>
      </trkpt>
      <trkpt lat="45.39233" lon="6.61594">
        <ele>2254.8999023438</ele>
        <time>2013-03-01T10:37:39Z</time>
      </trkpt>
      <trkpt lat="45.39255" lon="6.61627">
        <ele>2239</ele>
        <time>2013-03-01T10:37:39Z</time>
      </trkpt>
      <trkpt lat="45.39278" lon="6.61657">
        <ele>2231.6000976562</ele>
        <time>2013-03-01T10:37:39Z</time>
      </trkpt>
      <trkpt lat="45.39301" lon="6.61681">
        <ele>2223.3000488281</ele>
        <time>2013-03-01T10:37:39Z</time>
      </trkpt>
      <trkpt lat="45.39328" lon="6.61703">
        <ele>2215.6999511719</ele>
        <time>2013-03-01T10:37:39Z</time>
      </trkpt>
      <trkpt lat="45.39362" lon="6.6172">
        <ele>2199.8000488281</ele>
        <time>2013-03-01T10:37:39Z</time>
      </trkpt>
      <trkpt lat="45.39397" lon="6.61743">
        <ele>2197.8000488281</ele>
        <time>2013-03-01T10:37:39Z</time>
      </trkpt>
      <trkpt lat="45.39432" lon="6.6175">
        <ele>2180.8999023438</ele>
        <time>2013-03-01T10:37:39Z</time>
      </trkpt>
      <trkpt lat="45.39458" lon="6.61765">
        <ele>2169.1000976562</ele>
        <time>2013-03-01T10:37:39Z</time>
      </trkpt>
      <trkpt lat="45.39495" lon="6.61782">
        <ele>2155.3000488281</ele>
        <time>2013-03-01T10:37:39Z</time>
      </trkpt>
      <trkpt lat="45.39531" lon="6.61808">
        <ele>2142.1999511719</ele>
        <time>2013-03-01T10:37:39Z</time>
      </trkpt>
      <trkpt lat="45.39547" lon="6.61841">
        <ele>2133.3000488281</ele>
        <time>2013-03-01T10:37:39Z</time>
      </trkpt>
      <trkpt lat="45.39559" lon="6.61876">
        <ele>2128</ele>
        <time>2013-03-01T10:37:39Z</time>
      </trkpt>
      <trkpt lat="45.39586" lon="6.61905">
        <ele>2120.5</ele>
        <time>2013-03-01T10:37:39Z</time>
      </trkpt>
      <trkpt lat="45.39599" lon="6.61941">
        <ele>2116.8999023438</ele>
        <time>2013-03-01T10:37:39Z</time>
      </trkpt>
      <trkpt lat="45.39619" lon="6.61968">
        <ele>2098.6000976562</ele>
        <time>2013-03-01T10:37:39Z</time>
      </trkpt>
      <trkpt lat="45.39647" lon="6.61965">
        <ele>2089.6999511719</ele>
        <time>2013-03-01T10:37:39Z</time>
      </trkpt>
      <trkpt lat="45.39606" lon="6.61943">
        <ele>2098.1000976562</ele>
        <time>2013-03-01T10:37:39Z</time>
      </trkpt>
      <trkpt lat="45.39577" lon="6.61933">
        <ele>2098.1999511719</ele>
        <time>2013-03-01T10:37:39Z</time>
      </trkpt>
      <trkpt lat="45.39544" lon="6.61913">
        <ele>2096.3999023438</ele>
        <time>2013-03-01T10:37:39Z</time>
      </trkpt>
      <trkpt lat="45.39505" lon="6.61896">
        <ele>2096</ele>
        <time>2013-03-01T10:37:39Z</time>
      </trkpt>
      <trkpt lat="45.39475" lon="6.61881">
        <ele>2095.1000976562</ele>
        <time>2013-03-01T10:37:39Z</time>
      </trkpt>
      <trkpt lat="45.39443" lon="6.61862">
        <ele>2095.6999511719</ele>
        <time>2013-03-01T10:37:39Z</time>
      </trkpt>
      <trkpt lat="45.39417" lon="6.61826">
        <ele>2096.6999511719</ele>
        <time>2013-03-01T10:37:39Z</time>
      </trkpt>
      <trkpt lat="45.39396" lon="6.61793">
        <ele>2094.8999023438</ele>
        <time>2013-03-01T10:37:39Z</time>
      </trkpt>
      <trkpt lat="45.39371" lon="6.6177">
        <ele>2093.8000488281</ele>
        <time>2013-03-01T10:37:39Z</time>
      </trkpt>
      <trkpt lat="45.39336" lon="6.61751">
        <ele>2106.3999023438</ele>
        <time>2013-03-01T10:37:39Z</time>
      </trkpt>
      <trkpt lat="45.39305" lon="6.61731">
        <ele>2115.3000488281</ele>
        <time>2013-03-01T10:37:39Z</time>
      </trkpt>
      <trkpt lat="45.39274" lon="6.6171">
        <ele>2128.1000976562</ele>
        <time>2013-03-01T10:37:39Z</time>
      </trkpt>
      <trkpt lat="45.39247" lon="6.61692">
        <ele>2134.8999023438</ele>
        <time>2013-03-01T10:37:39Z</time>
      </trkpt>
      <trkpt lat="45.3922" lon="6.61678">
        <ele>2139.5</ele>
        <time>2013-03-01T10:37:39Z</time>
      </trkpt>
      <trkpt lat="45.39186" lon="6.61657">
        <ele>2146.6999511719</ele>
        <time>2013-03-01T10:37:39Z</time>
      </trkpt>
      <trkpt lat="45.39159" lon="6.61632">
        <ele>2152</ele>
        <time>2013-03-01T10:37:39Z</time>
      </trkpt>
      <trkpt lat="45.39132" lon="6.61609">
        <ele>2158.3000488281</ele>
        <time>2013-03-01T10:37:39Z</time>
      </trkpt>
      <trkpt lat="45.391" lon="6.61595">
        <ele>2171.3999023438</ele>
        <time>2013-03-01T10:37:39Z</time>
      </trkpt>
      <trkpt lat="45.3907" lon="6.61582">
        <ele>2180.1999511719</ele>
        <time>2013-03-01T10:37:39Z</time>
      </trkpt>
      <trkpt lat="45.39043" lon="6.61567">
        <ele>2188.8000488281</ele>
        <time>2013-03-01T10:37:39Z</time>
      </trkpt>
      <trkpt lat="45.39015" lon="6.61554">
        <ele>2197.3999023438</ele>
        <time>2013-03-01T10:37:39Z</time>
      </trkpt>
      <trkpt lat="45.38985" lon="6.61533">
        <ele>2200.1999511719</ele>
        <time>2013-03-01T10:37:39Z</time>
      </trkpt>
      <trkpt lat="45.38952" lon="6.61514">
        <ele>2205.3999023438</ele>
        <time>2013-03-01T10:37:39Z</time>
      </trkpt>
      <trkpt lat="45.38922" lon="6.61489">
        <ele>2210.5</ele>
        <time>2013-03-01T10:37:39Z</time>
      </trkpt>
      <trkpt lat="45.38895" lon="6.61471">
        <ele>2214.3000488281</ele>
        <time>2013-03-01T10:37:39Z</time>
      </trkpt>
      <trkpt lat="45.38866" lon="6.61455">
        <ele>2218.1000976562</ele>
        <time>2013-03-01T10:37:39Z</time>
      </trkpt>
      <trkpt lat="45.38837" lon="6.6143">
        <ele>2235</ele>
        <time>2013-03-01T10:37:39Z</time>
      </trkpt>
      <trkpt lat="45.38812" lon="6.6141">
        <ele>2246.3000488281</ele>
        <time>2013-03-01T10:37:39Z</time>
      </trkpt>
      <trkpt lat="45.38786" lon="6.61394">
        <ele>2258.1999511719</ele>
        <time>2013-03-01T10:37:39Z</time>
      </trkpt>
      <trkpt lat="45.38761" lon="6.61371">
        <ele>2272</ele>
        <time>2013-03-01T10:37:39Z</time>
      </trkpt>
      <trkpt lat="45.38735" lon="6.61355">
        <ele>2277.3999023438</ele>
        <time>2013-03-01T10:37:39Z</time>
      </trkpt>
      <trkpt lat="45.38709" lon="6.61339">
        <ele>2282.1000976562</ele>
        <time>2013-03-01T10:37:39Z</time>
      </trkpt>
      <trkpt lat="45.38682" lon="6.61322">
        <ele>2288.8000488281</ele>
        <time>2013-03-01T10:37:39Z</time>
      </trkpt>
      <trkpt lat="45.38655" lon="6.61306">
        <ele>2292.8000488281</ele>
        <time>2013-03-01T10:37:39Z</time>
      </trkpt>
      <trkpt lat="45.38623" lon="6.6128">
        <ele>2295.6000976562</ele>
        <time>2013-03-01T10:37:39Z</time>
      </trkpt>
      <trkpt lat="45.38597" lon="6.61259">
        <ele>2303.3000488281</ele>
        <time>2013-03-01T10:37:39Z</time>
      </trkpt>
      <trkpt lat="45.3857" lon="6.6124">
        <ele>2305.6000976562</ele>
        <time>2013-03-01T10:37:39Z</time>
      </trkpt>
      <trkpt lat="45.38542" lon="6.61214">
        <ele>2308.8999023438</ele>
        <time>2013-03-01T10:37:39Z</time>
      </trkpt>
      <trkpt lat="45.38517" lon="6.61189">
        <ele>2314.1999511719</ele>
        <time>2013-03-01T10:37:39Z</time>
      </trkpt>
      <trkpt lat="45.38488" lon="6.61172">
        <ele>2318.8999023438</ele>
        <time>2013-03-01T10:37:39Z</time>
      </trkpt>
      <trkpt lat="45.3846" lon="6.61143">
        <ele>2331.3000488281</ele>
        <time>2013-03-01T10:37:39Z</time>
      </trkpt>
      <trkpt lat="45.38442" lon="6.61106">
        <ele>2342.1000976562</ele>
        <time>2013-03-01T10:37:39Z</time>
      </trkpt>
      <trkpt lat="45.38416" lon="6.61079">
        <ele>2356.3999023438</ele>
        <time>2013-03-01T10:37:39Z</time>
      </trkpt>
      <trkpt lat="45.38388" lon="6.61065">
        <ele>2370.5</ele>
        <time>2013-03-01T10:37:39Z</time>
      </trkpt>
      <trkpt lat="45.38359" lon="6.61063">
        <ele>2382.1999511719</ele>
        <time>2013-03-01T10:37:39Z</time>
      </trkpt>
      <trkpt lat="45.38332" lon="6.61055">
        <ele>2405.1999511719</ele>
        <time>2013-03-01T10:37:39Z</time>
      </trkpt>
      <trkpt lat="45.3831" lon="6.61079">
        <ele>2521.6000976562</ele>
        <time>2013-03-01T10:37:39Z</time>
      </trkpt>
      <trkpt lat="45.3833" lon="6.61052">
        <ele>2681.6000976562</ele>
        <time>2013-03-01T10:37:39Z</time>
      </trkpt>
      <trkpt lat="45.38302" lon="6.61063">
        <ele>2699.3999023438</ele>
        <time>2013-03-01T10:37:39Z</time>
      </trkpt>
      <trkpt lat="45.38274" lon="6.61062">
        <ele>2697.3999023438</ele>
        <time>2013-03-01T10:37:39Z</time>
      </trkpt>
      <trkpt lat="45.38245" lon="6.61042">
        <ele>2698</ele>
        <time>2013-03-01T10:37:39Z</time>
      </trkpt>
      <trkpt lat="45.38214" lon="6.61028">
        <ele>2693.8000488281</ele>
        <time>2013-03-01T10:37:39Z</time>
      </trkpt>
      <trkpt lat="45.38187" lon="6.61018">
        <ele>2691.3999023438</ele>
        <time>2013-03-01T10:37:39Z</time>
      </trkpt>
      <trkpt lat="45.38158" lon="6.61014">
        <ele>2689.5</ele>
        <time>2013-03-01T10:37:39Z</time>
      </trkpt>
      <trkpt lat="45.38132" lon="6.61025">
        <ele>2687</ele>
        <time>2013-03-01T10:37:39Z</time>
      </trkpt>
      <trkpt lat="45.38103" lon="6.61016">
        <ele>2682.1000976562</ele>
        <time>2013-03-01T10:37:39Z</time>
      </trkpt>
      <trkpt lat="45.38075" lon="6.61012">
        <ele>2671.1999511719</ele>
        <time>2013-03-01T10:37:39Z</time>
      </trkpt>
      <trkpt lat="45.38043" lon="6.61018">
        <ele>2662.8999023438</ele>
        <time>2013-03-01T10:37:39Z</time>
      </trkpt>
      <trkpt lat="45.38009" lon="6.61014">
        <ele>2649.5</ele>
        <time>2013-03-01T10:37:39Z</time>
      </trkpt>
      <trkpt lat="45.37977" lon="6.61003">
        <ele>2637.3999023438</ele>
        <time>2013-03-01T10:37:39Z</time>
      </trkpt>
      <trkpt lat="45.37947" lon="6.61009">
        <ele>2631.1000976562</ele>
        <time>2013-03-01T10:37:39Z</time>
      </trkpt>
      <trkpt lat="45.37918" lon="6.61027">
        <ele>2620.1999511719</ele>
        <time>2013-03-01T10:37:39Z</time>
      </trkpt>
      <trkpt lat="45.37919" lon="6.61068">
        <ele>2608.3000488281</ele>
        <time>2013-03-01T10:37:39Z</time>
      </trkpt>
      <trkpt lat="45.37921" lon="6.61113">
        <ele>2598.5</ele>
        <time>2013-03-01T10:37:39Z</time>
      </trkpt>
      <trkpt lat="45.3791" lon="6.6115">
        <ele>2589.3000488281</ele>
        <time>2013-03-01T10:37:39Z</time>
      </trkpt>
      <trkpt lat="45.3791" lon="6.61194">
        <ele>2577.1000976562</ele>
        <time>2013-03-01T10:37:39Z</time>
      </trkpt>
      <trkpt lat="45.37918" lon="6.61241">
        <ele>2564.3000488281</ele>
        <time>2013-03-01T10:37:39Z</time>
      </trkpt>
      <trkpt lat="45.3791" lon="6.61286">
        <ele>2558.6999511719</ele>
        <time>2013-03-01T10:37:39Z</time>
      </trkpt>
      <trkpt lat="45.37913" lon="6.61333">
        <ele>2548.3999023438</ele>
        <time>2013-03-01T10:37:39Z</time>
      </trkpt>
      <trkpt lat="45.37904" lon="6.61377">
        <ele>2537.6999511719</ele>
        <time>2013-03-01T10:37:39Z</time>
      </trkpt>
      <trkpt lat="45.37886" lon="6.61409">
        <ele>2526.6999511719</ele>
        <time>2013-03-01T10:37:39Z</time>
      </trkpt>
      <trkpt lat="45.37871" lon="6.61447">
        <ele>2514.6999511719</ele>
        <time>2013-03-01T10:37:39Z</time>
      </trkpt>
      <trkpt lat="45.37852" lon="6.61479">
        <ele>2501.6000976562</ele>
        <time>2013-03-01T10:37:39Z</time>
      </trkpt>
      <trkpt lat="45.37824" lon="6.61495">
        <ele>2486.6999511719</ele>
        <time>2013-03-01T10:37:39Z</time>
      </trkpt>
      <trkpt lat="45.37795" lon="6.61506">
        <ele>2477.3000488281</ele>
        <time>2013-03-01T10:37:39Z</time>
      </trkpt>
      <trkpt lat="45.37773" lon="6.61538">
        <ele>2463.5</ele>
        <time>2013-03-01T10:37:39Z</time>
      </trkpt>
      <trkpt lat="45.37765" lon="6.61583">
        <ele>2453.1999511719</ele>
        <time>2013-03-01T10:37:39Z</time>
      </trkpt>
      <trkpt lat="45.37763" lon="6.61623">
        <ele>2442.3999023438</ele>
        <time>2013-03-01T10:37:39Z</time>
      </trkpt>
      <trkpt lat="45.3776" lon="6.61664">
        <ele>2432.6999511719</ele>
        <time>2013-03-01T10:37:39Z</time>
      </trkpt>
      <trkpt lat="45.37746" lon="6.61701">
        <ele>2429.3000488281</ele>
        <time>2013-03-01T10:37:39Z</time>
      </trkpt>
      <trkpt lat="45.37733" lon="6.61737">
        <ele>2418.6000976562</ele>
        <time>2013-03-01T10:37:39Z</time>
      </trkpt>
      <trkpt lat="45.37732" lon="6.61783">
        <ele>2406.3000488281</ele>
        <time>2013-03-01T10:37:39Z</time>
      </trkpt>
      <trkpt lat="45.37715" lon="6.61823">
        <ele>2398.3000488281</ele>
        <time>2013-03-01T10:37:39Z</time>
      </trkpt>
      <trkpt lat="45.3772" lon="6.61867">
        <ele>2383.1999511719</ele>
        <time>2013-03-01T10:37:39Z</time>
      </trkpt>
      <trkpt lat="45.37713" lon="6.61909">
        <ele>2373.8999023438</ele>
        <time>2013-03-01T10:37:39Z</time>
      </trkpt>
      <trkpt lat="45.37702" lon="6.61947">
        <ele>2364.6000976562</ele>
        <time>2013-03-01T10:37:39Z</time>
      </trkpt>
      <trkpt lat="45.37692" lon="6.61991">
        <ele>2352</ele>
        <time>2013-03-01T10:37:39Z</time>
      </trkpt>
      <trkpt lat="45.37693" lon="6.62047">
        <ele>2337.3000488281</ele>
        <time>2013-03-01T10:37:40Z</time>
      </trkpt>
      <trkpt lat="45.37694" lon="6.62091">
        <ele>2332.3000488281</ele>
        <time>2013-03-01T10:37:40Z</time>
      </trkpt>
      <trkpt lat="45.37691" lon="6.62131">
        <ele>2328.3000488281</ele>
        <time>2013-03-01T10:37:40Z</time>
      </trkpt>
      <trkpt lat="45.37686" lon="6.62188">
        <ele>2325.5</ele>
        <time>2013-03-01T10:37:40Z</time>
      </trkpt>
      <trkpt lat="45.37679" lon="6.62241">
        <ele>2326</ele>
        <time>2013-03-01T10:37:40Z</time>
      </trkpt>
      <trkpt lat="45.37676" lon="6.62283">
        <ele>2320.1000976562</ele>
        <time>2013-03-01T10:37:40Z</time>
      </trkpt>
      <trkpt lat="45.37666" lon="6.62329">
        <ele>2313.8999023438</ele>
        <time>2013-03-01T10:37:40Z</time>
      </trkpt>
      <trkpt lat="45.37661" lon="6.62368">
        <ele>2308.6000976562</ele>
        <time>2013-03-01T10:37:40Z</time>
      </trkpt>
      <trkpt lat="45.37642" lon="6.62399">
        <ele>2303.6999511719</ele>
        <time>2013-03-01T10:37:40Z</time>
      </trkpt>
      <trkpt lat="45.37614" lon="6.62392">
        <ele>2296.1000976562</ele>
        <time>2013-03-01T10:37:40Z</time>
      </trkpt>
      <trkpt lat="45.37601" lon="6.62357">
        <ele>2298.6000976562</ele>
        <time>2013-03-01T10:37:40Z</time>
      </trkpt>
      <trkpt lat="45.3759" lon="6.62319">
        <ele>2307.6999511719</ele>
        <time>2013-03-01T10:37:40Z</time>
      </trkpt>
      <trkpt lat="45.3758" lon="6.62282">
        <ele>2308.1999511719</ele>
        <time>2013-03-01T10:37:40Z</time>
      </trkpt>
      <trkpt lat="45.37568" lon="6.62243">
        <ele>2309.5</ele>
        <time>2013-03-01T10:37:40Z</time>
      </trkpt>
      <trkpt lat="45.37557" lon="6.62205">
        <ele>2309.8999023438</ele>
        <time>2013-03-01T10:37:40Z</time>
      </trkpt>
      <trkpt lat="45.37546" lon="6.62169">
        <ele>2314.6999511719</ele>
        <time>2013-03-01T10:37:40Z</time>
      </trkpt>
      <trkpt lat="45.37533" lon="6.62133">
        <ele>2317.3000488281</ele>
        <time>2013-03-01T10:37:40Z</time>
      </trkpt>
      <trkpt lat="45.37523" lon="6.62096">
        <ele>2329</ele>
        <time>2013-03-01T10:37:40Z</time>
      </trkpt>
      <trkpt lat="45.37511" lon="6.62059">
        <ele>2339.8000488281</ele>
        <time>2013-03-01T10:37:40Z</time>
      </trkpt>
      <trkpt lat="45.37502" lon="6.6202">
        <ele>2355.8000488281</ele>
        <time>2013-03-01T10:37:40Z</time>
      </trkpt>
      <trkpt lat="45.37492" lon="6.61982">
        <ele>2373.8000488281</ele>
        <time>2013-03-01T10:37:40Z</time>
      </trkpt>
      <trkpt lat="45.37479" lon="6.61947">
        <ele>2399.5</ele>
        <time>2013-03-01T10:37:40Z</time>
      </trkpt>
      <trkpt lat="45.37469" lon="6.6191">
        <ele>2422.3000488281</ele>
        <time>2013-03-01T10:37:40Z</time>
      </trkpt>
      <trkpt lat="45.37455" lon="6.61875">
        <ele>2445.5</ele>
        <time>2013-03-01T10:37:40Z</time>
      </trkpt>
      <trkpt lat="45.37444" lon="6.61839">
        <ele>2473.6000976562</ele>
        <time>2013-03-01T10:37:40Z</time>
      </trkpt>
      <trkpt lat="45.37434" lon="6.61802">
        <ele>2498.1999511719</ele>
        <time>2013-03-01T10:37:40Z</time>
      </trkpt>
      <trkpt lat="45.37424" lon="6.61763">
        <ele>2519.1999511719</ele>
        <time>2013-03-01T10:37:40Z</time>
      </trkpt>
      <trkpt lat="45.37412" lon="6.61727">
        <ele>2534.1000976562</ele>
        <time>2013-03-01T10:37:40Z</time>
      </trkpt>
      <trkpt lat="45.37401" lon="6.6169">
        <ele>2560.6000976562</ele>
        <time>2013-03-01T10:37:40Z</time>
      </trkpt>
      <trkpt lat="45.37388" lon="6.61654">
        <ele>2565.8000488281</ele>
        <time>2013-03-01T10:37:40Z</time>
      </trkpt>
      <trkpt lat="45.37375" lon="6.61619">
        <ele>2578.6000976562</ele>
        <time>2013-03-01T10:37:40Z</time>
      </trkpt>
      <trkpt lat="45.37364" lon="6.61581">
        <ele>2597.8000488281</ele>
        <time>2013-03-01T10:37:40Z</time>
      </trkpt>
      <trkpt lat="45.37353" lon="6.61543">
        <ele>2615.1000976562</ele>
        <time>2013-03-01T10:37:40Z</time>
      </trkpt>
      <trkpt lat="45.37341" lon="6.61508">
        <ele>2632.5</ele>
        <time>2013-03-01T10:37:40Z</time>
      </trkpt>
      <trkpt lat="45.3733" lon="6.61471">
        <ele>2642</ele>
        <time>2013-03-01T10:37:40Z</time>
      </trkpt>
      <trkpt lat="45.3732" lon="6.61434">
        <ele>2654.5</ele>
        <time>2013-03-01T10:37:40Z</time>
      </trkpt>
      <trkpt lat="45.37308" lon="6.61397">
        <ele>2661.8000488281</ele>
        <time>2013-03-01T10:37:40Z</time>
      </trkpt>
      <trkpt lat="45.37299" lon="6.6136">
        <ele>2669.3999023438</ele>
        <time>2013-03-01T10:37:40Z</time>
      </trkpt>
      <trkpt lat="45.37288" lon="6.61323">
        <ele>2677.3999023438</ele>
        <time>2013-03-01T10:37:40Z</time>
      </trkpt>
      <trkpt lat="45.37277" lon="6.61286">
        <ele>2686</ele>
        <time>2013-03-01T10:37:40Z</time>
      </trkpt>
      <trkpt lat="45.37266" lon="6.61249">
        <ele>2691.5</ele>
        <time>2013-03-01T10:37:40Z</time>
      </trkpt>
      <trkpt lat="45.3725" lon="6.61211">
        <ele>2690.1999511719</ele>
        <time>2013-03-01T10:37:40Z</time>
      </trkpt>
      <trkpt lat="45.37228" lon="6.61188">
        <ele>2693.8000488281</ele>
        <time>2013-03-01T10:37:40Z</time>
      </trkpt>
      <trkpt lat="45.37203" lon="6.61171">
        <ele>2695.5</ele>
        <time>2013-03-01T10:37:40Z</time>
      </trkpt>
      <trkpt lat="45.37175" lon="6.61166">
        <ele>2695.8999023438</ele>
        <time>2013-03-01T10:37:40Z</time>
      </trkpt>
      <trkpt lat="45.37147" lon="6.61163">
        <ele>2697.3000488281</ele>
        <time>2013-03-01T10:37:40Z</time>
      </trkpt>
      <trkpt lat="45.3712" lon="6.61155">
        <ele>2701.6000976562</ele>
        <time>2013-03-01T10:37:40Z</time>
      </trkpt>
      <trkpt lat="45.37093" lon="6.61148">
        <ele>2698</ele>
        <time>2013-03-01T10:37:40Z</time>
      </trkpt>
      <trkpt lat="45.37065" lon="6.61156">
        <ele>2701.8000488281</ele>
        <time>2013-03-01T10:37:40Z</time>
      </trkpt>
      <trkpt lat="45.37035" lon="6.61142">
        <ele>2698.3999023438</ele>
        <time>2013-03-01T10:37:40Z</time>
      </trkpt>
      <trkpt lat="45.37005" lon="6.6113">
        <ele>2697</ele>
        <time>2013-03-01T10:37:40Z</time>
      </trkpt>
      <trkpt lat="45.36986" lon="6.61161">
        <ele>2688.1000976562</ele>
        <time>2013-03-01T10:37:40Z</time>
      </trkpt>
      <trkpt lat="45.3696" lon="6.61185">
        <ele>2683.8999023438</ele>
        <time>2013-03-01T10:37:40Z</time>
      </trkpt>
      <trkpt lat="45.36936" lon="6.61209">
        <ele>2680.1999511719</ele>
        <time>2013-03-01T10:37:40Z</time>
      </trkpt>
      <trkpt lat="45.3691" lon="6.61232">
        <ele>2674.5</ele>
        <time>2013-03-01T10:37:40Z</time>
      </trkpt>
      <trkpt lat="45.36892" lon="6.61264">
        <ele>2676.1000976562</ele>
        <time>2013-03-01T10:37:40Z</time>
      </trkpt>
      <trkpt lat="45.36876" lon="6.61298">
        <ele>2672.3000488281</ele>
        <time>2013-03-01T10:37:40Z</time>
      </trkpt>
      <trkpt lat="45.36859" lon="6.61334">
        <ele>2667.8000488281</ele>
        <time>2013-03-01T10:37:40Z</time>
      </trkpt>
      <trkpt lat="45.36836" lon="6.61372">
        <ele>2660.8000488281</ele>
        <time>2013-03-01T10:37:40Z</time>
      </trkpt>
      <trkpt lat="45.36832" lon="6.61416">
        <ele>2644.1000976562</ele>
        <time>2013-03-01T10:37:40Z</time>
      </trkpt>
      <trkpt lat="45.36846" lon="6.61452">
        <ele>2621</ele>
        <time>2013-03-01T10:37:40Z</time>
      </trkpt>
      <trkpt lat="45.36839" lon="6.61496">
        <ele>2617.1999511719</ele>
        <time>2013-03-01T10:37:40Z</time>
      </trkpt>
      <trkpt lat="45.36864" lon="6.61516">
        <ele>2596.6000976562</ele>
        <time>2013-03-01T10:37:40Z</time>
      </trkpt>
      <trkpt lat="45.36859" lon="6.61559">
        <ele>2586.1999511719</ele>
        <time>2013-03-01T10:37:40Z</time>
      </trkpt>
      <trkpt lat="45.36872" lon="6.61596">
        <ele>2582.6000976562</ele>
        <time>2013-03-01T10:37:40Z</time>
      </trkpt>
      <trkpt lat="45.36874" lon="6.61639">
        <ele>2567</ele>
        <time>2013-03-01T10:37:40Z</time>
      </trkpt>
      <trkpt lat="45.36886" lon="6.61681">
        <ele>2559.6999511719</ele>
        <time>2013-03-01T10:37:40Z</time>
      </trkpt>
      <trkpt lat="45.36898" lon="6.61723">
        <ele>2550</ele>
        <time>2013-03-01T10:37:40Z</time>
      </trkpt>
      <trkpt lat="45.36923" lon="6.61759">
        <ele>2538.8000488281</ele>
        <time>2013-03-01T10:37:40Z</time>
      </trkpt>
      <trkpt lat="45.36938" lon="6.61797">
        <ele>2522.3999023438</ele>
        <time>2013-03-01T10:37:40Z</time>
      </trkpt>
      <trkpt lat="45.36954" lon="6.61833">
        <ele>2508.3999023438</ele>
        <time>2013-03-01T10:37:40Z</time>
      </trkpt>
      <trkpt lat="45.36972" lon="6.61864">
        <ele>2501.1999511719</ele>
        <time>2013-03-01T10:37:40Z</time>
      </trkpt>
      <trkpt lat="45.36984" lon="6.619">
        <ele>2485.1999511719</ele>
        <time>2013-03-01T10:37:40Z</time>
      </trkpt>
      <trkpt lat="45.37003" lon="6.61932">
        <ele>2462.8000488281</ele>
        <time>2013-03-01T10:37:40Z</time>
      </trkpt>
      <trkpt lat="45.37031" lon="6.61936">
        <ele>2460.1999511719</ele>
        <time>2013-03-01T10:37:40Z</time>
      </trkpt>
      <trkpt lat="45.37029" lon="6.61981">
        <ele>2439</ele>
        <time>2013-03-01T10:37:40Z</time>
      </trkpt>
      <trkpt lat="45.37008" lon="6.62006">
        <ele>2429</ele>
        <time>2013-03-01T10:37:40Z</time>
      </trkpt>
      <trkpt lat="45.37012" lon="6.62053">
        <ele>2414.8000488281</ele>
        <time>2013-03-01T10:37:40Z</time>
      </trkpt>
      <trkpt lat="45.37012" lon="6.62098">
        <ele>2404.6000976562</ele>
        <time>2013-03-01T10:37:40Z</time>
      </trkpt>
      <trkpt lat="45.37017" lon="6.62144">
        <ele>2392.3999023438</ele>
        <time>2013-03-01T10:37:40Z</time>
      </trkpt>
      <trkpt lat="45.3703" lon="6.62181">
        <ele>2390.8000488281</ele>
        <time>2013-03-01T10:37:40Z</time>
      </trkpt>
      <trkpt lat="45.37058" lon="6.622">
        <ele>2380.3999023438</ele>
        <time>2013-03-01T10:37:40Z</time>
      </trkpt>
      <trkpt lat="45.37074" lon="6.62232">
        <ele>2373.6000976562</ele>
        <time>2013-03-01T10:37:40Z</time>
      </trkpt>
      <trkpt lat="45.37102" lon="6.62229">
        <ele>2374.8999023438</ele>
        <time>2013-03-01T10:37:40Z</time>
      </trkpt>
      <trkpt lat="45.3713" lon="6.62243">
        <ele>2351.6000976562</ele>
        <time>2013-03-01T10:37:40Z</time>
      </trkpt>
      <trkpt lat="45.37146" lon="6.62279">
        <ele>2337.1000976562</ele>
        <time>2013-03-01T10:37:40Z</time>
      </trkpt>
      <trkpt lat="45.37166" lon="6.62307">
        <ele>2322</ele>
        <time>2013-03-01T10:37:40Z</time>
      </trkpt>
      <trkpt lat="45.37182" lon="6.62348">
        <ele>2306.1000976562</ele>
        <time>2013-03-01T10:37:40Z</time>
      </trkpt>
      <trkpt lat="45.37213" lon="6.62361">
        <ele>2294.8999023438</ele>
        <time>2013-03-01T10:37:40Z</time>
      </trkpt>
      <trkpt lat="45.37238" lon="6.62389">
        <ele>2288.5</ele>
        <time>2013-03-01T10:37:40Z</time>
      </trkpt>
      <trkpt lat="45.37243" lon="6.6243">
        <ele>2284.3999023438</ele>
        <time>2013-03-01T10:37:40Z</time>
      </trkpt>
      <trkpt lat="45.37247" lon="6.62474">
        <ele>2276.3999023438</ele>
        <time>2013-03-01T10:37:40Z</time>
      </trkpt>
      <trkpt lat="45.3725" lon="6.62515">
        <ele>2273.5</ele>
        <time>2013-03-01T10:37:40Z</time>
      </trkpt>
      <trkpt lat="45.37273" lon="6.62552">
        <ele>2268.1999511719</ele>
        <time>2013-03-01T10:37:40Z</time>
      </trkpt>
      <trkpt lat="45.37302" lon="6.62555">
        <ele>2252.5</ele>
        <time>2013-03-01T10:37:40Z</time>
      </trkpt>
      <trkpt lat="45.37328" lon="6.62585">
        <ele>2241.3999023438</ele>
        <time>2013-03-01T10:37:40Z</time>
      </trkpt>
      <trkpt lat="45.37345" lon="6.62621">
        <ele>2234.3999023438</ele>
        <time>2013-03-01T10:37:40Z</time>
      </trkpt>
      <trkpt lat="45.37363" lon="6.62654">
        <ele>2233.1999511719</ele>
        <time>2013-03-01T10:37:40Z</time>
      </trkpt>
      <trkpt lat="45.37382" lon="6.62684">
        <ele>2227.6999511719</ele>
        <time>2013-03-01T10:37:40Z</time>
      </trkpt>
      <trkpt lat="45.37404" lon="6.6272">
        <ele>2223.5</ele>
        <time>2013-03-01T10:37:40Z</time>
      </trkpt>
      <trkpt lat="45.37428" lon="6.62754">
        <ele>2216.6999511719</ele>
        <time>2013-03-01T10:37:40Z</time>
      </trkpt>
      <trkpt lat="45.3745" lon="6.62794">
        <ele>2208.1000976562</ele>
        <time>2013-03-01T10:37:40Z</time>
      </trkpt>
      <trkpt lat="45.37471" lon="6.62832">
        <ele>2201.5</ele>
        <time>2013-03-01T10:37:40Z</time>
      </trkpt>
      <trkpt lat="45.3748" lon="6.62874">
        <ele>2194.6000976562</ele>
        <time>2013-03-01T10:37:40Z</time>
      </trkpt>
      <trkpt lat="45.37496" lon="6.62918">
        <ele>2189.6999511719</ele>
        <time>2013-03-01T10:37:40Z</time>
      </trkpt>
      <trkpt lat="45.37521" lon="6.62951">
        <ele>2185.3999023438</ele>
        <time>2013-03-01T10:37:40Z</time>
      </trkpt>
      <trkpt lat="45.37544" lon="6.62977">
        <ele>2178.5</ele>
        <time>2013-03-01T10:37:40Z</time>
      </trkpt>
      <trkpt lat="45.37574" lon="6.62996">
        <ele>2175.3999023438</ele>
        <time>2013-03-01T10:37:40Z</time>
      </trkpt>
      <trkpt lat="45.37607" lon="6.63014">
        <ele>2173.8000488281</ele>
        <time>2013-03-01T10:37:41Z</time>
      </trkpt>
      <trkpt lat="45.37638" lon="6.63035">
        <ele>2169.1999511719</ele>
        <time>2013-03-01T10:37:41Z</time>
      </trkpt>
      <trkpt lat="45.37671" lon="6.63057">
        <ele>2162.5</ele>
        <time>2013-03-01T10:37:41Z</time>
      </trkpt>
      <trkpt lat="45.37704" lon="6.63074">
        <ele>2159.3999023438</ele>
        <time>2013-03-01T10:37:41Z</time>
      </trkpt>
      <trkpt lat="45.37728" lon="6.63107">
        <ele>2149.8999023438</ele>
        <time>2013-03-01T10:37:41Z</time>
      </trkpt>
      <trkpt lat="45.37755" lon="6.63145">
        <ele>2142.8000488281</ele>
        <time>2013-03-01T10:37:41Z</time>
      </trkpt>
      <trkpt lat="45.37778" lon="6.63185">
        <ele>2137.1000976562</ele>
        <time>2013-03-01T10:37:41Z</time>
      </trkpt>
      <trkpt lat="45.37798" lon="6.63223">
        <ele>2131.6000976562</ele>
        <time>2013-03-01T10:37:41Z</time>
      </trkpt>
      <trkpt lat="45.37816" lon="6.63259">
        <ele>2123.3999023438</ele>
        <time>2013-03-01T10:37:41Z</time>
      </trkpt>
      <trkpt lat="45.37838" lon="6.63293">
        <ele>2119.6999511719</ele>
        <time>2013-03-01T10:37:41Z</time>
      </trkpt>
      <trkpt lat="45.3786" lon="6.63316">
        <ele>2124.3000488281</ele>
        <time>2013-03-01T10:37:41Z</time>
      </trkpt>
      <trkpt lat="45.37855" lon="6.63357">
        <ele>2112.6000976562</ele>
        <time>2013-03-01T10:37:41Z</time>
      </trkpt>
      <trkpt lat="45.37835" lon="6.63388">
        <ele>2115.6999511719</ele>
        <time>2013-03-01T10:37:41Z</time>
      </trkpt>
      <trkpt lat="45.37815" lon="6.6342">
        <ele>2116.6000976562</ele>
        <time>2013-03-01T10:37:41Z</time>
      </trkpt>
      <trkpt lat="45.37796" lon="6.6345">
        <ele>2119.6000976562</ele>
        <time>2013-03-01T10:37:41Z</time>
      </trkpt>
      <trkpt lat="45.37776" lon="6.63483">
        <ele>2127.6999511719</ele>
        <time>2013-03-01T10:37:41Z</time>
      </trkpt>
      <trkpt lat="45.37756" lon="6.63516">
        <ele>2133.8999023438</ele>
        <time>2013-03-01T10:37:41Z</time>
      </trkpt>
      <trkpt lat="45.37736" lon="6.63548">
        <ele>2138.3000488281</ele>
        <time>2013-03-01T10:37:41Z</time>
      </trkpt>
      <trkpt lat="45.37716" lon="6.63581">
        <ele>2142.5</ele>
        <time>2013-03-01T10:37:41Z</time>
      </trkpt>
      <trkpt lat="45.37696" lon="6.63614">
        <ele>2146.6999511719</ele>
        <time>2013-03-01T10:37:41Z</time>
      </trkpt>
      <trkpt lat="45.37677" lon="6.63646">
        <ele>2157.8999023438</ele>
        <time>2013-03-01T10:37:41Z</time>
      </trkpt>
      <trkpt lat="45.37658" lon="6.63676">
        <ele>2172.3999023438</ele>
        <time>2013-03-01T10:37:41Z</time>
      </trkpt>
      <trkpt lat="45.37639" lon="6.63708">
        <ele>2191.8000488281</ele>
        <time>2013-03-01T10:37:41Z</time>
      </trkpt>
      <trkpt lat="45.37622" lon="6.63739">
        <ele>2201.6999511719</ele>
        <time>2013-03-01T10:37:41Z</time>
      </trkpt>
      <trkpt lat="45.37603" lon="6.63774">
        <ele>2211.3000488281</ele>
        <time>2013-03-01T10:37:41Z</time>
      </trkpt>
      <trkpt lat="45.37583" lon="6.63806">
        <ele>2224.5</ele>
        <time>2013-03-01T10:37:41Z</time>
      </trkpt>
      <trkpt lat="45.37563" lon="6.63838">
        <ele>2242.6000976562</ele>
        <time>2013-03-01T10:37:41Z</time>
      </trkpt>
      <trkpt lat="45.37545" lon="6.6387">
        <ele>2265.3000488281</ele>
        <time>2013-03-01T10:37:41Z</time>
      </trkpt>
      <trkpt lat="45.37526" lon="6.639">
        <ele>2277</ele>
        <time>2013-03-01T10:37:41Z</time>
      </trkpt>
      <trkpt lat="45.37507" lon="6.6393">
        <ele>2292.1000976562</ele>
        <time>2013-03-01T10:37:41Z</time>
      </trkpt>
      <trkpt lat="45.37488" lon="6.6396">
        <ele>2306.8000488281</ele>
        <time>2013-03-01T10:37:41Z</time>
      </trkpt>
      <trkpt lat="45.3747" lon="6.63991">
        <ele>2326.8999023438</ele>
        <time>2013-03-01T10:37:41Z</time>
      </trkpt>
      <trkpt lat="45.3745" lon="6.64023">
        <ele>2337.6000976562</ele>
        <time>2013-03-01T10:37:41Z</time>
      </trkpt>
      <trkpt lat="45.37431" lon="6.64054">
        <ele>2351.8999023438</ele>
        <time>2013-03-01T10:37:41Z</time>
      </trkpt>
      <trkpt lat="45.37412" lon="6.64085">
        <ele>2364</ele>
        <time>2013-03-01T10:37:41Z</time>
      </trkpt>
      <trkpt lat="45.37393" lon="6.64117">
        <ele>2377.3999023438</ele>
        <time>2013-03-01T10:37:41Z</time>
      </trkpt>
      <trkpt lat="45.37374" lon="6.64148">
        <ele>2394.8999023438</ele>
        <time>2013-03-01T10:37:41Z</time>
      </trkpt>
      <trkpt lat="45.37356" lon="6.64177">
        <ele>2413.3000488281</ele>
        <time>2013-03-01T10:37:41Z</time>
      </trkpt>
      <trkpt lat="45.37336" lon="6.64209">
        <ele>2427.8000488281</ele>
        <time>2013-03-01T10:37:41Z</time>
      </trkpt>
      <trkpt lat="45.37317" lon="6.6424">
        <ele>2444.6000976562</ele>
        <time>2013-03-01T10:37:41Z</time>
      </trkpt>
      <trkpt lat="45.37297" lon="6.64272">
        <ele>2462.6000976562</ele>
        <time>2013-03-01T10:37:41Z</time>
      </trkpt>
      <trkpt lat="45.37278" lon="6.64304">
        <ele>2483.8999023438</ele>
        <time>2013-03-01T10:37:41Z</time>
      </trkpt>
      <trkpt lat="45.37258" lon="6.64336">
        <ele>2506.3000488281</ele>
        <time>2013-03-01T10:37:41Z</time>
      </trkpt>
      <trkpt lat="45.37239" lon="6.64367">
        <ele>2516.5</ele>
        <time>2013-03-01T10:37:41Z</time>
      </trkpt>
      <trkpt lat="45.3722" lon="6.64398">
        <ele>2520.8000488281</ele>
        <time>2013-03-01T10:37:41Z</time>
      </trkpt>
      <trkpt lat="45.37201" lon="6.64428">
        <ele>2526.3999023438</ele>
        <time>2013-03-01T10:37:41Z</time>
      </trkpt>
      <trkpt lat="45.37182" lon="6.64462">
        <ele>2533.1999511719</ele>
        <time>2013-03-01T10:37:41Z</time>
      </trkpt>
      <trkpt lat="45.37165" lon="6.64494">
        <ele>2539.1999511719</ele>
        <time>2013-03-01T10:37:41Z</time>
      </trkpt>
      <trkpt lat="45.37146" lon="6.64523">
        <ele>2542.3000488281</ele>
        <time>2013-03-01T10:37:41Z</time>
      </trkpt>
      <trkpt lat="45.37136" lon="6.64568">
        <ele>2534.6999511719</ele>
        <time>2013-03-01T10:37:41Z</time>
      </trkpt>
      <trkpt lat="45.37123" lon="6.64619">
        <ele>2524.6000976562</ele>
        <time>2013-03-01T10:37:41Z</time>
      </trkpt>
      <trkpt lat="45.37112" lon="6.64663">
        <ele>2517.1999511719</ele>
        <time>2013-03-01T10:37:41Z</time>
      </trkpt>
      <trkpt lat="45.37101" lon="6.64707">
        <ele>2508.6000976562</ele>
        <time>2013-03-01T10:37:41Z</time>
      </trkpt>
      <trkpt lat="45.37095" lon="6.6475">
        <ele>2502.8000488281</ele>
        <time>2013-03-01T10:37:41Z</time>
      </trkpt>
      <trkpt lat="45.37093" lon="6.64798">
        <ele>2494.6000976562</ele>
        <time>2013-03-01T10:37:41Z</time>
      </trkpt>
      <trkpt lat="45.37087" lon="6.64839">
        <ele>2483.6000976562</ele>
        <time>2013-03-01T10:37:41Z</time>
      </trkpt>
      <trkpt lat="45.37097" lon="6.64892">
        <ele>2467.3999023438</ele>
        <time>2013-03-01T10:37:41Z</time>
      </trkpt>
      <trkpt lat="45.37109" lon="6.64945">
        <ele>2461.8000488281</ele>
        <time>2013-03-01T10:37:41Z</time>
      </trkpt>
      <trkpt lat="45.37121" lon="6.64989">
        <ele>2452.1000976562</ele>
        <time>2013-03-01T10:37:41Z</time>
      </trkpt>
      <trkpt lat="45.37137" lon="6.65035">
        <ele>2434.8000488281</ele>
        <time>2013-03-01T10:37:41Z</time>
      </trkpt>
      <trkpt lat="45.37156" lon="6.65064">
        <ele>2427</ele>
        <time>2013-03-01T10:37:41Z</time>
      </trkpt>
      <trkpt lat="45.37182" lon="6.6509">
        <ele>2423.3999023438</ele>
        <time>2013-03-01T10:37:41Z</time>
      </trkpt>
      <trkpt lat="45.37208" lon="6.6512">
        <ele>2419.8000488281</ele>
        <time>2013-03-01T10:37:41Z</time>
      </trkpt>
      <trkpt lat="45.37229" lon="6.6515">
        <ele>2419.6999511719</ele>
        <time>2013-03-01T10:37:41Z</time>
      </trkpt>
      <trkpt lat="45.37249" lon="6.65185">
        <ele>2419.6000976562</ele>
        <time>2013-03-01T10:37:41Z</time>
      </trkpt>
      <trkpt lat="45.37262" lon="6.65222">
        <ele>2418.3999023438</ele>
        <time>2013-03-01T10:37:41Z</time>
      </trkpt>
      <trkpt lat="45.3729" lon="6.65214">
        <ele>2408.3999023438</ele>
        <time>2013-03-01T10:37:41Z</time>
      </trkpt>
      <trkpt lat="45.37326" lon="6.65224">
        <ele>2399.6000976562</ele>
        <time>2013-03-01T10:37:41Z</time>
      </trkpt>
      <trkpt lat="45.37357" lon="6.65241">
        <ele>2395.3999023438</ele>
        <time>2013-03-01T10:37:41Z</time>
      </trkpt>
      <trkpt lat="45.37386" lon="6.65232">
        <ele>2391.6000976562</ele>
        <time>2013-03-01T10:37:41Z</time>
      </trkpt>
      <trkpt lat="45.37421" lon="6.65229">
        <ele>2386.1000976562</ele>
        <time>2013-03-01T10:37:41Z</time>
      </trkpt>
      <trkpt lat="45.37449" lon="6.65238">
        <ele>2387.1000976562</ele>
        <time>2013-03-01T10:37:41Z</time>
      </trkpt>
      <trkpt lat="45.3748" lon="6.65252">
        <ele>2380.1000976562</ele>
        <time>2013-03-01T10:37:41Z</time>
      </trkpt>
      <trkpt lat="45.37505" lon="6.6527">
        <ele>2377.5</ele>
        <time>2013-03-01T10:37:41Z</time>
      </trkpt>
      <trkpt lat="45.37537" lon="6.6528">
        <ele>2369.3000488281</ele>
        <time>2013-03-01T10:37:41Z</time>
      </trkpt>
      <trkpt lat="45.37567" lon="6.653">
        <ele>2364.8000488281</ele>
        <time>2013-03-01T10:37:41Z</time>
      </trkpt>
      <trkpt lat="45.37595" lon="6.6532">
        <ele>2361.5</ele>
        <time>2013-03-01T10:37:41Z</time>
      </trkpt>
      <trkpt lat="45.37622" lon="6.65336">
        <ele>2360.6000976562</ele>
        <time>2013-03-01T10:37:41Z</time>
      </trkpt>
      <trkpt lat="45.37647" lon="6.65357">
        <ele>2359.8999023438</ele>
        <time>2013-03-01T10:37:41Z</time>
      </trkpt>
      <trkpt lat="45.37672" lon="6.65387">
        <ele>2352.6999511719</ele>
        <time>2013-03-01T10:37:41Z</time>
      </trkpt>
      <trkpt lat="45.377" lon="6.65401">
        <ele>2343.1999511719</ele>
        <time>2013-03-01T10:37:41Z</time>
      </trkpt>
      <trkpt lat="45.37732" lon="6.65402">
        <ele>2338.3999023438</ele>
        <time>2013-03-01T10:37:41Z</time>
      </trkpt>
      <trkpt lat="45.37763" lon="6.6541">
        <ele>2332.1999511719</ele>
        <time>2013-03-01T10:37:41Z</time>
      </trkpt>
      <trkpt lat="45.37794" lon="6.65421">
        <ele>2326</ele>
        <time>2013-03-01T10:37:41Z</time>
      </trkpt>
      <trkpt lat="45.37823" lon="6.6542">
        <ele>2319.1000976562</ele>
        <time>2013-03-01T10:37:41Z</time>
      </trkpt>
      <trkpt lat="45.37851" lon="6.65404">
        <ele>2315.1000976562</ele>
        <time>2013-03-01T10:37:41Z</time>
      </trkpt>
      <trkpt lat="45.37882" lon="6.65395">
        <ele>2310.1999511719</ele>
        <time>2013-03-01T10:37:41Z</time>
      </trkpt>
      <trkpt lat="45.3791" lon="6.65398">
        <ele>2302.6000976562</ele>
        <time>2013-03-01T10:37:41Z</time>
      </trkpt>
      <trkpt lat="45.37932" lon="6.65371">
        <ele>2291.6999511719</ele>
        <time>2013-03-01T10:37:41Z</time>
      </trkpt>
      <trkpt lat="45.37967" lon="6.65374">
        <ele>2285.1999511719</ele>
        <time>2013-03-01T10:37:41Z</time>
      </trkpt>
      <trkpt lat="45.37992" lon="6.65389">
        <ele>2280.1000976562</ele>
        <time>2013-03-01T10:37:41Z</time>
      </trkpt>
      <trkpt lat="45.38027" lon="6.65402">
        <ele>2270.6000976562</ele>
        <time>2013-03-01T10:37:41Z</time>
      </trkpt>
      <trkpt lat="45.38064" lon="6.65414">
        <ele>2262.3999023438</ele>
        <time>2013-03-01T10:37:41Z</time>
      </trkpt>
      <trkpt lat="45.38103" lon="6.6543">
        <ele>2256.6999511719</ele>
        <time>2013-03-01T10:37:41Z</time>
      </trkpt>
      <trkpt lat="45.38131" lon="6.65443">
        <ele>2250</ele>
        <time>2013-03-01T10:37:41Z</time>
      </trkpt>
      <trkpt lat="45.38158" lon="6.65458">
        <ele>2241.3000488281</ele>
        <time>2013-03-01T10:37:41Z</time>
      </trkpt>
      <trkpt lat="45.38189" lon="6.65478">
        <ele>2239.6999511719</ele>
        <time>2013-03-01T10:37:41Z</time>
      </trkpt>
      <trkpt lat="45.38217" lon="6.65493">
        <ele>2235.6999511719</ele>
        <time>2013-03-01T10:37:41Z</time>
      </trkpt>
      <trkpt lat="45.38245" lon="6.65507">
        <ele>2228.5</ele>
        <time>2013-03-01T10:37:41Z</time>
      </trkpt>
      <trkpt lat="45.38278" lon="6.65517">
        <ele>2224.8000488281</ele>
        <time>2013-03-01T10:37:41Z</time>
      </trkpt>
      <trkpt lat="45.38305" lon="6.65509">
        <ele>2223.8000488281</ele>
        <time>2013-03-01T10:37:41Z</time>
      </trkpt>
      <trkpt lat="45.3834" lon="6.65496">
        <ele>2221.6000976562</ele>
        <time>2013-03-01T10:37:41Z</time>
      </trkpt>
      <trkpt lat="45.38367" lon="6.65483">
        <ele>2218.1999511719</ele>
        <time>2013-03-01T10:37:41Z</time>
      </trkpt>
      <trkpt lat="45.38396" lon="6.65473">
        <ele>2214.1000976562</ele>
        <time>2013-03-01T10:37:41Z</time>
      </trkpt>
      <trkpt lat="45.38426" lon="6.65464">
        <ele>2211</ele>
        <time>2013-03-01T10:37:41Z</time>
      </trkpt>
      <trkpt lat="45.3846" lon="6.65457">
        <ele>2208.6999511719</ele>
        <time>2013-03-01T10:37:41Z</time>
      </trkpt>
      <trkpt lat="45.38492" lon="6.65457">
        <ele>2206.1000976562</ele>
        <time>2013-03-01T10:37:41Z</time>
      </trkpt>
      <trkpt lat="45.38522" lon="6.65463">
        <ele>2203.1999511719</ele>
        <time>2013-03-01T10:37:42Z</time>
      </trkpt>
      <trkpt lat="45.38555" lon="6.65472">
        <ele>2199.6000976562</ele>
        <time>2013-03-01T10:37:42Z</time>
      </trkpt>
      <trkpt lat="45.38583" lon="6.65486">
        <ele>2198.6000976562</ele>
        <time>2013-03-01T10:37:42Z</time>
      </trkpt>
      <trkpt lat="45.38612" lon="6.65486">
        <ele>2185.8999023438</ele>
        <time>2013-03-01T10:37:42Z</time>
      </trkpt>
      <trkpt lat="45.3864" lon="6.65496">
        <ele>2183.8000488281</ele>
        <time>2013-03-01T10:37:42Z</time>
      </trkpt>
      <trkpt lat="45.38666" lon="6.65513">
        <ele>2182.6999511719</ele>
        <time>2013-03-01T10:37:42Z</time>
      </trkpt>
      <trkpt lat="45.38698" lon="6.65517">
        <ele>2179.3999023438</ele>
        <time>2013-03-01T10:37:42Z</time>
      </trkpt>
      <trkpt lat="45.38725" lon="6.65535">
        <ele>2177.1000976562</ele>
        <time>2013-03-01T10:37:42Z</time>
      </trkpt>
      <trkpt lat="45.38749" lon="6.65562">
        <ele>2174.8000488281</ele>
        <time>2013-03-01T10:37:42Z</time>
      </trkpt>
      <trkpt lat="45.38778" lon="6.65591">
        <ele>2166.3999023438</ele>
        <time>2013-03-01T10:37:42Z</time>
      </trkpt>
      <trkpt lat="45.38811" lon="6.65611">
        <ele>2162.8000488281</ele>
        <time>2013-03-01T10:37:42Z</time>
      </trkpt>
      <trkpt lat="45.38851" lon="6.65619">
        <ele>2159.5</ele>
        <time>2013-03-01T10:37:42Z</time>
      </trkpt>
      <trkpt lat="45.38883" lon="6.65595">
        <ele>2155.3000488281</ele>
        <time>2013-03-01T10:37:42Z</time>
      </trkpt>
      <trkpt lat="45.3892" lon="6.6557">
        <ele>2147.6999511719</ele>
        <time>2013-03-01T10:37:42Z</time>
      </trkpt>
      <trkpt lat="45.38948" lon="6.65556">
        <ele>2142.1999511719</ele>
        <time>2013-03-01T10:37:42Z</time>
      </trkpt>
      <trkpt lat="45.38975" lon="6.65546">
        <ele>2139.5</ele>
        <time>2013-03-01T10:37:42Z</time>
      </trkpt>
      <trkpt lat="45.39012" lon="6.65538">
        <ele>2134.6999511719</ele>
        <time>2013-03-01T10:37:42Z</time>
      </trkpt>
      <trkpt lat="45.39045" lon="6.65536">
        <ele>2131</ele>
        <time>2013-03-01T10:37:42Z</time>
      </trkpt>
      <trkpt lat="45.39072" lon="6.65555">
        <ele>2125.6999511719</ele>
        <time>2013-03-01T10:37:42Z</time>
      </trkpt>
      <trkpt lat="45.39098" lon="6.65578">
        <ele>2120.8000488281</ele>
        <time>2013-03-01T10:37:42Z</time>
      </trkpt>
      <trkpt lat="45.39128" lon="6.65599">
        <ele>2117.8999023438</ele>
        <time>2013-03-01T10:37:42Z</time>
      </trkpt>
      <trkpt lat="45.39159" lon="6.65628">
        <ele>2111.8999023438</ele>
        <time>2013-03-01T10:37:42Z</time>
      </trkpt>
      <trkpt lat="45.39187" lon="6.65649">
        <ele>2105.8000488281</ele>
        <time>2013-03-01T10:37:42Z</time>
      </trkpt>
      <trkpt lat="45.39212" lon="6.65672">
        <ele>2100.8000488281</ele>
        <time>2013-03-01T10:37:42Z</time>
      </trkpt>
      <trkpt lat="45.39236" lon="6.65693">
        <ele>2095.6000976562</ele>
        <time>2013-03-01T10:37:42Z</time>
      </trkpt>
      <trkpt lat="45.39258" lon="6.65725">
        <ele>2091.1999511719</ele>
        <time>2013-03-01T10:37:42Z</time>
      </trkpt>
      <trkpt lat="45.39282" lon="6.65751">
        <ele>2080.5</ele>
        <time>2013-03-01T10:37:42Z</time>
      </trkpt>
      <trkpt lat="45.39301" lon="6.6578">
        <ele>2071.8000488281</ele>
        <time>2013-03-01T10:37:42Z</time>
      </trkpt>
      <trkpt lat="45.39326" lon="6.65809">
        <ele>2065.8000488281</ele>
        <time>2013-03-01T10:37:42Z</time>
      </trkpt>
      <trkpt lat="45.39353" lon="6.65836">
        <ele>2064</ele>
        <time>2013-03-01T10:37:42Z</time>
      </trkpt>
      <trkpt lat="45.39377" lon="6.65856">
        <ele>2062.3999023438</ele>
        <time>2013-03-01T10:37:42Z</time>
      </trkpt>
      <trkpt lat="45.39401" lon="6.65877">
        <ele>2055.6000976562</ele>
        <time>2013-03-01T10:37:42Z</time>
      </trkpt>
      <trkpt lat="45.39428" lon="6.65907">
        <ele>2050.8999023438</ele>
        <time>2013-03-01T10:37:42Z</time>
      </trkpt>
      <trkpt lat="45.39441" lon="6.6595">
        <ele>2049.1000976562</ele>
        <time>2013-03-01T10:37:42Z</time>
      </trkpt>
      <trkpt lat="45.39472" lon="6.65966">
        <ele>2042.6000976562</ele>
        <time>2013-03-01T10:37:42Z</time>
      </trkpt>
      <trkpt lat="45.39506" lon="6.65989">
        <ele>2037.3000488281</ele>
        <time>2013-03-01T10:37:42Z</time>
      </trkpt>
      <trkpt lat="45.3952" lon="6.6603">
        <ele>2028.1000976562</ele>
        <time>2013-03-01T10:37:42Z</time>
      </trkpt>
      <trkpt lat="45.39538" lon="6.66076">
        <ele>2018.3999023438</ele>
        <time>2013-03-01T10:37:42Z</time>
      </trkpt>
      <trkpt lat="45.39538" lon="6.66131">
        <ele>2000.6999511719</ele>
        <time>2013-03-01T10:37:42Z</time>
      </trkpt>
      <trkpt lat="45.39542" lon="6.6619">
        <ele>1996.1999511719</ele>
        <time>2013-03-01T10:37:42Z</time>
      </trkpt>
      <trkpt lat="45.39564" lon="6.66239">
        <ele>1975.0999755859</ele>
        <time>2013-03-01T10:37:42Z</time>
      </trkpt>
      <trkpt lat="45.39588" lon="6.66282">
        <ele>1968.5</ele>
        <time>2013-03-01T10:37:42Z</time>
      </trkpt>
      <trkpt lat="45.39628" lon="6.66295">
        <ele>1955.0999755859</ele>
        <time>2013-03-01T10:37:42Z</time>
      </trkpt>
      <trkpt lat="45.39645" lon="6.66329">
        <ele>1947.6999511719</ele>
        <time>2013-03-01T10:37:42Z</time>
      </trkpt>
      <trkpt lat="45.39664" lon="6.6636">
        <ele>1935.8000488281</ele>
        <time>2013-03-01T10:37:42Z</time>
      </trkpt>
      <trkpt lat="45.39688" lon="6.66382">
        <ele>1920.5</ele>
        <time>2013-03-01T10:37:42Z</time>
      </trkpt>
      <trkpt lat="45.39717" lon="6.66402">
        <ele>1911.0999755859</ele>
        <time>2013-03-01T10:37:42Z</time>
      </trkpt>
      <trkpt lat="45.39744" lon="6.66424">
        <ele>1895.8000488281</ele>
        <time>2013-03-01T10:37:42Z</time>
      </trkpt>
      <trkpt lat="45.39772" lon="6.66458">
        <ele>1882.0999755859</ele>
        <time>2013-03-01T10:37:42Z</time>
      </trkpt>
      <trkpt lat="45.39799" lon="6.66492">
        <ele>1871.1999511719</ele>
        <time>2013-03-01T10:37:42Z</time>
      </trkpt>
      <trkpt lat="45.39828" lon="6.665">
        <ele>1860.9000244141</ele>
        <time>2013-03-01T10:37:42Z</time>
      </trkpt>
      <trkpt lat="45.39849" lon="6.6653">
        <ele>1853.3000488281</ele>
        <time>2013-03-01T10:37:42Z</time>
      </trkpt>
      <trkpt lat="45.39875" lon="6.66548">
        <ele>1851.6999511719</ele>
        <time>2013-03-01T10:37:42Z</time>
      </trkpt>
      <trkpt lat="45.39909" lon="6.66561">
        <ele>1836.9000244141</ele>
        <time>2013-03-01T10:37:42Z</time>
      </trkpt>
      <trkpt lat="45.39937" lon="6.66578">
        <ele>1832.9000244141</ele>
        <time>2013-03-01T10:37:42Z</time>
      </trkpt>
      <trkpt lat="45.39963" lon="6.66592">
        <ele>1826.3000488281</ele>
        <time>2013-03-01T10:37:42Z</time>
      </trkpt>
      <trkpt lat="45.39997" lon="6.66602">
        <ele>1815.5</ele>
        <time>2013-03-01T10:37:42Z</time>
      </trkpt>
      <trkpt lat="45.40024" lon="6.66611">
        <ele>1810.9000244141</ele>
        <time>2013-03-01T10:37:42Z</time>
      </trkpt>
      <trkpt lat="45.40023" lon="6.6665">
        <ele>1799.4000244141</ele>
        <time>2013-03-01T10:37:42Z</time>
      </trkpt>
      <trkpt lat="45.39997" lon="6.66666">
        <ele>1805.8000488281</ele>
        <time>2013-03-01T10:37:42Z</time>
      </trkpt>
      <trkpt lat="45.3997" lon="6.66658">
        <ele>1814</ele>
        <time>2013-03-01T10:37:42Z</time>
      </trkpt>
      <trkpt lat="45.39941" lon="6.6665">
        <ele>1822.0999755859</ele>
        <time>2013-03-01T10:37:42Z</time>
      </trkpt>
      <trkpt lat="45.3991" lon="6.66643">
        <ele>1825.0999755859</ele>
        <time>2013-03-01T10:37:42Z</time>
      </trkpt>
      <trkpt lat="45.39882" lon="6.66632">
        <ele>1829.5</ele>
        <time>2013-03-01T10:37:42Z</time>
      </trkpt>
      <trkpt lat="45.39854" lon="6.66621">
        <ele>1833</ele>
        <time>2013-03-01T10:37:42Z</time>
      </trkpt>
      <trkpt lat="45.39826" lon="6.66611">
        <ele>1843.0999755859</ele>
        <time>2013-03-01T10:37:42Z</time>
      </trkpt>
      <trkpt lat="45.39799" lon="6.66601">
        <ele>1848.4000244141</ele>
        <time>2013-03-01T10:37:42Z</time>
      </trkpt>
      <trkpt lat="45.39772" lon="6.66593">
        <ele>1852</ele>
        <time>2013-03-01T10:37:42Z</time>
      </trkpt>
      <trkpt lat="45.39743" lon="6.66582">
        <ele>1859.0999755859</ele>
        <time>2013-03-01T10:37:42Z</time>
      </trkpt>
      <trkpt lat="45.39713" lon="6.6657">
        <ele>1871.9000244141</ele>
        <time>2013-03-01T10:37:42Z</time>
      </trkpt>
      <trkpt lat="45.39684" lon="6.66559">
        <ele>1885.0999755859</ele>
        <time>2013-03-01T10:37:42Z</time>
      </trkpt>
      <trkpt lat="45.39655" lon="6.66553">
        <ele>1895.1999511719</ele>
        <time>2013-03-01T10:37:42Z</time>
      </trkpt>
      <trkpt lat="45.39627" lon="6.66544">
        <ele>1911.8000488281</ele>
        <time>2013-03-01T10:37:42Z</time>
      </trkpt>
      <trkpt lat="45.396" lon="6.66531">
        <ele>1920.3000488281</ele>
        <time>2013-03-01T10:37:42Z</time>
      </trkpt>
      <trkpt lat="45.3957" lon="6.66517">
        <ele>1931.1999511719</ele>
        <time>2013-03-01T10:37:42Z</time>
      </trkpt>
      <trkpt lat="45.39542" lon="6.66508">
        <ele>1945.6999511719</ele>
        <time>2013-03-01T10:37:42Z</time>
      </trkpt>
      <trkpt lat="45.39514" lon="6.66499">
        <ele>1953.6999511719</ele>
        <time>2013-03-01T10:37:42Z</time>
      </trkpt>
      <trkpt lat="45.39487" lon="6.66489">
        <ele>1962.3000488281</ele>
        <time>2013-03-01T10:37:42Z</time>
      </trkpt>
      <trkpt lat="45.39459" lon="6.66482">
        <ele>1970</ele>
        <time>2013-03-01T10:37:42Z</time>
      </trkpt>
      <trkpt lat="45.39429" lon="6.66472">
        <ele>1981.9000244141</ele>
        <time>2013-03-01T10:37:42Z</time>
      </trkpt>
      <trkpt lat="45.394" lon="6.6646">
        <ele>1988.3000488281</ele>
        <time>2013-03-01T10:37:42Z</time>
      </trkpt>
      <trkpt lat="45.39372" lon="6.66449">
        <ele>1994.0999755859</ele>
        <time>2013-03-01T10:37:42Z</time>
      </trkpt>
      <trkpt lat="45.39344" lon="6.66438">
        <ele>2000.8000488281</ele>
        <time>2013-03-01T10:37:42Z</time>
      </trkpt>
      <trkpt lat="45.39317" lon="6.66427">
        <ele>2004.8000488281</ele>
        <time>2013-03-01T10:37:42Z</time>
      </trkpt>
      <trkpt lat="45.3929" lon="6.66417">
        <ele>2012.3999023438</ele>
        <time>2013-03-01T10:37:42Z</time>
      </trkpt>
      <trkpt lat="45.39259" lon="6.66408">
        <ele>2019.1999511719</ele>
        <time>2013-03-01T10:37:42Z</time>
      </trkpt>
      <trkpt lat="45.39227" lon="6.66396">
        <ele>2022.8000488281</ele>
        <time>2013-03-01T10:37:42Z</time>
      </trkpt>
      <trkpt lat="45.39196" lon="6.66385">
        <ele>2034.5</ele>
        <time>2013-03-01T10:37:42Z</time>
      </trkpt>
      <trkpt lat="45.39169" lon="6.66375">
        <ele>2046.1000976562</ele>
        <time>2013-03-01T10:37:42Z</time>
      </trkpt>
      <trkpt lat="45.3914" lon="6.66367">
        <ele>2058.8999023438</ele>
        <time>2013-03-01T10:37:42Z</time>
      </trkpt>
      <trkpt lat="45.39111" lon="6.66357">
        <ele>2067.1000976562</ele>
        <time>2013-03-01T10:37:42Z</time>
      </trkpt>
      <trkpt lat="45.39084" lon="6.66343">
        <ele>2093</ele>
        <time>2013-03-01T10:37:42Z</time>
      </trkpt>
      <trkpt lat="45.39055" lon="6.66331">
        <ele>2116</ele>
        <time>2013-03-01T10:37:42Z</time>
      </trkpt>
      <trkpt lat="45.39028" lon="6.6632">
        <ele>2134.5</ele>
        <time>2013-03-01T10:37:42Z</time>
      </trkpt>
      <trkpt lat="45.39" lon="6.6631">
        <ele>2153.5</ele>
        <time>2013-03-01T10:37:42Z</time>
      </trkpt>
      <trkpt lat="45.38971" lon="6.66301">
        <ele>2170.8000488281</ele>
        <time>2013-03-01T10:37:42Z</time>
      </trkpt>
      <trkpt lat="45.38939" lon="6.66295">
        <ele>2189.1000976562</ele>
        <time>2013-03-01T10:37:42Z</time>
      </trkpt>
      <trkpt lat="45.38912" lon="6.66285">
        <ele>2199.6000976562</ele>
        <time>2013-03-01T10:37:42Z</time>
      </trkpt>
      <trkpt lat="45.38882" lon="6.66276">
        <ele>2210.6999511719</ele>
        <time>2013-03-01T10:37:42Z</time>
      </trkpt>
      <trkpt lat="45.38855" lon="6.66267">
        <ele>2215.8999023438</ele>
        <time>2013-03-01T10:37:42Z</time>
      </trkpt>
      <trkpt lat="45.38828" lon="6.66257">
        <ele>2220.3000488281</ele>
        <time>2013-03-01T10:37:42Z</time>
      </trkpt>
      <trkpt lat="45.38801" lon="6.66246">
        <ele>2223.3000488281</ele>
        <time>2013-03-01T10:37:42Z</time>
      </trkpt>
      <trkpt lat="45.38772" lon="6.66237">
        <ele>2226.5</ele>
        <time>2013-03-01T10:37:42Z</time>
      </trkpt>
      <trkpt lat="45.38745" lon="6.66227">
        <ele>2229.1000976562</ele>
        <time>2013-03-01T10:37:42Z</time>
      </trkpt>
      <trkpt lat="45.38717" lon="6.66217">
        <ele>2233.1999511719</ele>
        <time>2013-03-01T10:37:42Z</time>
      </trkpt>
      <trkpt lat="45.38689" lon="6.66208">
        <ele>2238.8000488281</ele>
        <time>2013-03-01T10:37:42Z</time>
      </trkpt>
      <trkpt lat="45.38659" lon="6.66197">
        <ele>2240.8999023438</ele>
        <time>2013-03-01T10:37:42Z</time>
      </trkpt>
      <trkpt lat="45.38633" lon="6.66185">
        <ele>2243.1999511719</ele>
        <time>2013-03-01T10:37:42Z</time>
      </trkpt>
      <trkpt lat="45.38605" lon="6.66174">
        <ele>2244.6000976562</ele>
        <time>2013-03-01T10:37:42Z</time>
      </trkpt>
      <trkpt lat="45.38578" lon="6.66163">
        <ele>2250.3000488281</ele>
        <time>2013-03-01T10:37:43Z</time>
      </trkpt>
      <trkpt lat="45.38563" lon="6.66206">
        <ele>2244.3000488281</ele>
        <time>2013-03-01T10:37:43Z</time>
      </trkpt>
      <trkpt lat="45.38573" lon="6.6625">
        <ele>2240.1000976562</ele>
        <time>2013-03-01T10:37:43Z</time>
      </trkpt>
      <trkpt lat="45.38587" lon="6.66286">
        <ele>2237.5</ele>
        <time>2013-03-01T10:37:43Z</time>
      </trkpt>
      <trkpt lat="45.38612" lon="6.66313">
        <ele>2232.6000976562</ele>
        <time>2013-03-01T10:37:43Z</time>
      </trkpt>
      <trkpt lat="45.38637" lon="6.66333">
        <ele>2218.8000488281</ele>
        <time>2013-03-01T10:37:43Z</time>
      </trkpt>
      <trkpt lat="45.38658" lon="6.66359">
        <ele>2210.6000976562</ele>
        <time>2013-03-01T10:37:43Z</time>
      </trkpt>
      <trkpt lat="45.38692" lon="6.66369">
        <ele>2193.8000488281</ele>
        <time>2013-03-01T10:37:43Z</time>
      </trkpt>
      <trkpt lat="45.38707" lon="6.66403">
        <ele>2185.3999023438</ele>
        <time>2013-03-01T10:37:43Z</time>
      </trkpt>
      <trkpt lat="45.38732" lon="6.66431">
        <ele>2176.3999023438</ele>
        <time>2013-03-01T10:37:43Z</time>
      </trkpt>
      <trkpt lat="45.38742" lon="6.66471">
        <ele>2169.3999023438</ele>
        <time>2013-03-01T10:37:43Z</time>
      </trkpt>
      <trkpt lat="45.38767" lon="6.665">
        <ele>2162.8000488281</ele>
        <time>2013-03-01T10:37:43Z</time>
      </trkpt>
      <trkpt lat="45.38794" lon="6.66523">
        <ele>2156.8999023438</ele>
        <time>2013-03-01T10:37:43Z</time>
      </trkpt>
      <trkpt lat="45.38824" lon="6.66541">
        <ele>2151.3999023438</ele>
        <time>2013-03-01T10:37:43Z</time>
      </trkpt>
      <trkpt lat="45.3885" lon="6.66572">
        <ele>2147.6999511719</ele>
        <time>2013-03-01T10:37:43Z</time>
      </trkpt>
      <trkpt lat="45.38882" lon="6.66594">
        <ele>2142.1000976562</ele>
        <time>2013-03-01T10:37:43Z</time>
      </trkpt>
      <trkpt lat="45.38909" lon="6.66608">
        <ele>2139.6000976562</ele>
        <time>2013-03-01T10:37:43Z</time>
      </trkpt>
      <trkpt lat="45.38938" lon="6.66615">
        <ele>2133.8000488281</ele>
        <time>2013-03-01T10:37:43Z</time>
      </trkpt>
      <trkpt lat="45.38965" lon="6.66619">
        <ele>2125.8000488281</ele>
        <time>2013-03-01T10:37:43Z</time>
      </trkpt>
      <trkpt lat="45.38984" lon="6.6665">
        <ele>2117</ele>
        <time>2013-03-01T10:37:43Z</time>
      </trkpt>
      <trkpt lat="45.39005" lon="6.6668">
        <ele>2112.1999511719</ele>
        <time>2013-03-01T10:37:43Z</time>
      </trkpt>
      <trkpt lat="45.39031" lon="6.66697">
        <ele>2096.5</ele>
        <time>2013-03-01T10:37:43Z</time>
      </trkpt>
      <trkpt lat="45.39057" lon="6.66717">
        <ele>2090.6999511719</ele>
        <time>2013-03-01T10:37:43Z</time>
      </trkpt>
      <trkpt lat="45.39084" lon="6.6674">
        <ele>2089.1000976562</ele>
        <time>2013-03-01T10:37:43Z</time>
      </trkpt>
      <trkpt lat="45.3911" lon="6.66711">
        <ele>2079.8000488281</ele>
        <time>2013-03-01T10:37:43Z</time>
      </trkpt>
      <trkpt lat="45.39143" lon="6.66707">
        <ele>2081.1000976562</ele>
        <time>2013-03-01T10:37:43Z</time>
      </trkpt>
      <trkpt lat="45.3917" lon="6.66697">
        <ele>2073.6999511719</ele>
        <time>2013-03-01T10:37:43Z</time>
      </trkpt>
      <trkpt lat="45.39202" lon="6.66678">
        <ele>2063.3999023438</ele>
        <time>2013-03-01T10:37:43Z</time>
      </trkpt>
      <trkpt lat="45.39228" lon="6.66655">
        <ele>2057.6000976562</ele>
        <time>2013-03-01T10:37:43Z</time>
      </trkpt>
      <trkpt lat="45.39248" lon="6.66623">
        <ele>2048.3999023438</ele>
        <time>2013-03-01T10:37:43Z</time>
      </trkpt>
      <trkpt lat="45.39274" lon="6.66598">
        <ele>2031.6000976562</ele>
        <time>2013-03-01T10:37:43Z</time>
      </trkpt>
      <trkpt lat="45.39306" lon="6.66586">
        <ele>2014.6999511719</ele>
        <time>2013-03-01T10:37:43Z</time>
      </trkpt>
      <trkpt lat="45.39341" lon="6.66594">
        <ele>2009.1000976562</ele>
        <time>2013-03-01T10:37:43Z</time>
      </trkpt>
      <trkpt lat="45.39372" lon="6.66597">
        <ele>1997.6999511719</ele>
        <time>2013-03-01T10:37:43Z</time>
      </trkpt>
      <trkpt lat="45.39399" lon="6.66595">
        <ele>1995.0999755859</ele>
        <time>2013-03-01T10:37:43Z</time>
      </trkpt>
      <trkpt lat="45.39426" lon="6.66604">
        <ele>1987.8000488281</ele>
        <time>2013-03-01T10:37:43Z</time>
      </trkpt>
      <trkpt lat="45.39457" lon="6.66609">
        <ele>1979.3000488281</ele>
        <time>2013-03-01T10:37:43Z</time>
      </trkpt>
      <trkpt lat="45.39484" lon="6.66601">
        <ele>1970</ele>
        <time>2013-03-01T10:37:43Z</time>
      </trkpt>
      <trkpt lat="45.39503" lon="6.6664">
        <ele>1960.6999511719</ele>
        <time>2013-03-01T10:37:43Z</time>
      </trkpt>
      <trkpt lat="45.39535" lon="6.66663">
        <ele>1951</ele>
        <time>2013-03-01T10:37:43Z</time>
      </trkpt>
      <trkpt lat="45.39562" lon="6.66679">
        <ele>1939.5</ele>
        <time>2013-03-01T10:37:43Z</time>
      </trkpt>
      <trkpt lat="45.39596" lon="6.66686">
        <ele>1931.4000244141</ele>
        <time>2013-03-01T10:37:43Z</time>
      </trkpt>
      <trkpt lat="45.39627" lon="6.66696">
        <ele>1916.3000488281</ele>
        <time>2013-03-01T10:37:43Z</time>
      </trkpt>
      <trkpt lat="45.39655" lon="6.66711">
        <ele>1912.4000244141</ele>
        <time>2013-03-01T10:37:43Z</time>
      </trkpt>
      <trkpt lat="45.3969" lon="6.66717">
        <ele>1892.1999511719</ele>
        <time>2013-03-01T10:37:43Z</time>
      </trkpt>
      <trkpt lat="45.39721" lon="6.66705">
        <ele>1880.0999755859</ele>
        <time>2013-03-01T10:37:43Z</time>
      </trkpt>
      <trkpt lat="45.39759" lon="6.6669">
        <ele>1865.4000244141</ele>
        <time>2013-03-01T10:37:43Z</time>
      </trkpt>
      <trkpt lat="45.39786" lon="6.66681">
        <ele>1860.6999511719</ele>
        <time>2013-03-01T10:37:43Z</time>
      </trkpt>
      <trkpt lat="45.39824" lon="6.66669">
        <ele>1852.5999755859</ele>
        <time>2013-03-01T10:37:43Z</time>
      </trkpt>
      <trkpt lat="45.39859" lon="6.66652">
        <ele>1842.0999755859</ele>
        <time>2013-03-01T10:37:43Z</time>
      </trkpt>
      <trkpt lat="45.39896" lon="6.66647">
        <ele>1832.9000244141</ele>
        <time>2013-03-01T10:37:43Z</time>
      </trkpt>
      <trkpt lat="45.39932" lon="6.66642">
        <ele>1826.5999755859</ele>
        <time>2013-03-01T10:37:43Z</time>
      </trkpt>
      <trkpt lat="45.39964" lon="6.66636">
        <ele>1820.5</ele>
        <time>2013-03-01T10:37:43Z</time>
      </trkpt>
      <trkpt lat="45.39997" lon="6.66635">
        <ele>1816.1999511719</ele>
        <time>2013-03-01T10:37:43Z</time>
      </trkpt>
      <trkpt lat="45.40029" lon="6.6662">
        <ele>1814.5999755859</ele>
        <time>2013-03-01T10:37:43Z</time>
      </trkpt>
      <trkpt lat="45.40023" lon="6.66659">
        <ele>1801</ele>
        <time>2013-03-01T10:37:43Z</time>
      </trkpt>
      <trkpt lat="45.39996" lon="6.6667">
        <ele>1807.0999755859</ele>
        <time>2013-03-01T10:37:43Z</time>
      </trkpt>
      <trkpt lat="45.39968" lon="6.6666">
        <ele>1812.6999511719</ele>
        <time>2013-03-01T10:37:43Z</time>
      </trkpt>
      <trkpt lat="45.3994" lon="6.6665">
        <ele>1823.0999755859</ele>
        <time>2013-03-01T10:37:43Z</time>
      </trkpt>
      <trkpt lat="45.39662" lon="6.66553">
        <ele>1868.1999511719</ele>
        <time>2013-03-01T10:38:35Z</time>
      </trkpt>
      <trkpt lat="45.39659" lon="6.66552">
        <ele>1868.3000488281</ele>
        <time>2013-03-01T10:38:36Z</time>
      </trkpt>
      <trkpt lat="45.39633" lon="6.66535">
        <ele>1886</ele>
        <time>2013-03-01T10:38:48Z</time>
      </trkpt>
      <trkpt lat="45.39604" lon="6.66527">
        <ele>1895.5999755859</ele>
        <time>2013-03-01T10:38:53Z</time>
      </trkpt>
      <trkpt lat="45.39574" lon="6.66516">
        <ele>1910.4000244141</ele>
        <time>2013-03-01T10:39:02Z</time>
      </trkpt>
      <trkpt lat="45.39546" lon="6.66508">
        <ele>1922.4000244141</ele>
        <time>2013-03-01T10:39:06Z</time>
      </trkpt>
      <trkpt lat="45.39518" lon="6.665">
        <ele>1931.5</ele>
        <time>2013-03-01T10:39:15Z</time>
      </trkpt>
      <trkpt lat="45.3949" lon="6.66491">
        <ele>1954.0999755859</ele>
        <time>2013-03-01T10:39:22Z</time>
      </trkpt>
      <trkpt lat="45.3946" lon="6.66483">
        <ele>1958.6999511719</ele>
        <time>2013-03-01T10:39:28Z</time>
      </trkpt>
      <trkpt lat="45.39433" lon="6.66473">
        <ele>1966.0999755859</ele>
        <time>2013-03-01T10:39:34Z</time>
      </trkpt>
      <trkpt lat="45.39404" lon="6.6646">
        <ele>1978.6999511719</ele>
        <time>2013-03-01T10:39:43Z</time>
      </trkpt>
      <trkpt lat="45.39377" lon="6.66448">
        <ele>1983.1999511719</ele>
        <time>2013-03-01T10:39:51Z</time>
      </trkpt>
      <trkpt lat="45.39347" lon="6.66437">
        <ele>1989.4000244141</ele>
        <time>2013-03-01T10:39:59Z</time>
      </trkpt>
      <trkpt lat="45.39318" lon="6.66428">
        <ele>1989</ele>
        <time>2013-03-01T10:40:06Z</time>
      </trkpt>
      <trkpt lat="45.39289" lon="6.66418">
        <ele>1995.1999511719</ele>
        <time>2013-03-01T10:40:14Z</time>
      </trkpt>
      <trkpt lat="45.3926" lon="6.66407">
        <ele>2003.1999511719</ele>
        <time>2013-03-01T10:40:21Z</time>
      </trkpt>
      <trkpt lat="45.39232" lon="6.66395">
        <ele>2012.8999023438</ele>
        <time>2013-03-01T10:40:28Z</time>
      </trkpt>
      <trkpt lat="45.39205" lon="6.66385">
        <ele>2027.5</ele>
        <time>2013-03-01T10:40:35Z</time>
      </trkpt>
      <trkpt lat="45.39176" lon="6.66375">
        <ele>2045</ele>
        <time>2013-03-01T10:40:44Z</time>
      </trkpt>
      <trkpt lat="45.39148" lon="6.66365">
        <ele>2058.6000976562</ele>
        <time>2013-03-01T10:40:51Z</time>
      </trkpt>
      <trkpt lat="45.3912" lon="6.66355">
        <ele>2071</ele>
        <time>2013-03-01T10:40:59Z</time>
      </trkpt>
      <trkpt lat="45.39091" lon="6.66345">
        <ele>2083.1999511719</ele>
        <time>2013-03-01T10:41:07Z</time>
      </trkpt>
      <trkpt lat="45.39062" lon="6.66335">
        <ele>2109</ele>
        <time>2013-03-01T10:41:17Z</time>
      </trkpt>
      <trkpt lat="45.39034" lon="6.66325">
        <ele>2134.3000488281</ele>
        <time>2013-03-01T10:41:26Z</time>
      </trkpt>
      <trkpt lat="45.39005" lon="6.66314">
        <ele>2158.1000976562</ele>
        <time>2013-03-01T10:41:36Z</time>
      </trkpt>
      <trkpt lat="45.38976" lon="6.66304">
        <ele>2173.3999023438</ele>
        <time>2013-03-01T10:41:44Z</time>
      </trkpt>
      <trkpt lat="45.3895" lon="6.66294">
        <ele>2188.1000976562</ele>
        <time>2013-03-01T10:41:52Z</time>
      </trkpt>
      <trkpt lat="45.38921" lon="6.66289">
        <ele>2202.1999511719</ele>
        <time>2013-03-01T10:42:38Z</time>
      </trkpt>
      <trkpt lat="45.38894" lon="6.66282">
        <ele>2211</ele>
        <time>2013-03-01T10:42:48Z</time>
      </trkpt>
      <trkpt lat="45.38864" lon="6.6627">
        <ele>2218.3999023438</ele>
        <time>2013-03-01T10:42:57Z</time>
      </trkpt>
      <trkpt lat="45.38836" lon="6.66259">
        <ele>2225.5</ele>
        <time>2013-03-01T10:43:03Z</time>
      </trkpt>
      <trkpt lat="45.38805" lon="6.6625">
        <ele>2232.3999023438</ele>
        <time>2013-03-01T10:43:11Z</time>
      </trkpt>
      <trkpt lat="45.38777" lon="6.66242">
        <ele>2229.6999511719</ele>
        <time>2013-03-01T10:43:19Z</time>
      </trkpt>
      <trkpt lat="45.38747" lon="6.66231">
        <ele>2230.3000488281</ele>
        <time>2013-03-01T10:43:26Z</time>
      </trkpt>
      <trkpt lat="45.38718" lon="6.66219">
        <ele>2234.5</ele>
        <time>2013-03-01T10:43:34Z</time>
      </trkpt>
      <trkpt lat="45.3869" lon="6.66204">
        <ele>2242.6000976562</ele>
        <time>2013-03-01T10:43:40Z</time>
      </trkpt>
      <trkpt lat="45.38661" lon="6.66198">
        <ele>2248.3000488281</ele>
        <time>2013-03-01T10:43:48Z</time>
      </trkpt>
      <trkpt lat="45.38633" lon="6.66185">
        <ele>2247</ele>
        <time>2013-03-01T10:43:57Z</time>
      </trkpt>
      <trkpt lat="45.38606" lon="6.66176">
        <ele>2248.8000488281</ele>
        <time>2013-03-01T10:44:04Z</time>
      </trkpt>
      <trkpt lat="45.38585" lon="6.66147">
        <ele>2252.1999511719</ele>
        <time>2013-03-01T10:44:23Z</time>
      </trkpt>
      <trkpt lat="45.38589" lon="6.66107">
        <ele>2254.1000976562</ele>
        <time>2013-03-01T10:44:33Z</time>
      </trkpt>
      <trkpt lat="45.38603" lon="6.66071">
        <ele>2254.8000488281</ele>
        <time>2013-03-01T10:44:43Z</time>
      </trkpt>
      <trkpt lat="45.38625" lon="6.66047">
        <ele>2255.6000976562</ele>
        <time>2013-03-01T10:44:59Z</time>
      </trkpt>
      <trkpt lat="45.3865" lon="6.6603">
        <ele>2248.5</ele>
        <time>2013-03-01T10:45:14Z</time>
      </trkpt>
      <trkpt lat="45.38677" lon="6.66009">
        <ele>2245</ele>
        <time>2013-03-01T10:45:18Z</time>
      </trkpt>
      <trkpt lat="45.38703" lon="6.65984">
        <ele>2240.8999023438</ele>
        <time>2013-03-01T10:45:22Z</time>
      </trkpt>
      <trkpt lat="45.38736" lon="6.65956">
        <ele>2221.6999511719</ele>
        <time>2013-03-01T10:45:26Z</time>
      </trkpt>
      <trkpt lat="45.38773" lon="6.65928">
        <ele>2208.6000976562</ele>
        <time>2013-03-01T10:45:29Z</time>
      </trkpt>
      <trkpt lat="45.38801" lon="6.65911">
        <ele>2204.1000976562</ele>
        <time>2013-03-01T10:45:31Z</time>
      </trkpt>
      <trkpt lat="45.38829" lon="6.65916">
        <ele>2202.6000976562</ele>
        <time>2013-03-01T10:45:33Z</time>
      </trkpt>
      <trkpt lat="45.38864" lon="6.65932">
        <ele>2198.5</ele>
        <time>2013-03-01T10:45:36Z</time>
      </trkpt>
      <trkpt lat="45.38895" lon="6.65949">
        <ele>2191.6000976562</ele>
        <time>2013-03-01T10:45:39Z</time>
      </trkpt>
      <trkpt lat="45.38935" lon="6.65942">
        <ele>2183.3999023438</ele>
        <time>2013-03-01T10:45:42Z</time>
      </trkpt>
      <trkpt lat="45.38961" lon="6.65914">
        <ele>2180.5</ele>
        <time>2013-03-01T10:45:45Z</time>
      </trkpt>
      <trkpt lat="45.38982" lon="6.65873">
        <ele>2171.8000488281</ele>
        <time>2013-03-01T10:45:48Z</time>
      </trkpt>
      <trkpt lat="45.39004" lon="6.65833">
        <ele>2167.3000488281</ele>
        <time>2013-03-01T10:45:51Z</time>
      </trkpt>
      <trkpt lat="45.39043" lon="6.65852">
        <ele>2156.5</ele>
        <time>2013-03-01T10:45:53Z</time>
      </trkpt>
      <trkpt lat="45.39083" lon="6.65856">
        <ele>2148</ele>
        <time>2013-03-01T10:45:56Z</time>
      </trkpt>
      <trkpt lat="45.39122" lon="6.65846">
        <ele>2137.6000976562</ele>
        <time>2013-03-01T10:45:59Z</time>
      </trkpt>
      <trkpt lat="45.39159" lon="6.65825">
        <ele>2126.6000976562</ele>
        <time>2013-03-01T10:46:02Z</time>
      </trkpt>
      <trkpt lat="45.39184" lon="6.65807">
        <ele>2119</ele>
        <time>2013-03-01T10:46:04Z</time>
      </trkpt>
      <trkpt lat="45.3922" lon="6.65786">
        <ele>2105.6999511719</ele>
        <time>2013-03-01T10:46:07Z</time>
      </trkpt>
      <trkpt lat="45.39256" lon="6.65767">
        <ele>2096.5</ele>
        <time>2013-03-01T10:46:10Z</time>
      </trkpt>
      <trkpt lat="45.39285" lon="6.65739">
        <ele>2092.8999023438</ele>
        <time>2013-03-01T10:46:13Z</time>
      </trkpt>
      <trkpt lat="45.39318" lon="6.65728">
        <ele>2086.6000976562</ele>
        <time>2013-03-01T10:46:17Z</time>
      </trkpt>
      <trkpt lat="45.39349" lon="6.65726">
        <ele>2080.3000488281</ele>
        <time>2013-03-01T10:46:20Z</time>
      </trkpt>
      <trkpt lat="45.39378" lon="6.65732">
        <ele>2075.8999023438</ele>
        <time>2013-03-01T10:46:23Z</time>
      </trkpt>
      <trkpt lat="45.3941" lon="6.65711">
        <ele>2070.6000976562</ele>
        <time>2013-03-01T10:46:52Z</time>
      </trkpt>
      <trkpt lat="45.39443" lon="6.65694">
        <ele>2067.8999023438</ele>
        <time>2013-03-01T10:46:56Z</time>
      </trkpt>
      <trkpt lat="45.39473" lon="6.65673">
        <ele>2062.6999511719</ele>
        <time>2013-03-01T10:46:59Z</time>
      </trkpt>
      <trkpt lat="45.395" lon="6.65645">
        <ele>2052.3000488281</ele>
        <time>2013-03-01T10:47:02Z</time>
      </trkpt>
      <trkpt lat="45.3953" lon="6.65622">
        <ele>2044.3999023438</ele>
        <time>2013-03-01T10:47:06Z</time>
      </trkpt>
      <trkpt lat="45.39552" lon="6.65595">
        <ele>2033.8000488281</ele>
        <time>2013-03-01T10:47:10Z</time>
      </trkpt>
      <trkpt lat="45.39587" lon="6.65595">
        <ele>2027.3999023438</ele>
        <time>2013-03-01T10:47:13Z</time>
      </trkpt>
      <trkpt lat="45.39615" lon="6.656">
        <ele>2024</ele>
        <time>2013-03-01T10:47:16Z</time>
      </trkpt>
      <trkpt lat="45.39647" lon="6.65608">
        <ele>2018.3999023438</ele>
        <time>2013-03-01T10:47:20Z</time>
      </trkpt>
      <trkpt lat="45.3968" lon="6.65611">
        <ele>2007.6000976562</ele>
        <time>2013-03-01T10:47:23Z</time>
      </trkpt>
      <trkpt lat="45.39716" lon="6.65618">
        <ele>2000.6000976562</ele>
        <time>2013-03-01T10:47:26Z</time>
      </trkpt>
      <trkpt lat="45.39744" lon="6.65631">
        <ele>1996</ele>
        <time>2013-03-01T10:47:29Z</time>
      </trkpt>
      <trkpt lat="45.39775" lon="6.65643">
        <ele>1988.3000488281</ele>
        <time>2013-03-01T10:47:33Z</time>
      </trkpt>
      <trkpt lat="45.39808" lon="6.6563">
        <ele>1981.6999511719</ele>
        <time>2013-03-01T10:47:37Z</time>
      </trkpt>
      <trkpt lat="45.39839" lon="6.65634">
        <ele>1970.4000244141</ele>
        <time>2013-03-01T10:47:41Z</time>
      </trkpt>
      <trkpt lat="45.3987" lon="6.65628">
        <ele>1964.6999511719</ele>
        <time>2013-03-01T10:47:45Z</time>
      </trkpt>
      <trkpt lat="45.39904" lon="6.65635">
        <ele>1946.8000488281</ele>
        <time>2013-03-01T10:47:50Z</time>
      </trkpt>
      <trkpt lat="45.39934" lon="6.65632">
        <ele>1936.6999511719</ele>
        <time>2013-03-01T10:47:55Z</time>
      </trkpt>
      <trkpt lat="45.39964" lon="6.65611">
        <ele>1920.3000488281</ele>
        <time>2013-03-01T10:48:00Z</time>
      </trkpt>
      <trkpt lat="45.39997" lon="6.65591">
        <ele>1914.8000488281</ele>
        <time>2013-03-01T10:48:04Z</time>
      </trkpt>
      <trkpt lat="45.40031" lon="6.65577">
        <ele>1910.6999511719</ele>
        <time>2013-03-01T10:48:07Z</time>
      </trkpt>
      <trkpt lat="45.40067" lon="6.65563">
        <ele>1903.1999511719</ele>
        <time>2013-03-01T10:48:10Z</time>
      </trkpt>
      <trkpt lat="45.40101" lon="6.65547">
        <ele>1901.4000244141</ele>
        <time>2013-03-01T10:48:13Z</time>
      </trkpt>
      <trkpt lat="45.4013" lon="6.65542">
        <ele>1900.5999755859</ele>
        <time>2013-03-01T10:48:16Z</time>
      </trkpt>
      <trkpt lat="45.40161" lon="6.65539">
        <ele>1895</ele>
        <time>2013-03-01T10:48:20Z</time>
      </trkpt>
      <trkpt lat="45.40193" lon="6.65529">
        <ele>1890.8000488281</ele>
        <time>2013-03-01T10:48:24Z</time>
      </trkpt>
      <trkpt lat="45.40221" lon="6.65521">
        <ele>1890.4000244141</ele>
        <time>2013-03-01T10:48:27Z</time>
      </trkpt>
      <trkpt lat="45.40252" lon="6.65512">
        <ele>1886.8000488281</ele>
        <time>2013-03-01T10:48:31Z</time>
      </trkpt>
      <trkpt lat="45.40289" lon="6.65504">
        <ele>1886.9000244141</ele>
        <time>2013-03-01T10:48:35Z</time>
      </trkpt>
      <trkpt lat="45.4032" lon="6.65495">
        <ele>1881.9000244141</ele>
        <time>2013-03-01T10:48:39Z</time>
      </trkpt>
      <trkpt lat="45.40354" lon="6.65486">
        <ele>1876.6999511719</ele>
        <time>2013-03-01T10:48:43Z</time>
      </trkpt>
      <trkpt lat="45.40383" lon="6.65482">
        <ele>1874.5999755859</ele>
        <time>2013-03-01T10:48:46Z</time>
      </trkpt>
      <trkpt lat="45.40411" lon="6.65475">
        <ele>1871.6999511719</ele>
        <time>2013-03-01T10:48:49Z</time>
      </trkpt>
      <trkpt lat="45.40444" lon="6.65464">
        <ele>1869</ele>
        <time>2013-03-01T10:48:53Z</time>
      </trkpt>
      <trkpt lat="45.40474" lon="6.65447">
        <ele>1866.0999755859</ele>
        <time>2013-03-01T10:48:58Z</time>
      </trkpt>
      <trkpt lat="45.40501" lon="6.65436">
        <ele>1865.3000488281</ele>
        <time>2013-03-01T10:49:03Z</time>
      </trkpt>
      <trkpt lat="45.40527" lon="6.65425">
        <ele>1862.1999511719</ele>
        <time>2013-03-01T10:49:29Z</time>
      </trkpt>
      <trkpt lat="45.40557" lon="6.65444">
        <ele>1850.3000488281</ele>
        <time>2013-03-01T10:49:42Z</time>
      </trkpt>
      <trkpt lat="45.40593" lon="6.6545">
        <ele>1841.5</ele>
        <time>2013-03-01T10:49:46Z</time>
      </trkpt>
      <trkpt lat="45.40631" lon="6.65447">
        <ele>1837.3000488281</ele>
        <time>2013-03-01T10:49:49Z</time>
      </trkpt>
      <trkpt lat="45.40668" lon="6.65443">
        <ele>1835</ele>
        <time>2013-03-01T10:49:52Z</time>
      </trkpt>
      <trkpt lat="45.40697" lon="6.65447">
        <ele>1831.6999511719</ele>
        <time>2013-03-01T10:49:55Z</time>
      </trkpt>
      <trkpt lat="45.40731" lon="6.6545">
        <ele>1828.9000244141</ele>
        <time>2013-03-01T10:49:58Z</time>
      </trkpt>
      <trkpt lat="45.40764" lon="6.6545">
        <ele>1824.4000244141</ele>
        <time>2013-03-01T10:50:01Z</time>
      </trkpt>
      <trkpt lat="45.40792" lon="6.65459">
        <ele>1821.4000244141</ele>
        <time>2013-03-01T10:50:04Z</time>
      </trkpt>
      <trkpt lat="45.40826" lon="6.65447">
        <ele>1817.0999755859</ele>
        <time>2013-03-01T10:50:08Z</time>
      </trkpt>
      <trkpt lat="45.40857" lon="6.65434">
        <ele>1810.8000488281</ele>
        <time>2013-03-01T10:50:12Z</time>
      </trkpt>
      <trkpt lat="45.40887" lon="6.65447">
        <ele>1802.9000244141</ele>
        <time>2013-03-01T10:50:16Z</time>
      </trkpt>
      <trkpt lat="45.40918" lon="6.65455">
        <ele>1794.8000488281</ele>
        <time>2013-03-01T10:50:20Z</time>
      </trkpt>
      <trkpt lat="45.40948" lon="6.65465">
        <ele>1785.9000244141</ele>
        <time>2013-03-01T10:50:24Z</time>
      </trkpt>
      <trkpt lat="45.40977" lon="6.65469">
        <ele>1784</ele>
        <time>2013-03-01T10:50:27Z</time>
      </trkpt>
      <trkpt lat="45.41005" lon="6.65476">
        <ele>1774.0999755859</ele>
        <time>2013-03-01T10:50:30Z</time>
      </trkpt>
      <trkpt lat="45.41034" lon="6.65473">
        <ele>1768.4000244141</ele>
        <time>2013-03-01T10:50:33Z</time>
      </trkpt>
      <trkpt lat="45.41062" lon="6.6549">
        <ele>1761.1999511719</ele>
        <time>2013-03-01T10:50:36Z</time>
      </trkpt>
      <trkpt lat="45.41092" lon="6.65505">
        <ele>1757.5</ele>
        <time>2013-03-01T10:50:39Z</time>
      </trkpt>
      <trkpt lat="45.41119" lon="6.65509">
        <ele>1749.9000244141</ele>
        <time>2013-03-01T10:50:42Z</time>
      </trkpt>
      <trkpt lat="45.4115" lon="6.65529">
        <ele>1738.9000244141</ele>
        <time>2013-03-01T10:50:46Z</time>
      </trkpt>
      <trkpt lat="45.41183" lon="6.65545">
        <ele>1731.1999511719</ele>
        <time>2013-03-01T10:50:50Z</time>
      </trkpt>
      <trkpt lat="45.41213" lon="6.65552">
        <ele>1717.6999511719</ele>
        <time>2013-03-01T10:50:53Z</time>
      </trkpt>
      <trkpt lat="45.41245" lon="6.65564">
        <ele>1704.5999755859</ele>
        <time>2013-03-01T10:50:56Z</time>
      </trkpt>
      <trkpt lat="45.41276" lon="6.65541">
        <ele>1697.6999511719</ele>
        <time>2013-03-01T10:50:59Z</time>
      </trkpt>
      <trkpt lat="45.41307" lon="6.65518">
        <ele>1690.5999755859</ele>
        <time>2013-03-01T10:51:02Z</time>
      </trkpt>
      <trkpt lat="45.41336" lon="6.65489">
        <ele>1684.4000244141</ele>
        <time>2013-03-01T10:51:05Z</time>
      </trkpt>
      <trkpt lat="45.41366" lon="6.65465">
        <ele>1678</ele>
        <time>2013-03-01T10:51:08Z</time>
      </trkpt>
      <trkpt lat="45.41394" lon="6.65438">
        <ele>1674.5999755859</ele>
        <time>2013-03-01T10:51:11Z</time>
      </trkpt>
      <trkpt lat="45.41421" lon="6.65409">
        <ele>1671.1999511719</ele>
        <time>2013-03-01T10:51:14Z</time>
      </trkpt>
      <trkpt lat="45.41448" lon="6.65378">
        <ele>1668.8000488281</ele>
        <time>2013-03-01T10:51:17Z</time>
      </trkpt>
      <trkpt lat="45.41478" lon="6.65356">
        <ele>1668.5</ele>
        <time>2013-03-01T10:51:20Z</time>
      </trkpt>
      <trkpt lat="45.41511" lon="6.65349">
        <ele>1658</ele>
        <time>2013-03-01T10:51:23Z</time>
      </trkpt>
      <trkpt lat="45.41541" lon="6.65339">
        <ele>1653.4000244141</ele>
        <time>2013-03-01T10:51:26Z</time>
      </trkpt>
      <trkpt lat="45.41575" lon="6.65337">
        <ele>1646</ele>
        <time>2013-03-01T10:51:30Z</time>
      </trkpt>
      <trkpt lat="45.41602" lon="6.65322">
        <ele>1641.3000488281</ele>
        <time>2013-03-01T10:51:33Z</time>
      </trkpt>
      <trkpt lat="45.41626" lon="6.65303">
        <ele>1637.0999755859</ele>
        <time>2013-03-01T10:51:37Z</time>
      </trkpt>
      <trkpt lat="45.41659" lon="6.65292">
        <ele>1629</ele>
        <time>2013-03-01T10:51:43Z</time>
      </trkpt>
      <trkpt lat="45.41685" lon="6.65276">
        <ele>1616</ele>
        <time>2013-03-01T10:51:49Z</time>
      </trkpt>
      <trkpt lat="45.41698" lon="6.65241">
        <ele>1601.5999755859</ele>
        <time>2013-03-01T10:52:14Z</time>
      </trkpt>
      <trkpt lat="45.41719" lon="6.65215">
        <ele>1591</ele>
        <time>2013-03-01T10:53:15Z</time>
      </trkpt>
      <trkpt lat="45.41742" lon="6.65192">
        <ele>1584.6999511719</ele>
        <time>2013-03-01T10:54:06Z</time>
      </trkpt>
      <trkpt lat="45.41764" lon="6.65218">
        <ele>1601.0999755859</ele>
        <time>2013-03-01T10:54:40Z</time>
      </trkpt>
      <trkpt lat="45.41743" lon="6.65244">
        <ele>1583.5</ele>
        <time>2013-03-01T10:55:02Z</time>
      </trkpt>
      <trkpt lat="45.41763" lon="6.6527">
        <ele>1586.9000244141</ele>
        <time>2013-03-01T10:55:16Z</time>
      </trkpt>
      <trkpt lat="45.40475" lon="6.65506">
        <ele>1835.3000488281</ele>
        <time>2013-03-01T12:46:51Z</time>
      </trkpt>
      <trkpt lat="45.40447" lon="6.65527">
        <ele>1844.1999511719</ele>
        <time>2013-03-01T12:46:58Z</time>
      </trkpt>
      <trkpt lat="45.4042" lon="6.65536">
        <ele>1858.4000244141</ele>
        <time>2013-03-01T12:47:06Z</time>
      </trkpt>
      <trkpt lat="45.40393" lon="6.65544">
        <ele>1859.5999755859</ele>
        <time>2013-03-01T12:47:14Z</time>
      </trkpt>
      <trkpt lat="45.40365" lon="6.6555">
        <ele>1866.3000488281</ele>
        <time>2013-03-01T12:47:22Z</time>
      </trkpt>
      <trkpt lat="45.40337" lon="6.65557">
        <ele>1873.9000244141</ele>
        <time>2013-03-01T12:47:30Z</time>
      </trkpt>
      <trkpt lat="45.40308" lon="6.65562">
        <ele>1872</ele>
        <time>2013-03-01T12:47:38Z</time>
      </trkpt>
      <trkpt lat="45.40279" lon="6.65567">
        <ele>1873.9000244141</ele>
        <time>2013-03-01T12:47:46Z</time>
      </trkpt>
      <trkpt lat="45.4025" lon="6.65573">
        <ele>1880</ele>
        <time>2013-03-01T12:47:54Z</time>
      </trkpt>
      <trkpt lat="45.4022" lon="6.65579">
        <ele>1883.6999511719</ele>
        <time>2013-03-01T12:48:02Z</time>
      </trkpt>
      <trkpt lat="45.40193" lon="6.65583">
        <ele>1884.6999511719</ele>
        <time>2013-03-01T12:48:09Z</time>
      </trkpt>
      <trkpt lat="45.40165" lon="6.6559">
        <ele>1885.5999755859</ele>
        <time>2013-03-01T12:48:16Z</time>
      </trkpt>
      <trkpt lat="45.40135" lon="6.65595">
        <ele>1888.5999755859</ele>
        <time>2013-03-01T12:48:26Z</time>
      </trkpt>
      <trkpt lat="45.40106" lon="6.65604">
        <ele>1894.9000244141</ele>
        <time>2013-03-01T12:48:35Z</time>
      </trkpt>
      <trkpt lat="45.40076" lon="6.65609">
        <ele>1901.1999511719</ele>
        <time>2013-03-01T12:48:44Z</time>
      </trkpt>
      <trkpt lat="45.40048" lon="6.65612">
        <ele>1902.3000488281</ele>
        <time>2013-03-01T12:48:52Z</time>
      </trkpt>
      <trkpt lat="45.40019" lon="6.65627">
        <ele>1905.5</ele>
        <time>2013-03-01T12:49:00Z</time>
      </trkpt>
      <trkpt lat="45.39989" lon="6.65632">
        <ele>1917.4000244141</ele>
        <time>2013-03-01T12:49:09Z</time>
      </trkpt>
      <trkpt lat="45.39962" lon="6.65642">
        <ele>1923.5</ele>
        <time>2013-03-01T12:49:17Z</time>
      </trkpt>
      <trkpt lat="45.39932" lon="6.65648">
        <ele>1929.8000488281</ele>
        <time>2013-03-01T12:49:26Z</time>
      </trkpt>
      <trkpt lat="45.39905" lon="6.65657">
        <ele>1941.8000488281</ele>
        <time>2013-03-01T12:49:34Z</time>
      </trkpt>
      <trkpt lat="45.39877" lon="6.65666">
        <ele>1951.5</ele>
        <time>2013-03-01T12:49:42Z</time>
      </trkpt>
      <trkpt lat="45.39848" lon="6.65675">
        <ele>1964.8000488281</ele>
        <time>2013-03-01T12:49:51Z</time>
      </trkpt>
      <trkpt lat="45.39818" lon="6.65681">
        <ele>1973.4000244141</ele>
        <time>2013-03-01T12:50:00Z</time>
      </trkpt>
      <trkpt lat="45.39791" lon="6.65688">
        <ele>1982.8000488281</ele>
        <time>2013-03-01T12:50:08Z</time>
      </trkpt>
      <trkpt lat="45.39763" lon="6.65694">
        <ele>1991.3000488281</ele>
        <time>2013-03-01T12:50:16Z</time>
      </trkpt>
      <trkpt lat="45.39735" lon="6.65701">
        <ele>2003.6000976562</ele>
        <time>2013-03-01T12:50:25Z</time>
      </trkpt>
      <trkpt lat="45.39704" lon="6.65707">
        <ele>2014.6000976562</ele>
        <time>2013-03-01T12:50:34Z</time>
      </trkpt>
      <trkpt lat="45.39676" lon="6.65711">
        <ele>2017.6000976562</ele>
        <time>2013-03-01T12:50:42Z</time>
      </trkpt>
      <trkpt lat="45.39649" lon="6.65717">
        <ele>2024.5</ele>
        <time>2013-03-01T12:50:50Z</time>
      </trkpt>
      <trkpt lat="45.39621" lon="6.65726">
        <ele>2031.1000976562</ele>
        <time>2013-03-01T12:50:58Z</time>
      </trkpt>
      <trkpt lat="45.39594" lon="6.65741">
        <ele>2035.1999511719</ele>
        <time>2013-03-01T12:51:06Z</time>
      </trkpt>
      <trkpt lat="45.39566" lon="6.6574">
        <ele>2036.8000488281</ele>
        <time>2013-03-01T12:51:18Z</time>
      </trkpt>
      <trkpt lat="45.39539" lon="6.6575">
        <ele>2057.6999511719</ele>
        <time>2013-03-01T12:56:15Z</time>
      </trkpt>
      <trkpt lat="45.39515" lon="6.65721">
        <ele>2049.1000976562</ele>
        <time>2013-03-01T12:56:48Z</time>
      </trkpt>
      <trkpt lat="45.39505" lon="6.65677">
        <ele>2044</ele>
        <time>2013-03-01T12:56:54Z</time>
      </trkpt>
      <trkpt lat="45.39526" lon="6.65643">
        <ele>2036.5</ele>
        <time>2013-03-01T12:56:59Z</time>
      </trkpt>
      <trkpt lat="45.39542" lon="6.65602">
        <ele>2031.3000488281</ele>
        <time>2013-03-01T12:57:03Z</time>
      </trkpt>
      <trkpt lat="45.39574" lon="6.65599">
        <ele>2027.6999511719</ele>
        <time>2013-03-01T12:57:05Z</time>
      </trkpt>
      <trkpt lat="45.39609" lon="6.65597">
        <ele>2022.6000976562</ele>
        <time>2013-03-01T12:57:08Z</time>
      </trkpt>
      <trkpt lat="45.3964" lon="6.65611">
        <ele>2016.3999023438</ele>
        <time>2013-03-01T12:57:12Z</time>
      </trkpt>
      <trkpt lat="45.39669" lon="6.65614">
        <ele>2010.6999511719</ele>
        <time>2013-03-01T12:57:17Z</time>
      </trkpt>
      <trkpt lat="45.39704" lon="6.65613">
        <ele>2003.1999511719</ele>
        <time>2013-03-01T12:57:20Z</time>
      </trkpt>
      <trkpt lat="45.3974" lon="6.65624">
        <ele>1999</ele>
        <time>2013-03-01T12:57:23Z</time>
      </trkpt>
      <trkpt lat="45.39762" lon="6.65646">
        <ele>1991.5999755859</ele>
        <time>2013-03-01T12:57:26Z</time>
      </trkpt>
      <trkpt lat="45.39792" lon="6.65651">
        <ele>1982</ele>
        <time>2013-03-01T12:57:30Z</time>
      </trkpt>
      <trkpt lat="45.3982" lon="6.65645">
        <ele>1975.4000244141</ele>
        <time>2013-03-01T12:57:33Z</time>
      </trkpt>
      <trkpt lat="45.39854" lon="6.65631">
        <ele>1966.0999755859</ele>
        <time>2013-03-01T12:57:37Z</time>
      </trkpt>
      <trkpt lat="45.3989" lon="6.65637">
        <ele>1958</ele>
        <time>2013-03-01T12:57:41Z</time>
      </trkpt>
      <trkpt lat="45.39923" lon="6.65636">
        <ele>1943.8000488281</ele>
        <time>2013-03-01T12:57:46Z</time>
      </trkpt>
      <trkpt lat="45.39953" lon="6.65635">
        <ele>1936.4000244141</ele>
        <time>2013-03-01T12:57:50Z</time>
      </trkpt>
      <trkpt lat="45.39979" lon="6.65609">
        <ele>1929.6999511719</ele>
        <time>2013-03-01T12:57:56Z</time>
      </trkpt>
      <trkpt lat="45.39976" lon="6.65569">
        <ele>1916.4000244141</ele>
        <time>2013-03-01T12:58:49Z</time>
      </trkpt>
      <trkpt lat="45.39976" lon="6.65526">
        <ele>1912.0999755859</ele>
        <time>2013-03-01T12:58:57Z</time>
      </trkpt>
      <trkpt lat="45.39977" lon="6.65483">
        <ele>1904.8000488281</ele>
        <time>2013-03-01T12:59:01Z</time>
      </trkpt>
      <trkpt lat="45.39995" lon="6.65442">
        <ele>1898</ele>
        <time>2013-03-01T12:59:06Z</time>
      </trkpt>
      <trkpt lat="45.40018" lon="6.65417">
        <ele>1897.0999755859</ele>
        <time>2013-03-01T12:59:09Z</time>
      </trkpt>
      <trkpt lat="45.40039" lon="6.65387">
        <ele>1896.6999511719</ele>
        <time>2013-03-01T12:59:13Z</time>
      </trkpt>
      <trkpt lat="45.40012" lon="6.65376">
        <ele>1887</ele>
        <time>2013-03-01T13:01:13Z</time>
      </trkpt>
      <trkpt lat="45.39986" lon="6.6539">
        <ele>1892.5999755859</ele>
        <time>2013-03-01T13:01:19Z</time>
      </trkpt>
      <trkpt lat="45.39959" lon="6.65406">
        <ele>1902.0999755859</ele>
        <time>2013-03-01T13:01:26Z</time>
      </trkpt>
      <trkpt lat="45.3993" lon="6.65419">
        <ele>1906.5</ele>
        <time>2013-03-01T13:01:34Z</time>
      </trkpt>
      <trkpt lat="45.39904" lon="6.65433">
        <ele>1911.3000488281</ele>
        <time>2013-03-01T13:01:41Z</time>
      </trkpt>
      <trkpt lat="45.39875" lon="6.65444">
        <ele>1927</ele>
        <time>2013-03-01T13:01:48Z</time>
      </trkpt>
      <trkpt lat="45.39847" lon="6.65456">
        <ele>1939.3000488281</ele>
        <time>2013-03-01T13:01:56Z</time>
      </trkpt>
      <trkpt lat="45.39819" lon="6.6547">
        <ele>1947.6999511719</ele>
        <time>2013-03-01T13:02:05Z</time>
      </trkpt>
      <trkpt lat="45.3979" lon="6.65482">
        <ele>1947.6999511719</ele>
        <time>2013-03-01T13:02:13Z</time>
      </trkpt>
      <trkpt lat="45.39762" lon="6.65494">
        <ele>1951.9000244141</ele>
        <time>2013-03-01T13:02:21Z</time>
      </trkpt>
      <trkpt lat="45.39733" lon="6.65507">
        <ele>1958.5</ele>
        <time>2013-03-01T13:02:30Z</time>
      </trkpt>
      <trkpt lat="45.39706" lon="6.65518">
        <ele>1962.8000488281</ele>
        <time>2013-03-01T13:02:36Z</time>
      </trkpt>
      <trkpt lat="45.39678" lon="6.6553">
        <ele>1974.6999511719</ele>
        <time>2013-03-01T13:02:44Z</time>
      </trkpt>
      <trkpt lat="45.3965" lon="6.65545">
        <ele>1979.9000244141</ele>
        <time>2013-03-01T13:02:53Z</time>
      </trkpt>
      <trkpt lat="45.39621" lon="6.65557">
        <ele>1992.1999511719</ele>
        <time>2013-03-01T13:03:02Z</time>
      </trkpt>
      <trkpt lat="45.39592" lon="6.65567">
        <ele>2002.1000976562</ele>
        <time>2013-03-01T13:03:10Z</time>
      </trkpt>
      <trkpt lat="45.39563" lon="6.65578">
        <ele>2016.8999023438</ele>
        <time>2013-03-01T13:03:19Z</time>
      </trkpt>
      <trkpt lat="45.39534" lon="6.65591">
        <ele>2023.8999023438</ele>
        <time>2013-03-01T13:03:27Z</time>
      </trkpt>
      <trkpt lat="45.39508" lon="6.65608">
        <ele>2028.3000488281</ele>
        <time>2013-03-01T13:03:35Z</time>
      </trkpt>
      <trkpt lat="45.3948" lon="6.65622">
        <ele>2033.3999023438</ele>
        <time>2013-03-01T13:03:43Z</time>
      </trkpt>
      <trkpt lat="45.39453" lon="6.65634">
        <ele>2036.3999023438</ele>
        <time>2013-03-01T13:03:51Z</time>
      </trkpt>
      <trkpt lat="45.39423" lon="6.65647">
        <ele>2039.6999511719</ele>
        <time>2013-03-01T13:04:00Z</time>
      </trkpt>
      <trkpt lat="45.39395" lon="6.65659">
        <ele>2048</ele>
        <time>2013-03-01T13:04:08Z</time>
      </trkpt>
      <trkpt lat="45.39366" lon="6.65671">
        <ele>2053.6000976562</ele>
        <time>2013-03-01T13:04:16Z</time>
      </trkpt>
      <trkpt lat="45.39339" lon="6.65685">
        <ele>2059.6000976562</ele>
        <time>2013-03-01T13:04:24Z</time>
      </trkpt>
      <trkpt lat="45.3931" lon="6.65697">
        <ele>2065</ele>
        <time>2013-03-01T13:04:32Z</time>
      </trkpt>
      <trkpt lat="45.39277" lon="6.65712">
        <ele>2068.8999023438</ele>
        <time>2013-03-01T13:04:41Z</time>
      </trkpt>
      <trkpt lat="45.39249" lon="6.65725">
        <ele>2080.1000976562</ele>
        <time>2013-03-01T13:04:49Z</time>
      </trkpt>
      <trkpt lat="45.3922" lon="6.65737">
        <ele>2085.6999511719</ele>
        <time>2013-03-01T13:04:57Z</time>
      </trkpt>
      <trkpt lat="45.39191" lon="6.65748">
        <ele>2091.8000488281</ele>
        <time>2013-03-01T13:05:05Z</time>
      </trkpt>
      <trkpt lat="45.39164" lon="6.65759">
        <ele>2103.6000976562</ele>
        <time>2013-03-01T13:05:13Z</time>
      </trkpt>
      <trkpt lat="45.39136" lon="6.6577">
        <ele>2115.8999023438</ele>
        <time>2013-03-01T13:05:21Z</time>
      </trkpt>
      <trkpt lat="45.3911" lon="6.65781">
        <ele>2129.8999023438</ele>
        <time>2013-03-01T13:05:29Z</time>
      </trkpt>
      <trkpt lat="45.39083" lon="6.65793">
        <ele>2139.5</ele>
        <time>2013-03-01T13:05:37Z</time>
      </trkpt>
      <trkpt lat="45.39055" lon="6.65807">
        <ele>2145.1999511719</ele>
        <time>2013-03-01T13:05:45Z</time>
      </trkpt>
      <trkpt lat="45.39027" lon="6.6582">
        <ele>2153.8000488281</ele>
        <time>2013-03-01T13:05:53Z</time>
      </trkpt>
      <trkpt lat="45.38999" lon="6.65831">
        <ele>2159.6999511719</ele>
        <time>2013-03-01T13:06:01Z</time>
      </trkpt>
      <trkpt lat="45.38971" lon="6.65843">
        <ele>2166.5</ele>
        <time>2013-03-01T13:06:09Z</time>
      </trkpt>
      <trkpt lat="45.38942" lon="6.65854">
        <ele>2173.8000488281</ele>
        <time>2013-03-01T13:06:17Z</time>
      </trkpt>
      <trkpt lat="45.38913" lon="6.65866">
        <ele>2182.8999023438</ele>
        <time>2013-03-01T13:06:25Z</time>
      </trkpt>
      <trkpt lat="45.38884" lon="6.65877">
        <ele>2188</ele>
        <time>2013-03-01T13:06:33Z</time>
      </trkpt>
      <trkpt lat="45.38855" lon="6.65889">
        <ele>2194.3000488281</ele>
        <time>2013-03-01T13:06:41Z</time>
      </trkpt>
      <trkpt lat="45.38828" lon="6.65903">
        <ele>2199.6999511719</ele>
        <time>2013-03-01T13:06:49Z</time>
      </trkpt>
      <trkpt lat="45.388" lon="6.65911">
        <ele>2207.3000488281</ele>
        <time>2013-03-01T13:06:56Z</time>
      </trkpt>
      <trkpt lat="45.38771" lon="6.65923">
        <ele>2212.3999023438</ele>
        <time>2013-03-01T13:07:04Z</time>
      </trkpt>
      <trkpt lat="45.38742" lon="6.65935">
        <ele>2218.8000488281</ele>
        <time>2013-03-01T13:07:12Z</time>
      </trkpt>
      <trkpt lat="45.38714" lon="6.65947">
        <ele>2226.1000976562</ele>
        <time>2013-03-01T13:07:20Z</time>
      </trkpt>
      <trkpt lat="45.38686" lon="6.65962">
        <ele>2223.8999023438</ele>
        <time>2013-03-01T13:07:28Z</time>
      </trkpt>
      <trkpt lat="45.38659" lon="6.65976">
        <ele>2225.6000976562</ele>
        <time>2013-03-01T13:07:36Z</time>
      </trkpt>
      <trkpt lat="45.3863" lon="6.6599">
        <ele>2228.3000488281</ele>
        <time>2013-03-01T13:07:44Z</time>
      </trkpt>
      <trkpt lat="45.38604" lon="6.66">
        <ele>2232.1000976562</ele>
        <time>2013-03-01T13:07:51Z</time>
      </trkpt>
      <trkpt lat="45.38575" lon="6.6601">
        <ele>2240.5</ele>
        <time>2013-03-01T13:07:59Z</time>
      </trkpt>
      <trkpt lat="45.38549" lon="6.66021">
        <ele>2244.8000488281</ele>
        <time>2013-03-01T13:08:09Z</time>
      </trkpt>
      <trkpt lat="45.38524" lon="6.6604">
        <ele>2255.8000488281</ele>
        <time>2013-03-01T13:08:25Z</time>
      </trkpt>
      <trkpt lat="45.38548" lon="6.66062">
        <ele>2257.3999023438</ele>
        <time>2013-03-01T13:08:37Z</time>
      </trkpt>
      <trkpt lat="45.38575" lon="6.66045">
        <ele>2253.3000488281</ele>
        <time>2013-03-01T13:08:49Z</time>
      </trkpt>
      <trkpt lat="45.38584" lon="6.66007">
        <ele>2252.5</ele>
        <time>2013-03-01T13:08:56Z</time>
      </trkpt>
      <trkpt lat="45.38581" lon="6.65968">
        <ele>2250.6999511719</ele>
        <time>2013-03-01T13:09:03Z</time>
      </trkpt>
      <trkpt lat="45.38577" lon="6.65929">
        <ele>2241.6999511719</ele>
        <time>2013-03-01T13:09:08Z</time>
      </trkpt>
      <trkpt lat="45.38579" lon="6.65879">
        <ele>2225.8000488281</ele>
        <time>2013-03-01T13:09:12Z</time>
      </trkpt>
      <trkpt lat="45.3858" lon="6.65828">
        <ele>2218.1999511719</ele>
        <time>2013-03-01T13:09:16Z</time>
      </trkpt>
      <trkpt lat="45.38582" lon="6.65789">
        <ele>2213.1999511719</ele>
        <time>2013-03-01T13:09:19Z</time>
      </trkpt>
      <trkpt lat="45.3858" lon="6.65746">
        <ele>2204</ele>
        <time>2013-03-01T13:09:22Z</time>
      </trkpt>
      <trkpt lat="45.38587" lon="6.65699">
        <ele>2199</ele>
        <time>2013-03-01T13:09:25Z</time>
      </trkpt>
      <trkpt lat="45.38601" lon="6.65649">
        <ele>2196.5</ele>
        <time>2013-03-01T13:09:28Z</time>
      </trkpt>
      <trkpt lat="45.38623" lon="6.65607">
        <ele>2193.1999511719</ele>
        <time>2013-03-01T13:09:31Z</time>
      </trkpt>
      <trkpt lat="45.38643" lon="6.65572">
        <ele>2188.1000976562</ele>
        <time>2013-03-01T13:09:34Z</time>
      </trkpt>
      <trkpt lat="45.38663" lon="6.65541">
        <ele>2186.6000976562</ele>
        <time>2013-03-01T13:09:37Z</time>
      </trkpt>
      <trkpt lat="45.38683" lon="6.65509">
        <ele>2187.1000976562</ele>
        <time>2013-03-01T13:09:41Z</time>
      </trkpt>
      <trkpt lat="45.38706" lon="6.65479">
        <ele>2183.3000488281</ele>
        <time>2013-03-01T13:09:46Z</time>
      </trkpt>
      <trkpt lat="45.3872" lon="6.65446">
        <ele>2175.5</ele>
        <time>2013-03-01T13:10:44Z</time>
      </trkpt>
      <trkpt lat="45.38711" lon="6.65404">
        <ele>2160.8999023438</ele>
        <time>2013-03-01T13:10:52Z</time>
      </trkpt>
      <trkpt lat="45.38722" lon="6.65358">
        <ele>2161.6000976562</ele>
        <time>2013-03-01T13:10:57Z</time>
      </trkpt>
      <trkpt lat="45.38729" lon="6.65316">
        <ele>2160.8999023438</ele>
        <time>2013-03-01T13:11:01Z</time>
      </trkpt>
      <trkpt lat="45.38741" lon="6.65274">
        <ele>2155.1000976562</ele>
        <time>2013-03-01T13:11:06Z</time>
      </trkpt>
      <trkpt lat="45.38758" lon="6.65229">
        <ele>2147</ele>
        <time>2013-03-01T13:11:10Z</time>
      </trkpt>
      <trkpt lat="45.38764" lon="6.65189">
        <ele>2141.6999511719</ele>
        <time>2013-03-01T13:11:13Z</time>
      </trkpt>
      <trkpt lat="45.38772" lon="6.6515">
        <ele>2138.5</ele>
        <time>2013-03-01T13:11:18Z</time>
      </trkpt>
      <trkpt lat="45.38776" lon="6.65097">
        <ele>2126.1000976562</ele>
        <time>2013-03-01T13:11:23Z</time>
      </trkpt>
      <trkpt lat="45.3878" lon="6.65054">
        <ele>2124.1999511719</ele>
        <time>2013-03-01T13:11:26Z</time>
      </trkpt>
      <trkpt lat="45.38781" lon="6.65006">
        <ele>2112.6999511719</ele>
        <time>2013-03-01T13:11:30Z</time>
      </trkpt>
      <trkpt lat="45.38777" lon="6.6496">
        <ele>2102.5</ele>
        <time>2013-03-01T13:11:33Z</time>
      </trkpt>
      <trkpt lat="45.38772" lon="6.64918">
        <ele>2099.5</ele>
        <time>2013-03-01T13:11:37Z</time>
      </trkpt>
      <trkpt lat="45.38774" lon="6.64875">
        <ele>2092.1999511719</ele>
        <time>2013-03-01T13:11:42Z</time>
      </trkpt>
      <trkpt lat="45.3877" lon="6.64829">
        <ele>2087.5</ele>
        <time>2013-03-01T13:11:46Z</time>
      </trkpt>
      <trkpt lat="45.38767" lon="6.64788">
        <ele>2083.6000976562</ele>
        <time>2013-03-01T13:11:51Z</time>
      </trkpt>
      <trkpt lat="45.38788" lon="6.64761">
        <ele>2070.8000488281</ele>
        <time>2013-03-01T13:11:58Z</time>
      </trkpt>
      <trkpt lat="45.38798" lon="6.64716">
        <ele>2060.5</ele>
        <time>2013-03-01T13:12:29Z</time>
      </trkpt>
      <trkpt lat="45.38796" lon="6.64674">
        <ele>2057.1999511719</ele>
        <time>2013-03-01T13:12:34Z</time>
      </trkpt>
      <trkpt lat="45.38803" lon="6.64633">
        <ele>2055.1999511719</ele>
        <time>2013-03-01T13:12:43Z</time>
      </trkpt>
      <trkpt lat="45.38807" lon="6.64592">
        <ele>2053.1000976562</ele>
        <time>2013-03-01T13:12:52Z</time>
      </trkpt>
      <trkpt lat="45.38806" lon="6.64552">
        <ele>2044.5</ele>
        <time>2013-03-01T13:13:11Z</time>
      </trkpt>
      <trkpt lat="45.38798" lon="6.64502">
        <ele>2025.1000976562</ele>
        <time>2013-03-01T13:13:22Z</time>
      </trkpt>
      <trkpt lat="45.38801" lon="6.64463">
        <ele>2000.8000488281</ele>
        <time>2013-03-01T13:13:30Z</time>
      </trkpt>
      <trkpt lat="45.38827" lon="6.64438">
        <ele>1975</ele>
        <time>2013-03-01T13:13:41Z</time>
      </trkpt>
      <trkpt lat="45.38837" lon="6.64397">
        <ele>1957.8000488281</ele>
        <time>2013-03-01T13:13:50Z</time>
      </trkpt>
      <trkpt lat="45.38851" lon="6.64357">
        <ele>1943.3000488281</ele>
        <time>2013-03-01T13:14:29Z</time>
      </trkpt>
      <trkpt lat="45.38871" lon="6.6433">
        <ele>1939</ele>
        <time>2013-03-01T13:14:36Z</time>
      </trkpt>
      <trkpt lat="45.38899" lon="6.64338">
        <ele>1921.1999511719</ele>
        <time>2013-03-01T13:14:42Z</time>
      </trkpt>
      <trkpt lat="45.38924" lon="6.64358">
        <ele>1907.9000244141</ele>
        <time>2013-03-01T13:14:49Z</time>
      </trkpt>
      <trkpt lat="45.38948" lon="6.64381">
        <ele>1902.6999511719</ele>
        <time>2013-03-01T13:14:54Z</time>
      </trkpt>
      <trkpt lat="45.38978" lon="6.64375">
        <ele>1899.6999511719</ele>
        <time>2013-03-01T13:15:02Z</time>
      </trkpt>
      <trkpt lat="45.39008" lon="6.64362">
        <ele>1881.6999511719</ele>
        <time>2013-03-01T13:15:07Z</time>
      </trkpt>
      <trkpt lat="45.39038" lon="6.64344">
        <ele>1880.8000488281</ele>
        <time>2013-03-01T13:15:11Z</time>
      </trkpt>
      <trkpt lat="45.39067" lon="6.64327">
        <ele>1879.4000244141</ele>
        <time>2013-03-01T13:15:14Z</time>
      </trkpt>
      <trkpt lat="45.39097" lon="6.64308">
        <ele>1872.0999755859</ele>
        <time>2013-03-01T13:15:18Z</time>
      </trkpt>
      <trkpt lat="45.39126" lon="6.64302">
        <ele>1865.0999755859</ele>
        <time>2013-03-01T13:15:22Z</time>
      </trkpt>
      <trkpt lat="45.39152" lon="6.6432">
        <ele>1857.5999755859</ele>
        <time>2013-03-01T13:15:26Z</time>
      </trkpt>
      <trkpt lat="45.39181" lon="6.64321">
        <ele>1850.5999755859</ele>
        <time>2013-03-01T13:15:32Z</time>
      </trkpt>
      <trkpt lat="45.39208" lon="6.64313">
        <ele>1846.9000244141</ele>
        <time>2013-03-01T13:15:40Z</time>
      </trkpt>
      <trkpt lat="45.39231" lon="6.64336">
        <ele>1840.0999755859</ele>
        <time>2013-03-01T13:16:41Z</time>
      </trkpt>
      <trkpt lat="45.39229" lon="6.64376">
        <ele>1832.6999511719</ele>
        <time>2013-03-01T13:17:03Z</time>
      </trkpt>
      <trkpt lat="45.39204" lon="6.644">
        <ele>1845.1999511719</ele>
        <time>2013-03-01T13:17:14Z</time>
      </trkpt>
      <trkpt lat="45.39184" lon="6.64426">
        <ele>1860</ele>
        <time>2013-03-01T13:17:23Z</time>
      </trkpt>
      <trkpt lat="45.39164" lon="6.64457">
        <ele>1875.6999511719</ele>
        <time>2013-03-01T13:17:32Z</time>
      </trkpt>
      <trkpt lat="45.39144" lon="6.64489">
        <ele>1892.9000244141</ele>
        <time>2013-03-01T13:17:42Z</time>
      </trkpt>
      <trkpt lat="45.39125" lon="6.6452">
        <ele>1910</ele>
        <time>2013-03-01T13:17:51Z</time>
      </trkpt>
      <trkpt lat="45.39107" lon="6.6455">
        <ele>1930.3000488281</ele>
        <time>2013-03-01T13:18:00Z</time>
      </trkpt>
      <trkpt lat="45.39087" lon="6.64581">
        <ele>1945.0999755859</ele>
        <time>2013-03-01T13:18:09Z</time>
      </trkpt>
      <trkpt lat="45.39067" lon="6.64614">
        <ele>1957.3000488281</ele>
        <time>2013-03-01T13:18:18Z</time>
      </trkpt>
      <trkpt lat="45.39047" lon="6.64646">
        <ele>1967.1999511719</ele>
        <time>2013-03-01T13:18:27Z</time>
      </trkpt>
      <trkpt lat="45.39028" lon="6.64677">
        <ele>1979.8000488281</ele>
        <time>2013-03-01T13:18:37Z</time>
      </trkpt>
      <trkpt lat="45.3901" lon="6.64713">
        <ele>1987.6999511719</ele>
        <time>2013-03-01T13:18:46Z</time>
      </trkpt>
      <trkpt lat="45.38993" lon="6.64747">
        <ele>1997.5</ele>
        <time>2013-03-01T13:18:54Z</time>
      </trkpt>
      <trkpt lat="45.38974" lon="6.64777">
        <ele>2012.5</ele>
        <time>2013-03-01T13:19:03Z</time>
      </trkpt>
      <trkpt lat="45.38953" lon="6.64808">
        <ele>2028.8999023438</ele>
        <time>2013-03-01T13:19:12Z</time>
      </trkpt>
      <trkpt lat="45.38931" lon="6.64832">
        <ele>2034.1999511719</ele>
        <time>2013-03-01T13:19:19Z</time>
      </trkpt>
      <trkpt lat="45.38913" lon="6.64863">
        <ele>2051.3000488281</ele>
        <time>2013-03-01T13:19:28Z</time>
      </trkpt>
      <trkpt lat="45.38893" lon="6.64895">
        <ele>2065.6000976562</ele>
        <time>2013-03-01T13:19:38Z</time>
      </trkpt>
      <trkpt lat="45.38875" lon="6.64924">
        <ele>2078.8999023438</ele>
        <time>2013-03-01T13:19:47Z</time>
      </trkpt>
      <trkpt lat="45.38855" lon="6.64952">
        <ele>2098.3999023438</ele>
        <time>2013-03-01T13:19:58Z</time>
      </trkpt>
      <trkpt lat="45.38838" lon="6.64983">
        <ele>2105.3000488281</ele>
        <time>2013-03-01T13:20:05Z</time>
      </trkpt>
      <trkpt lat="45.3882" lon="6.65018">
        <ele>2111.3999023438</ele>
        <time>2013-03-01T13:20:13Z</time>
      </trkpt>
      <trkpt lat="45.388" lon="6.65047">
        <ele>2117.6000976562</ele>
        <time>2013-03-01T13:20:20Z</time>
      </trkpt>
      <trkpt lat="45.38781" lon="6.65078">
        <ele>2123.5</ele>
        <time>2013-03-01T13:20:28Z</time>
      </trkpt>
      <trkpt lat="45.38761" lon="6.6511">
        <ele>2129.3999023438</ele>
        <time>2013-03-01T13:20:36Z</time>
      </trkpt>
      <trkpt lat="45.38742" lon="6.65139">
        <ele>2137.3000488281</ele>
        <time>2013-03-01T13:20:44Z</time>
      </trkpt>
      <trkpt lat="45.38722" lon="6.65172">
        <ele>2151.3999023438</ele>
        <time>2013-03-01T13:20:53Z</time>
      </trkpt>
      <trkpt lat="45.38704" lon="6.65207">
        <ele>2158.3999023438</ele>
        <time>2013-03-01T13:21:03Z</time>
      </trkpt>
      <trkpt lat="45.38685" lon="6.6524">
        <ele>2162.6000976562</ele>
        <time>2013-03-01T13:21:11Z</time>
      </trkpt>
      <trkpt lat="45.38667" lon="6.65271">
        <ele>2169.8999023438</ele>
        <time>2013-03-01T13:21:20Z</time>
      </trkpt>
      <trkpt lat="45.38648" lon="6.65302">
        <ele>2173.1999511719</ele>
        <time>2013-03-01T13:21:28Z</time>
      </trkpt>
      <trkpt lat="45.38627" lon="6.65333">
        <ele>2178</ele>
        <time>2013-03-01T13:21:36Z</time>
      </trkpt>
      <trkpt lat="45.38607" lon="6.65364">
        <ele>2182.8999023438</ele>
        <time>2013-03-01T13:21:44Z</time>
      </trkpt>
      <trkpt lat="45.38589" lon="6.65393">
        <ele>2189.1999511719</ele>
        <time>2013-03-01T13:21:51Z</time>
      </trkpt>
      <trkpt lat="45.38569" lon="6.65424">
        <ele>2191.6000976562</ele>
        <time>2013-03-01T13:22:02Z</time>
      </trkpt>
      <trkpt lat="45.38584" lon="6.65458">
        <ele>2204.8000488281</ele>
        <time>2013-03-01T13:22:23Z</time>
      </trkpt>
      <trkpt lat="45.38613" lon="6.65451">
        <ele>2201.1000976562</ele>
        <time>2013-03-01T13:22:30Z</time>
      </trkpt>
      <trkpt lat="45.38628" lon="6.6541">
        <ele>2188.8999023438</ele>
        <time>2013-03-01T13:22:40Z</time>
      </trkpt>
      <trkpt lat="45.38641" lon="6.65368">
        <ele>2175.1999511719</ele>
        <time>2013-03-01T13:22:45Z</time>
      </trkpt>
      <trkpt lat="45.38655" lon="6.65334">
        <ele>2163.5</ele>
        <time>2013-03-01T13:22:49Z</time>
      </trkpt>
      <trkpt lat="45.38681" lon="6.65319">
        <ele>2159.3000488281</ele>
        <time>2013-03-01T13:23:30Z</time>
      </trkpt>
      <trkpt lat="45.38712" lon="6.65328">
        <ele>2152.1000976562</ele>
        <time>2013-03-01T13:23:40Z</time>
      </trkpt>
      <trkpt lat="45.3874" lon="6.65299">
        <ele>2149.6999511719</ele>
        <time>2013-03-01T13:23:45Z</time>
      </trkpt>
      <trkpt lat="45.38738" lon="6.65256">
        <ele>2150.8000488281</ele>
        <time>2013-03-01T13:23:49Z</time>
      </trkpt>
      <trkpt lat="45.38743" lon="6.65215">
        <ele>2148.6999511719</ele>
        <time>2013-03-01T13:23:54Z</time>
      </trkpt>
      <trkpt lat="45.38753" lon="6.65178">
        <ele>2143.1999511719</ele>
        <time>2013-03-01T13:23:58Z</time>
      </trkpt>
      <trkpt lat="45.38759" lon="6.65136">
        <ele>2136.1999511719</ele>
        <time>2013-03-01T13:24:04Z</time>
      </trkpt>
      <trkpt lat="45.38764" lon="6.65085">
        <ele>2124.8000488281</ele>
        <time>2013-03-01T13:24:08Z</time>
      </trkpt>
      <trkpt lat="45.38762" lon="6.65043">
        <ele>2121.1999511719</ele>
        <time>2013-03-01T13:24:12Z</time>
      </trkpt>
      <trkpt lat="45.38759" lon="6.65">
        <ele>2112.5</ele>
        <time>2013-03-01T13:24:20Z</time>
      </trkpt>
      <trkpt lat="45.38764" lon="6.64962">
        <ele>2108.6000976562</ele>
        <time>2013-03-01T13:24:27Z</time>
      </trkpt>
      <trkpt lat="45.38768" lon="6.64917">
        <ele>2103.3000488281</ele>
        <time>2013-03-01T13:24:31Z</time>
      </trkpt>
      <trkpt lat="45.38765" lon="6.64873">
        <ele>2099.8000488281</ele>
        <time>2013-03-01T13:24:37Z</time>
      </trkpt>
      <trkpt lat="45.38766" lon="6.64829">
        <ele>2089.1999511719</ele>
        <time>2013-03-01T13:25:47Z</time>
      </trkpt>
      <trkpt lat="45.38765" lon="6.64788">
        <ele>2082.6000976562</ele>
        <time>2013-03-01T13:25:51Z</time>
      </trkpt>
      <trkpt lat="45.38766" lon="6.64743">
        <ele>2084.1999511719</ele>
        <time>2013-03-01T13:25:56Z</time>
      </trkpt>
      <trkpt lat="45.38764" lon="6.64699">
        <ele>2081.5</ele>
        <time>2013-03-01T13:26:02Z</time>
      </trkpt>
      <trkpt lat="45.38768" lon="6.64659">
        <ele>2075.3999023438</ele>
        <time>2013-03-01T13:26:08Z</time>
      </trkpt>
      <trkpt lat="45.38772" lon="6.6462">
        <ele>2067.3999023438</ele>
        <time>2013-03-01T13:26:14Z</time>
      </trkpt>
      <trkpt lat="45.38768" lon="6.64578">
        <ele>2062.1999511719</ele>
        <time>2013-03-01T13:26:23Z</time>
      </trkpt>
      <trkpt lat="45.38773" lon="6.64538">
        <ele>2043</ele>
        <time>2013-03-01T13:26:34Z</time>
      </trkpt>
      <trkpt lat="45.38767" lon="6.645">
        <ele>2027.8000488281</ele>
        <time>2013-03-01T13:26:50Z</time>
      </trkpt>
      <trkpt lat="45.38769" lon="6.64459">
        <ele>2018.1999511719</ele>
        <time>2013-03-01T13:26:57Z</time>
      </trkpt>
      <trkpt lat="45.38763" lon="6.6442">
        <ele>2006.8999023438</ele>
        <time>2013-03-01T13:27:03Z</time>
      </trkpt>
      <trkpt lat="45.38775" lon="6.64383">
        <ele>1989.0999755859</ele>
        <time>2013-03-01T13:27:12Z</time>
      </trkpt>
      <trkpt lat="45.38801" lon="6.64369">
        <ele>1971.4000244141</ele>
        <time>2013-03-01T13:27:22Z</time>
      </trkpt>
      <trkpt lat="45.38826" lon="6.6434">
        <ele>1942.4000244141</ele>
        <time>2013-03-01T13:27:31Z</time>
      </trkpt>
      <trkpt lat="45.38856" lon="6.64336">
        <ele>1915.9000244141</ele>
        <time>2013-03-01T13:29:16Z</time>
      </trkpt>
      <trkpt lat="45.38885" lon="6.64339">
        <ele>1905.5999755859</ele>
        <time>2013-03-01T13:29:24Z</time>
      </trkpt>
      <trkpt lat="45.38908" lon="6.64368">
        <ele>1902.3000488281</ele>
        <time>2013-03-01T13:29:28Z</time>
      </trkpt>
      <trkpt lat="45.38931" lon="6.64393">
        <ele>1899.1999511719</ele>
        <time>2013-03-01T13:29:33Z</time>
      </trkpt>
      <trkpt lat="45.38958" lon="6.64396">
        <ele>1895.3000488281</ele>
        <time>2013-03-01T13:29:43Z</time>
      </trkpt>
      <trkpt lat="45.38982" lon="6.64366">
        <ele>1871.1999511719</ele>
        <time>2013-03-01T13:30:05Z</time>
      </trkpt>
      <trkpt lat="45.3901" lon="6.64359">
        <ele>1871.5</ele>
        <time>2013-03-01T13:30:10Z</time>
      </trkpt>
      <trkpt lat="45.39033" lon="6.64334">
        <ele>1871.0999755859</ele>
        <time>2013-03-01T13:30:13Z</time>
      </trkpt>
      <trkpt lat="45.39071" lon="6.6432">
        <ele>1868.5</ele>
        <time>2013-03-01T13:30:17Z</time>
      </trkpt>
      <trkpt lat="45.39105" lon="6.64311">
        <ele>1862.1999511719</ele>
        <time>2013-03-01T13:30:21Z</time>
      </trkpt>
      <trkpt lat="45.39133" lon="6.64312">
        <ele>1856.0999755859</ele>
        <time>2013-03-01T13:30:25Z</time>
      </trkpt>
      <trkpt lat="45.39159" lon="6.64328">
        <ele>1851.8000488281</ele>
        <time>2013-03-01T13:30:29Z</time>
      </trkpt>
      <trkpt lat="45.39187" lon="6.64322">
        <ele>1846.6999511719</ele>
        <time>2013-03-01T13:30:34Z</time>
      </trkpt>
      <trkpt lat="45.39212" lon="6.643">
        <ele>1844.5</ele>
        <time>2013-03-01T13:30:43Z</time>
      </trkpt>
      <trkpt lat="45.39214" lon="6.6426">
        <ele>1836.3000488281</ele>
        <time>2013-03-01T13:31:32Z</time>
      </trkpt>
      <trkpt lat="45.39194" lon="6.64231">
        <ele>1817</ele>
        <time>2013-03-01T13:33:36Z</time>
      </trkpt>
      <trkpt lat="45.39176" lon="6.64198">
        <ele>1824.4000244141</ele>
        <time>2013-03-01T13:33:43Z</time>
      </trkpt>
      <trkpt lat="45.3916" lon="6.64165">
        <ele>1833.4000244141</ele>
        <time>2013-03-01T13:33:52Z</time>
      </trkpt>
      <trkpt lat="45.39144" lon="6.64133">
        <ele>1846.3000488281</ele>
        <time>2013-03-01T13:34:01Z</time>
      </trkpt>
      <trkpt lat="45.39129" lon="6.64097">
        <ele>1858.8000488281</ele>
        <time>2013-03-01T13:34:09Z</time>
      </trkpt>
      <trkpt lat="45.39112" lon="6.64063">
        <ele>1874.9000244141</ele>
        <time>2013-03-01T13:34:19Z</time>
      </trkpt>
      <trkpt lat="45.39096" lon="6.64029">
        <ele>1890</ele>
        <time>2013-03-01T13:34:28Z</time>
      </trkpt>
      <trkpt lat="45.3908" lon="6.63996">
        <ele>1905.5</ele>
        <time>2013-03-01T13:34:37Z</time>
      </trkpt>
      <trkpt lat="45.39065" lon="6.63962">
        <ele>1921.6999511719</ele>
        <time>2013-03-01T13:34:45Z</time>
      </trkpt>
      <trkpt lat="45.39048" lon="6.63928">
        <ele>1932.4000244141</ele>
        <time>2013-03-01T13:34:54Z</time>
      </trkpt>
      <trkpt lat="45.39033" lon="6.63891">
        <ele>1946.9000244141</ele>
        <time>2013-03-01T13:35:02Z</time>
      </trkpt>
      <trkpt lat="45.39019" lon="6.63855">
        <ele>1961.9000244141</ele>
        <time>2013-03-01T13:35:11Z</time>
      </trkpt>
      <trkpt lat="45.39001" lon="6.6382">
        <ele>1975.1999511719</ele>
        <time>2013-03-01T13:35:20Z</time>
      </trkpt>
      <trkpt lat="45.38985" lon="6.63787">
        <ele>1992</ele>
        <time>2013-03-01T13:35:29Z</time>
      </trkpt>
      <trkpt lat="45.38968" lon="6.63753">
        <ele>2007.8999023438</ele>
        <time>2013-03-01T13:35:38Z</time>
      </trkpt>
      <trkpt lat="45.38952" lon="6.63719">
        <ele>2013.8000488281</ele>
        <time>2013-03-01T13:35:48Z</time>
      </trkpt>
      <trkpt lat="45.38934" lon="6.63686">
        <ele>2020.8999023438</ele>
        <time>2013-03-01T13:35:58Z</time>
      </trkpt>
      <trkpt lat="45.38917" lon="6.6365">
        <ele>2031.3999023438</ele>
        <time>2013-03-01T13:36:08Z</time>
      </trkpt>
      <trkpt lat="45.38899" lon="6.63614">
        <ele>2038.6000976562</ele>
        <time>2013-03-01T13:36:17Z</time>
      </trkpt>
      <trkpt lat="45.38884" lon="6.63578">
        <ele>2051</ele>
        <time>2013-03-01T13:36:26Z</time>
      </trkpt>
      <trkpt lat="45.38869" lon="6.63542">
        <ele>2057.3999023438</ele>
        <time>2013-03-01T13:36:35Z</time>
      </trkpt>
      <trkpt lat="45.38852" lon="6.63506">
        <ele>2069</ele>
        <time>2013-03-01T13:36:45Z</time>
      </trkpt>
      <trkpt lat="45.38837" lon="6.63469">
        <ele>2077.3999023438</ele>
        <time>2013-03-01T13:36:54Z</time>
      </trkpt>
      <trkpt lat="45.38821" lon="6.63435">
        <ele>2089.5</ele>
        <time>2013-03-01T13:37:02Z</time>
      </trkpt>
      <trkpt lat="45.38807" lon="6.63401">
        <ele>2108</ele>
        <time>2013-03-01T13:37:10Z</time>
      </trkpt>
      <trkpt lat="45.38791" lon="6.63365">
        <ele>2125</ele>
        <time>2013-03-01T13:37:19Z</time>
      </trkpt>
      <trkpt lat="45.38774" lon="6.63333">
        <ele>2132.1000976562</ele>
        <time>2013-03-01T13:37:26Z</time>
      </trkpt>
      <trkpt lat="45.38758" lon="6.63297">
        <ele>2145.3999023438</ele>
        <time>2013-03-01T13:37:35Z</time>
      </trkpt>
      <trkpt lat="45.38745" lon="6.6326">
        <ele>2158.6000976562</ele>
        <time>2013-03-01T13:37:44Z</time>
      </trkpt>
      <trkpt lat="45.38731" lon="6.63224">
        <ele>2174.8000488281</ele>
        <time>2013-03-01T13:37:51Z</time>
      </trkpt>
      <trkpt lat="45.38714" lon="6.6319">
        <ele>2188.1000976562</ele>
        <time>2013-03-01T13:38:00Z</time>
      </trkpt>
      <trkpt lat="45.38698" lon="6.63154">
        <ele>2198.3000488281</ele>
        <time>2013-03-01T13:38:07Z</time>
      </trkpt>
      <trkpt lat="45.38684" lon="6.63117">
        <ele>2213.3000488281</ele>
        <time>2013-03-01T13:38:16Z</time>
      </trkpt>
      <trkpt lat="45.38666" lon="6.63086">
        <ele>2222.6000976562</ele>
        <time>2013-03-01T13:38:25Z</time>
      </trkpt>
      <trkpt lat="45.3865" lon="6.6305">
        <ele>2234.8999023438</ele>
        <time>2013-03-01T13:38:34Z</time>
      </trkpt>
      <trkpt lat="45.38634" lon="6.63015">
        <ele>2248.8999023438</ele>
        <time>2013-03-01T13:38:43Z</time>
      </trkpt>
      <trkpt lat="45.38619" lon="6.62981">
        <ele>2258.1000976562</ele>
        <time>2013-03-01T13:38:51Z</time>
      </trkpt>
      <trkpt lat="45.38603" lon="6.62944">
        <ele>2265.6000976562</ele>
        <time>2013-03-01T13:39:01Z</time>
      </trkpt>
      <trkpt lat="45.38586" lon="6.62908">
        <ele>2280.5</ele>
        <time>2013-03-01T13:39:10Z</time>
      </trkpt>
      <trkpt lat="45.38571" lon="6.62874">
        <ele>2294.8000488281</ele>
        <time>2013-03-01T13:39:18Z</time>
      </trkpt>
      <trkpt lat="45.38556" lon="6.62841">
        <ele>2310.3000488281</ele>
        <time>2013-03-01T13:39:26Z</time>
      </trkpt>
      <trkpt lat="45.38539" lon="6.62804">
        <ele>2326.6000976562</ele>
        <time>2013-03-01T13:39:35Z</time>
      </trkpt>
      <trkpt lat="45.38523" lon="6.6277">
        <ele>2341.6000976562</ele>
        <time>2013-03-01T13:39:44Z</time>
      </trkpt>
      <trkpt lat="45.38507" lon="6.62737">
        <ele>2350.5</ele>
        <time>2013-03-01T13:39:53Z</time>
      </trkpt>
      <trkpt lat="45.3849" lon="6.62706">
        <ele>2360.5</ele>
        <time>2013-03-01T13:40:02Z</time>
      </trkpt>
      <trkpt lat="45.38474" lon="6.62669">
        <ele>2368.5</ele>
        <time>2013-03-01T13:40:12Z</time>
      </trkpt>
      <trkpt lat="45.38459" lon="6.62635">
        <ele>2376.1000976562</ele>
        <time>2013-03-01T13:40:19Z</time>
      </trkpt>
      <trkpt lat="45.38444" lon="6.62602">
        <ele>2375.1999511719</ele>
        <time>2013-03-01T13:40:27Z</time>
      </trkpt>
      <trkpt lat="45.38428" lon="6.62567">
        <ele>2377.8999023438</ele>
        <time>2013-03-01T13:40:35Z</time>
      </trkpt>
      <trkpt lat="45.38411" lon="6.62529">
        <ele>2384.6000976562</ele>
        <time>2013-03-01T13:40:43Z</time>
      </trkpt>
      <trkpt lat="45.38396" lon="6.62494">
        <ele>2390.6000976562</ele>
        <time>2013-03-01T13:40:51Z</time>
      </trkpt>
      <trkpt lat="45.3838" lon="6.6246">
        <ele>2395.3999023438</ele>
        <time>2013-03-01T13:40:59Z</time>
      </trkpt>
      <trkpt lat="45.38364" lon="6.62426">
        <ele>2401.1000976562</ele>
        <time>2013-03-01T13:41:07Z</time>
      </trkpt>
      <trkpt lat="45.38347" lon="6.62389">
        <ele>2404.1999511719</ele>
        <time>2013-03-01T13:41:16Z</time>
      </trkpt>
      <trkpt lat="45.3833" lon="6.62357">
        <ele>2406.1999511719</ele>
        <time>2013-03-01T13:41:26Z</time>
      </trkpt>
      <trkpt lat="45.38358" lon="6.62364">
        <ele>2409.1999511719</ele>
        <time>2013-03-01T13:42:27Z</time>
      </trkpt>
      <trkpt lat="45.38371" lon="6.62402">
        <ele>2405.1999511719</ele>
        <time>2013-03-01T13:42:36Z</time>
      </trkpt>
      <trkpt lat="45.38391" lon="6.62434">
        <ele>2402.6000976562</ele>
        <time>2013-03-01T13:42:43Z</time>
      </trkpt>
      <trkpt lat="45.38406" lon="6.62469">
        <ele>2400.1999511719</ele>
        <time>2013-03-01T13:42:50Z</time>
      </trkpt>
      <trkpt lat="45.38423" lon="6.625">
        <ele>2395</ele>
        <time>2013-03-01T13:42:55Z</time>
      </trkpt>
      <trkpt lat="45.38433" lon="6.62541">
        <ele>2391.8999023438</ele>
        <time>2013-03-01T13:43:02Z</time>
      </trkpt>
      <trkpt lat="45.38448" lon="6.62575">
        <ele>2386.1000976562</ele>
        <time>2013-03-01T13:43:18Z</time>
      </trkpt>
      <trkpt lat="45.3846" lon="6.62614">
        <ele>2384.6999511719</ele>
        <time>2013-03-01T13:43:24Z</time>
      </trkpt>
      <trkpt lat="45.38462" lon="6.62654">
        <ele>2381.6999511719</ele>
        <time>2013-03-01T13:43:31Z</time>
      </trkpt>
      <trkpt lat="45.3848" lon="6.62697">
        <ele>2379.8999023438</ele>
        <time>2013-03-01T13:43:36Z</time>
      </trkpt>
      <trkpt lat="45.38505" lon="6.62726">
        <ele>2353.3999023438</ele>
        <time>2013-03-01T13:44:43Z</time>
      </trkpt>
      <trkpt lat="45.3852" lon="6.62764">
        <ele>2342.5</ele>
        <time>2013-03-01T13:44:49Z</time>
      </trkpt>
      <trkpt lat="45.38532" lon="6.62801">
        <ele>2328.3000488281</ele>
        <time>2013-03-01T13:44:55Z</time>
      </trkpt>
      <trkpt lat="45.38544" lon="6.62841">
        <ele>2318.6000976562</ele>
        <time>2013-03-01T13:45:00Z</time>
      </trkpt>
      <trkpt lat="45.38559" lon="6.62874">
        <ele>2309.1999511719</ele>
        <time>2013-03-01T13:45:05Z</time>
      </trkpt>
      <trkpt lat="45.38571" lon="6.62913">
        <ele>2299.6000976562</ele>
        <time>2013-03-01T13:45:09Z</time>
      </trkpt>
      <trkpt lat="45.38597" lon="6.62929">
        <ele>2294.6000976562</ele>
        <time>2013-03-01T13:45:13Z</time>
      </trkpt>
      <trkpt lat="45.3862" lon="6.62953">
        <ele>2284.8999023438</ele>
        <time>2013-03-01T13:45:18Z</time>
      </trkpt>
      <trkpt lat="45.38633" lon="6.6299">
        <ele>2270</ele>
        <time>2013-03-01T13:46:24Z</time>
      </trkpt>
      <trkpt lat="45.38645" lon="6.63027">
        <ele>2261.3000488281</ele>
        <time>2013-03-01T13:46:29Z</time>
      </trkpt>
      <trkpt lat="45.38663" lon="6.6306">
        <ele>2258.3999023438</ele>
        <time>2013-03-01T13:46:35Z</time>
      </trkpt>
      <trkpt lat="45.3867" lon="6.63099">
        <ele>2253.6999511719</ele>
        <time>2013-03-01T13:46:39Z</time>
      </trkpt>
      <trkpt lat="45.38699" lon="6.63127">
        <ele>2243.3000488281</ele>
        <time>2013-03-01T13:46:45Z</time>
      </trkpt>
      <trkpt lat="45.38711" lon="6.63168">
        <ele>2232.3000488281</ele>
        <time>2013-03-01T13:46:49Z</time>
      </trkpt>
      <trkpt lat="45.38723" lon="6.63207">
        <ele>2214</ele>
        <time>2013-03-01T13:46:54Z</time>
      </trkpt>
      <trkpt lat="45.38745" lon="6.63237">
        <ele>2204.5</ele>
        <time>2013-03-01T13:46:59Z</time>
      </trkpt>
      <trkpt lat="45.3876" lon="6.63277">
        <ele>2189.5</ele>
        <time>2013-03-01T13:47:04Z</time>
      </trkpt>
      <trkpt lat="45.38776" lon="6.63314">
        <ele>2179.5</ele>
        <time>2013-03-01T13:47:09Z</time>
      </trkpt>
      <trkpt lat="45.38801" lon="6.63331">
        <ele>2155.8000488281</ele>
        <time>2013-03-01T13:49:12Z</time>
      </trkpt>
      <trkpt lat="45.38823" lon="6.63366">
        <ele>2145.3000488281</ele>
        <time>2013-03-01T13:49:26Z</time>
      </trkpt>
      <trkpt lat="45.38846" lon="6.63393">
        <ele>2144.8000488281</ele>
        <time>2013-03-01T13:49:30Z</time>
      </trkpt>
      <trkpt lat="45.38842" lon="6.63437">
        <ele>2139.6000976562</ele>
        <time>2013-03-01T13:49:34Z</time>
      </trkpt>
      <trkpt lat="45.38839" lon="6.63484">
        <ele>2135.6000976562</ele>
        <time>2013-03-01T13:49:37Z</time>
      </trkpt>
      <trkpt lat="45.38867" lon="6.635">
        <ele>2125.8000488281</ele>
        <time>2013-03-01T13:49:40Z</time>
      </trkpt>
      <trkpt lat="45.38894" lon="6.63533">
        <ele>2119.5</ele>
        <time>2013-03-01T13:49:44Z</time>
      </trkpt>
      <trkpt lat="45.38913" lon="6.6357">
        <ele>2112.6999511719</ele>
        <time>2013-03-01T13:49:48Z</time>
      </trkpt>
      <trkpt lat="45.3893" lon="6.63601">
        <ele>2090</ele>
        <time>2013-03-01T13:49:53Z</time>
      </trkpt>
      <trkpt lat="45.38949" lon="6.63638">
        <ele>2074.8999023438</ele>
        <time>2013-03-01T13:49:58Z</time>
      </trkpt>
      <trkpt lat="45.38964" lon="6.63672">
        <ele>2043.8999023438</ele>
        <time>2013-03-01T13:50:41Z</time>
      </trkpt>
      <trkpt lat="45.38956" lon="6.6371">
        <ele>2022.3000488281</ele>
        <time>2013-03-01T13:51:29Z</time>
      </trkpt>
      <trkpt lat="45.38974" lon="6.63748">
        <ele>2008</ele>
        <time>2013-03-01T13:51:35Z</time>
      </trkpt>
      <trkpt lat="45.38994" lon="6.63778">
        <ele>2007.5</ele>
        <time>2013-03-01T13:51:41Z</time>
      </trkpt>
      <trkpt lat="45.38991" lon="6.63822">
        <ele>2002.1000976562</ele>
        <time>2013-03-01T13:51:46Z</time>
      </trkpt>
      <trkpt lat="45.39003" lon="6.63861">
        <ele>1994.4000244141</ele>
        <time>2013-03-01T13:51:52Z</time>
      </trkpt>
      <trkpt lat="45.39026" lon="6.6389">
        <ele>1988.0999755859</ele>
        <time>2013-03-01T13:51:57Z</time>
      </trkpt>
      <trkpt lat="45.39051" lon="6.63907">
        <ele>1958.0999755859</ele>
        <time>2013-03-01T13:53:24Z</time>
      </trkpt>
      <trkpt lat="45.39053" lon="6.63947">
        <ele>1951.6999511719</ele>
        <time>2013-03-01T13:53:33Z</time>
      </trkpt>
      <trkpt lat="45.39064" lon="6.63986">
        <ele>1946.0999755859</ele>
        <time>2013-03-01T13:53:39Z</time>
      </trkpt>
      <trkpt lat="45.39084" lon="6.64017">
        <ele>1928.5999755859</ele>
        <time>2013-03-01T13:53:50Z</time>
      </trkpt>
      <trkpt lat="45.39108" lon="6.64037">
        <ele>1913.1999511719</ele>
        <time>2013-03-01T13:54:17Z</time>
      </trkpt>
      <trkpt lat="45.39122" lon="6.64077">
        <ele>1887.0999755859</ele>
        <time>2013-03-01T13:54:47Z</time>
      </trkpt>
      <trkpt lat="45.39143" lon="6.64113">
        <ele>1881.1999511719</ele>
        <time>2013-03-01T13:54:52Z</time>
      </trkpt>
      <trkpt lat="45.39119" lon="6.64142">
        <ele>1872.4000244141</ele>
        <time>2013-03-01T13:54:58Z</time>
      </trkpt>
      <trkpt lat="45.39125" lon="6.64184">
        <ele>1863.8000488281</ele>
        <time>2013-03-01T13:55:03Z</time>
      </trkpt>
      <trkpt lat="45.39146" lon="6.64211">
        <ele>1856.8000488281</ele>
        <time>2013-03-01T13:55:06Z</time>
      </trkpt>
      <trkpt lat="45.39169" lon="6.64241">
        <ele>1852</ele>
        <time>2013-03-01T13:55:09Z</time>
      </trkpt>
      <trkpt lat="45.39191" lon="6.64266">
        <ele>1849</ele>
        <time>2013-03-01T13:55:12Z</time>
      </trkpt>
      <trkpt lat="45.39213" lon="6.64301">
        <ele>1846.0999755859</ele>
        <time>2013-03-01T13:55:16Z</time>
      </trkpt>
      <trkpt lat="45.39215" lon="6.64261">
        <ele>1839.9000244141</ele>
        <time>2013-03-01T13:57:47Z</time>
      </trkpt>
      <trkpt lat="45.39197" lon="6.64231">
        <ele>1845.0999755859</ele>
        <time>2013-03-01T14:00:14Z</time>
      </trkpt>
      <trkpt lat="45.39181" lon="6.6419">
        <ele>1849.3000488281</ele>
        <time>2013-03-01T14:00:20Z</time>
      </trkpt>
      <trkpt lat="45.39163" lon="6.64154">
        <ele>1861.5999755859</ele>
        <time>2013-03-01T14:00:26Z</time>
      </trkpt>
      <trkpt lat="45.39147" lon="6.6412">
        <ele>1877.6999511719</ele>
        <time>2013-03-01T14:00:34Z</time>
      </trkpt>
      <trkpt lat="45.39131" lon="6.64086">
        <ele>1889.5</ele>
        <time>2013-03-01T14:00:42Z</time>
      </trkpt>
      <trkpt lat="45.39114" lon="6.6405">
        <ele>1903</ele>
        <time>2013-03-01T14:00:51Z</time>
      </trkpt>
      <trkpt lat="45.39098" lon="6.64015">
        <ele>1921.4000244141</ele>
        <time>2013-03-01T14:01:00Z</time>
      </trkpt>
      <trkpt lat="45.39082" lon="6.63982">
        <ele>1935.6999511719</ele>
        <time>2013-03-01T14:01:09Z</time>
      </trkpt>
      <trkpt lat="45.39066" lon="6.63949">
        <ele>1951.5999755859</ele>
        <time>2013-03-01T14:01:17Z</time>
      </trkpt>
      <trkpt lat="45.3905" lon="6.63913">
        <ele>1964.3000488281</ele>
        <time>2013-03-01T14:01:26Z</time>
      </trkpt>
      <trkpt lat="45.39034" lon="6.6388">
        <ele>1973.3000488281</ele>
        <time>2013-03-01T14:01:34Z</time>
      </trkpt>
      <trkpt lat="45.39018" lon="6.63847">
        <ele>1983.3000488281</ele>
        <time>2013-03-01T14:01:42Z</time>
      </trkpt>
      <trkpt lat="45.39003" lon="6.63812">
        <ele>1993</ele>
        <time>2013-03-01T14:01:51Z</time>
      </trkpt>
      <trkpt lat="45.38986" lon="6.63776">
        <ele>2009.3000488281</ele>
        <time>2013-03-01T14:02:00Z</time>
      </trkpt>
      <trkpt lat="45.38972" lon="6.63743">
        <ele>2023</ele>
        <time>2013-03-01T14:02:08Z</time>
      </trkpt>
      <trkpt lat="45.38956" lon="6.63709">
        <ele>2034.3000488281</ele>
        <time>2013-03-01T14:02:16Z</time>
      </trkpt>
      <trkpt lat="45.38941" lon="6.63676">
        <ele>2047</ele>
        <time>2013-03-01T14:02:24Z</time>
      </trkpt>
      <trkpt lat="45.38924" lon="6.6364">
        <ele>2060.1999511719</ele>
        <time>2013-03-01T14:02:33Z</time>
      </trkpt>
      <trkpt lat="45.38909" lon="6.63607">
        <ele>2069.5</ele>
        <time>2013-03-01T14:02:41Z</time>
      </trkpt>
      <trkpt lat="45.38893" lon="6.63573">
        <ele>2081.8999023438</ele>
        <time>2013-03-01T14:02:49Z</time>
      </trkpt>
      <trkpt lat="45.38877" lon="6.63539">
        <ele>2093.6000976562</ele>
        <time>2013-03-01T14:02:57Z</time>
      </trkpt>
      <trkpt lat="45.38862" lon="6.63505">
        <ele>2100.8000488281</ele>
        <time>2013-03-01T14:03:06Z</time>
      </trkpt>
      <trkpt lat="45.38844" lon="6.6347">
        <ele>2113.6999511719</ele>
        <time>2013-03-01T14:03:14Z</time>
      </trkpt>
      <trkpt lat="45.38832" lon="6.63435">
        <ele>2122.8999023438</ele>
        <time>2013-03-01T14:03:23Z</time>
      </trkpt>
      <trkpt lat="45.38816" lon="6.634">
        <ele>2133.3999023438</ele>
        <time>2013-03-01T14:03:31Z</time>
      </trkpt>
      <trkpt lat="45.38798" lon="6.63367">
        <ele>2148.3000488281</ele>
        <time>2013-03-01T14:03:39Z</time>
      </trkpt>
      <trkpt lat="45.38781" lon="6.63333">
        <ele>2158.1000976562</ele>
        <time>2013-03-01T14:03:47Z</time>
      </trkpt>
      <trkpt lat="45.38766" lon="6.63299">
        <ele>2167.8999023438</ele>
        <time>2013-03-01T14:03:55Z</time>
      </trkpt>
      <trkpt lat="45.38749" lon="6.63266">
        <ele>2179.1000976562</ele>
        <time>2013-03-01T14:04:03Z</time>
      </trkpt>
      <trkpt lat="45.38733" lon="6.63232">
        <ele>2187.1999511719</ele>
        <time>2013-03-01T14:04:12Z</time>
      </trkpt>
      <trkpt lat="45.38717" lon="6.63199">
        <ele>2193.5</ele>
        <time>2013-03-01T14:04:20Z</time>
      </trkpt>
      <trkpt lat="45.38703" lon="6.63164">
        <ele>2206.3000488281</ele>
        <time>2013-03-01T14:04:28Z</time>
      </trkpt>
      <trkpt lat="45.38689" lon="6.63129">
        <ele>2217.6999511719</ele>
        <time>2013-03-01T14:04:36Z</time>
      </trkpt>
      <trkpt lat="45.38675" lon="6.63096">
        <ele>2232</ele>
        <time>2013-03-01T14:04:44Z</time>
      </trkpt>
      <trkpt lat="45.3866" lon="6.63063">
        <ele>2247.1999511719</ele>
        <time>2013-03-01T14:04:52Z</time>
      </trkpt>
      <trkpt lat="45.38645" lon="6.63029">
        <ele>2259.1000976562</ele>
        <time>2013-03-01T14:05:00Z</time>
      </trkpt>
      <trkpt lat="45.38629" lon="6.62995">
        <ele>2271.3000488281</ele>
        <time>2013-03-01T14:05:08Z</time>
      </trkpt>
      <trkpt lat="45.38613" lon="6.62962">
        <ele>2283.8999023438</ele>
        <time>2013-03-01T14:05:16Z</time>
      </trkpt>
      <trkpt lat="45.38598" lon="6.62927">
        <ele>2295</ele>
        <time>2013-03-01T14:05:24Z</time>
      </trkpt>
      <trkpt lat="45.38583" lon="6.62894">
        <ele>2303.3000488281</ele>
        <time>2013-03-01T14:05:32Z</time>
      </trkpt>
      <trkpt lat="45.38566" lon="6.6286">
        <ele>2313.1000976562</ele>
        <time>2013-03-01T14:05:42Z</time>
      </trkpt>
      <trkpt lat="45.38555" lon="6.62823">
        <ele>2319.6000976562</ele>
        <time>2013-03-01T14:05:51Z</time>
      </trkpt>
      <trkpt lat="45.38538" lon="6.62791">
        <ele>2335.6000976562</ele>
        <time>2013-03-01T14:06:00Z</time>
      </trkpt>
      <trkpt lat="45.3852" lon="6.62755">
        <ele>2350.1000976562</ele>
        <time>2013-03-01T14:06:08Z</time>
      </trkpt>
      <trkpt lat="45.38504" lon="6.62723">
        <ele>2362.1999511719</ele>
        <time>2013-03-01T14:06:16Z</time>
      </trkpt>
      <trkpt lat="45.38487" lon="6.62688">
        <ele>2372.3000488281</ele>
        <time>2013-03-01T14:06:23Z</time>
      </trkpt>
      <trkpt lat="45.38473" lon="6.62651">
        <ele>2382.5</ele>
        <time>2013-03-01T14:06:32Z</time>
      </trkpt>
      <trkpt lat="45.38457" lon="6.62617">
        <ele>2383.3000488281</ele>
        <time>2013-03-01T14:06:39Z</time>
      </trkpt>
      <trkpt lat="45.3844" lon="6.62584">
        <ele>2386.1999511719</ele>
        <time>2013-03-01T14:06:48Z</time>
      </trkpt>
      <trkpt lat="45.38423" lon="6.62551">
        <ele>2387.3999023438</ele>
        <time>2013-03-01T14:06:55Z</time>
      </trkpt>
      <trkpt lat="45.38407" lon="6.62515">
        <ele>2387.8000488281</ele>
        <time>2013-03-01T14:07:03Z</time>
      </trkpt>
      <trkpt lat="45.3839" lon="6.6248">
        <ele>2389.8000488281</ele>
        <time>2013-03-01T14:07:11Z</time>
      </trkpt>
      <trkpt lat="45.38374" lon="6.62442">
        <ele>2393.1999511719</ele>
        <time>2013-03-01T14:07:20Z</time>
      </trkpt>
      <trkpt lat="45.38357" lon="6.62406">
        <ele>2399.3000488281</ele>
        <time>2013-03-01T14:07:28Z</time>
      </trkpt>
      <trkpt lat="45.38337" lon="6.62367">
        <ele>2405.1999511719</ele>
        <time>2013-03-01T14:07:37Z</time>
      </trkpt>
      <trkpt lat="45.38332" lon="6.62328">
        <ele>2410.1999511719</ele>
        <time>2013-03-01T14:10:32Z</time>
      </trkpt>
      <trkpt lat="45.38361" lon="6.62339">
        <ele>2410.5</ele>
        <time>2013-03-01T14:10:49Z</time>
      </trkpt>
      <trkpt lat="45.38387" lon="6.62322">
        <ele>2408.6000976562</ele>
        <time>2013-03-01T14:10:55Z</time>
      </trkpt>
      <trkpt lat="45.38415" lon="6.62318">
        <ele>2397.6000976562</ele>
        <time>2013-03-01T14:11:03Z</time>
      </trkpt>
      <trkpt lat="45.38442" lon="6.62328">
        <ele>2386.3000488281</ele>
        <time>2013-03-01T14:11:09Z</time>
      </trkpt>
      <trkpt lat="45.3845" lon="6.62368">
        <ele>2383.8000488281</ele>
        <time>2013-03-01T14:11:13Z</time>
      </trkpt>
      <trkpt lat="45.38472" lon="6.62395">
        <ele>2392.6999511719</ele>
        <time>2013-03-01T14:11:43Z</time>
      </trkpt>
      <trkpt lat="45.385" lon="6.62401">
        <ele>2370.3000488281</ele>
        <time>2013-03-01T14:11:54Z</time>
      </trkpt>
      <trkpt lat="45.38527" lon="6.6239">
        <ele>2358.8999023438</ele>
        <time>2013-03-01T14:11:59Z</time>
      </trkpt>
      <trkpt lat="45.38558" lon="6.62405">
        <ele>2348.8000488281</ele>
        <time>2013-03-01T14:12:04Z</time>
      </trkpt>
      <trkpt lat="45.38582" lon="6.62435">
        <ele>2329</ele>
        <time>2013-03-01T14:12:10Z</time>
      </trkpt>
      <trkpt lat="45.38587" lon="6.6248">
        <ele>2315.1000976562</ele>
        <time>2013-03-01T14:12:16Z</time>
      </trkpt>
      <trkpt lat="45.38591" lon="6.62519">
        <ele>2299.6999511719</ele>
        <time>2013-03-01T14:13:06Z</time>
      </trkpt>
      <trkpt lat="45.38618" lon="6.62507">
        <ele>2282.8000488281</ele>
        <time>2013-03-01T14:13:12Z</time>
      </trkpt>
      <trkpt lat="45.38646" lon="6.62538">
        <ele>2272</ele>
        <time>2013-03-01T14:13:18Z</time>
      </trkpt>
      <trkpt lat="45.38673" lon="6.62557">
        <ele>2260.3000488281</ele>
        <time>2013-03-01T14:13:24Z</time>
      </trkpt>
      <trkpt lat="45.38671" lon="6.62597">
        <ele>2249.8000488281</ele>
        <time>2013-03-01T14:13:34Z</time>
      </trkpt>
      <trkpt lat="45.38683" lon="6.62636">
        <ele>2242.6000976562</ele>
        <time>2013-03-01T14:13:39Z</time>
      </trkpt>
      <trkpt lat="45.38698" lon="6.62674">
        <ele>2226.6000976562</ele>
        <time>2013-03-01T14:13:46Z</time>
      </trkpt>
      <trkpt lat="45.38715" lon="6.62704">
        <ele>2218.5</ele>
        <time>2013-03-01T14:13:52Z</time>
      </trkpt>
      <trkpt lat="45.3874" lon="6.62728">
        <ele>2208</ele>
        <time>2013-03-01T14:13:58Z</time>
      </trkpt>
      <trkpt lat="45.38768" lon="6.62742">
        <ele>2195.6999511719</ele>
        <time>2013-03-01T14:14:03Z</time>
      </trkpt>
      <trkpt lat="45.38798" lon="6.62751">
        <ele>2185</ele>
        <time>2013-03-01T14:14:07Z</time>
      </trkpt>
      <trkpt lat="45.38828" lon="6.6276">
        <ele>2177.1000976562</ele>
        <time>2013-03-01T14:14:11Z</time>
      </trkpt>
      <trkpt lat="45.38858" lon="6.62778">
        <ele>2166</ele>
        <time>2013-03-01T14:14:16Z</time>
      </trkpt>
      <trkpt lat="45.3889" lon="6.62786">
        <ele>2148.3999023438</ele>
        <time>2013-03-01T14:14:40Z</time>
      </trkpt>
      <trkpt lat="45.38918" lon="6.62808">
        <ele>2141.1000976562</ele>
        <time>2013-03-01T14:14:45Z</time>
      </trkpt>
      <trkpt lat="45.38943" lon="6.62837">
        <ele>2136.3999023438</ele>
        <time>2013-03-01T14:14:50Z</time>
      </trkpt>
      <trkpt lat="45.3896" lon="6.62882">
        <ele>2131.8999023438</ele>
        <time>2013-03-01T14:14:53Z</time>
      </trkpt>
      <trkpt lat="45.38975" lon="6.62932">
        <ele>2128.6000976562</ele>
        <time>2013-03-01T14:14:56Z</time>
      </trkpt>
      <trkpt lat="45.38991" lon="6.62978">
        <ele>2124.8000488281</ele>
        <time>2013-03-01T14:14:59Z</time>
      </trkpt>
      <trkpt lat="45.39007" lon="6.63016">
        <ele>2123.3000488281</ele>
        <time>2013-03-01T14:15:02Z</time>
      </trkpt>
      <trkpt lat="45.39031" lon="6.63045">
        <ele>2112.3000488281</ele>
        <time>2013-03-01T14:15:06Z</time>
      </trkpt>
      <trkpt lat="45.39055" lon="6.63069">
        <ele>2105.3999023438</ele>
        <time>2013-03-01T14:15:11Z</time>
      </trkpt>
      <trkpt lat="45.39086" lon="6.63075">
        <ele>2094.8000488281</ele>
        <time>2013-03-01T14:15:15Z</time>
      </trkpt>
      <trkpt lat="45.39112" lon="6.63086">
        <ele>2093.3999023438</ele>
        <time>2013-03-01T14:15:18Z</time>
      </trkpt>
      <trkpt lat="45.39141" lon="6.631">
        <ele>2089.3999023438</ele>
        <time>2013-03-01T14:15:22Z</time>
      </trkpt>
      <trkpt lat="45.39174" lon="6.63115">
        <ele>2086.8999023438</ele>
        <time>2013-03-01T14:15:27Z</time>
      </trkpt>
      <trkpt lat="45.392" lon="6.6313">
        <ele>2084.5</ele>
        <time>2013-03-01T14:15:31Z</time>
      </trkpt>
      <trkpt lat="45.39229" lon="6.63134">
        <ele>2080.5</ele>
        <time>2013-03-01T14:16:01Z</time>
      </trkpt>
      <trkpt lat="45.39262" lon="6.63136">
        <ele>2078.8999023438</ele>
        <time>2013-03-01T14:16:07Z</time>
      </trkpt>
      <trkpt lat="45.3929" lon="6.63135">
        <ele>2076.8999023438</ele>
        <time>2013-03-01T14:16:11Z</time>
      </trkpt>
      <trkpt lat="45.39323" lon="6.63134">
        <ele>2075.8000488281</ele>
        <time>2013-03-01T14:16:16Z</time>
      </trkpt>
      <trkpt lat="45.39353" lon="6.63133">
        <ele>2073.3999023438</ele>
        <time>2013-03-01T14:16:20Z</time>
      </trkpt>
      <trkpt lat="45.39382" lon="6.63138">
        <ele>2072.8999023438</ele>
        <time>2013-03-01T14:16:23Z</time>
      </trkpt>
      <trkpt lat="45.39412" lon="6.6314">
        <ele>2071.3000488281</ele>
        <time>2013-03-01T14:16:26Z</time>
      </trkpt>
      <trkpt lat="45.39448" lon="6.6315">
        <ele>2068.3000488281</ele>
        <time>2013-03-01T14:16:29Z</time>
      </trkpt>
      <trkpt lat="45.39481" lon="6.63155">
        <ele>2068</ele>
        <time>2013-03-01T14:16:32Z</time>
      </trkpt>
      <trkpt lat="45.39509" lon="6.63158">
        <ele>2067.1000976562</ele>
        <time>2013-03-01T14:16:35Z</time>
      </trkpt>
      <trkpt lat="45.39544" lon="6.63153">
        <ele>2069.5</ele>
        <time>2013-03-01T14:16:39Z</time>
      </trkpt>
      <trkpt lat="45.39573" lon="6.63148">
        <ele>2063.3000488281</ele>
        <time>2013-03-01T14:16:44Z</time>
      </trkpt>
      <trkpt lat="45.39603" lon="6.63124">
        <ele>2057.8000488281</ele>
        <time>2013-03-01T14:16:54Z</time>
      </trkpt>
      <trkpt lat="45.39634" lon="6.63118">
        <ele>2054.1000976562</ele>
        <time>2013-03-01T14:16:58Z</time>
      </trkpt>
      <trkpt lat="45.39663" lon="6.63119">
        <ele>2047.8000488281</ele>
        <time>2013-03-01T14:17:03Z</time>
      </trkpt>
      <trkpt lat="45.39693" lon="6.6311">
        <ele>2043.3000488281</ele>
        <time>2013-03-01T14:17:08Z</time>
      </trkpt>
      <trkpt lat="45.39727" lon="6.63109">
        <ele>2035</ele>
        <time>2013-03-01T14:17:12Z</time>
      </trkpt>
      <trkpt lat="45.39759" lon="6.63123">
        <ele>2029.1000976562</ele>
        <time>2013-03-01T14:17:15Z</time>
      </trkpt>
      <trkpt lat="45.39793" lon="6.63149">
        <ele>2017.8999023438</ele>
        <time>2013-03-01T14:17:19Z</time>
      </trkpt>
      <trkpt lat="45.3982" lon="6.63161">
        <ele>2010</ele>
        <time>2013-03-01T14:17:20Z</time>
      </trkpt>
      <trkpt lat="45.39849" lon="6.6317">
        <ele>2003.1999511719</ele>
        <time>2013-03-01T14:17:22Z</time>
      </trkpt>
      <trkpt lat="45.3988" lon="6.63176">
        <ele>1996.8000488281</ele>
        <time>2013-03-01T14:17:24Z</time>
      </trkpt>
      <trkpt lat="45.3991" lon="6.63194">
        <ele>1989.0999755859</ele>
        <time>2013-03-01T14:17:26Z</time>
      </trkpt>
      <trkpt lat="45.3994" lon="6.63207">
        <ele>1982.0999755859</ele>
        <time>2013-03-01T14:17:28Z</time>
      </trkpt>
      <trkpt lat="45.39972" lon="6.63218">
        <ele>1976.8000488281</ele>
        <time>2013-03-01T14:17:30Z</time>
      </trkpt>
      <trkpt lat="45.4" lon="6.63227">
        <ele>1972.5999755859</ele>
        <time>2013-03-01T14:17:32Z</time>
      </trkpt>
      <trkpt lat="45.40029" lon="6.63237">
        <ele>1968</ele>
        <time>2013-03-01T14:17:34Z</time>
      </trkpt>
      <trkpt lat="45.40068" lon="6.63253">
        <ele>1961.5</ele>
        <time>2013-03-01T14:17:37Z</time>
      </trkpt>
      <trkpt lat="45.40096" lon="6.63262">
        <ele>1963.4000244141</ele>
        <time>2013-03-01T14:17:39Z</time>
      </trkpt>
      <trkpt lat="45.40135" lon="6.63273">
        <ele>1959.8000488281</ele>
        <time>2013-03-01T14:17:42Z</time>
      </trkpt>
      <trkpt lat="45.40162" lon="6.63278">
        <ele>1959.1999511719</ele>
        <time>2013-03-01T14:17:45Z</time>
      </trkpt>
      <trkpt lat="45.4019" lon="6.63285">
        <ele>1953.8000488281</ele>
        <time>2013-03-01T14:17:48Z</time>
      </trkpt>
      <trkpt lat="45.40218" lon="6.63293">
        <ele>1946.9000244141</ele>
        <time>2013-03-01T14:17:51Z</time>
      </trkpt>
      <trkpt lat="45.40251" lon="6.63305">
        <ele>1938.8000488281</ele>
        <time>2013-03-01T14:17:54Z</time>
      </trkpt>
      <trkpt lat="45.40288" lon="6.63322">
        <ele>1933.1999511719</ele>
        <time>2013-03-01T14:17:57Z</time>
      </trkpt>
      <trkpt lat="45.40326" lon="6.63339">
        <ele>1933</ele>
        <time>2013-03-01T14:18:00Z</time>
      </trkpt>
      <trkpt lat="45.40364" lon="6.63361">
        <ele>1932.4000244141</ele>
        <time>2013-03-01T14:18:03Z</time>
      </trkpt>
      <trkpt lat="45.40399" lon="6.63377">
        <ele>1927.3000488281</ele>
        <time>2013-03-01T14:18:06Z</time>
      </trkpt>
      <trkpt lat="45.40435" lon="6.63396">
        <ele>1924.0999755859</ele>
        <time>2013-03-01T14:18:09Z</time>
      </trkpt>
      <trkpt lat="45.40471" lon="6.63412">
        <ele>1921.9000244141</ele>
        <time>2013-03-01T14:18:12Z</time>
      </trkpt>
      <trkpt lat="45.40501" lon="6.63425">
        <ele>1914.4000244141</ele>
        <time>2013-03-01T14:18:15Z</time>
      </trkpt>
      <trkpt lat="45.40534" lon="6.63435">
        <ele>1909.6999511719</ele>
        <time>2013-03-01T14:18:19Z</time>
      </trkpt>
      <trkpt lat="45.40563" lon="6.63445">
        <ele>1910.1999511719</ele>
        <time>2013-03-01T14:18:21Z</time>
      </trkpt>
      <trkpt lat="45.40597" lon="6.63459">
        <ele>1902.5999755859</ele>
        <time>2013-03-01T14:18:25Z</time>
      </trkpt>
      <trkpt lat="45.4063" lon="6.63477">
        <ele>1902.1999511719</ele>
        <time>2013-03-01T14:18:29Z</time>
      </trkpt>
      <trkpt lat="45.40661" lon="6.63488">
        <ele>1895.8000488281</ele>
        <time>2013-03-01T14:18:33Z</time>
      </trkpt>
      <trkpt lat="45.40691" lon="6.63499">
        <ele>1890</ele>
        <time>2013-03-01T14:18:38Z</time>
      </trkpt>
      <trkpt lat="45.40719" lon="6.63515">
        <ele>1885.8000488281</ele>
        <time>2013-03-01T14:18:41Z</time>
      </trkpt>
      <trkpt lat="45.40746" lon="6.63526">
        <ele>1882.4000244141</ele>
        <time>2013-03-01T14:18:46Z</time>
      </trkpt>
      <trkpt lat="45.40773" lon="6.63541">
        <ele>1881.0999755859</ele>
        <time>2013-03-01T14:18:49Z</time>
      </trkpt>
      <trkpt lat="45.40807" lon="6.63554">
        <ele>1872.9000244141</ele>
        <time>2013-03-01T14:18:54Z</time>
      </trkpt>
      <trkpt lat="45.40838" lon="6.63567">
        <ele>1872.1999511719</ele>
        <time>2013-03-01T14:18:57Z</time>
      </trkpt>
      <trkpt lat="45.40866" lon="6.63576">
        <ele>1866</ele>
        <time>2013-03-01T14:19:00Z</time>
      </trkpt>
      <trkpt lat="45.40892" lon="6.6359">
        <ele>1862.0999755859</ele>
        <time>2013-03-01T14:19:03Z</time>
      </trkpt>
      <trkpt lat="45.4092" lon="6.63593">
        <ele>1858.6999511719</ele>
        <time>2013-03-01T14:19:06Z</time>
      </trkpt>
      <trkpt lat="45.40954" lon="6.63596">
        <ele>1853</ele>
        <time>2013-03-01T14:19:10Z</time>
      </trkpt>
      <trkpt lat="45.4099" lon="6.63601">
        <ele>1847.4000244141</ele>
        <time>2013-03-01T14:19:14Z</time>
      </trkpt>
      <trkpt lat="45.41019" lon="6.63608">
        <ele>1838.9000244141</ele>
        <time>2013-03-01T14:19:17Z</time>
      </trkpt>
      <trkpt lat="45.41049" lon="6.63606">
        <ele>1835</ele>
        <time>2013-03-01T14:19:20Z</time>
      </trkpt>
      <trkpt lat="45.4108" lon="6.63606">
        <ele>1833.5</ele>
        <time>2013-03-01T14:19:23Z</time>
      </trkpt>
      <trkpt lat="45.41111" lon="6.63616">
        <ele>1830.8000488281</ele>
        <time>2013-03-01T14:19:26Z</time>
      </trkpt>
      <trkpt lat="45.41141" lon="6.63619">
        <ele>1826.9000244141</ele>
        <time>2013-03-01T14:19:29Z</time>
      </trkpt>
      <trkpt lat="45.41173" lon="6.63615">
        <ele>1825.0999755859</ele>
        <time>2013-03-01T14:19:32Z</time>
      </trkpt>
      <trkpt lat="45.41206" lon="6.63603">
        <ele>1824.0999755859</ele>
        <time>2013-03-01T14:19:35Z</time>
      </trkpt>
      <trkpt lat="45.41232" lon="6.63589">
        <ele>1821.6999511719</ele>
        <time>2013-03-01T14:19:38Z</time>
      </trkpt>
      <trkpt lat="45.41263" lon="6.63567">
        <ele>1819.0999755859</ele>
        <time>2013-03-01T14:19:41Z</time>
      </trkpt>
      <trkpt lat="45.41287" lon="6.63547">
        <ele>1810.6999511719</ele>
        <time>2013-03-01T14:19:44Z</time>
      </trkpt>
      <trkpt lat="45.41312" lon="6.6352">
        <ele>1810</ele>
        <time>2013-03-01T14:19:47Z</time>
      </trkpt>
      <trkpt lat="45.41332" lon="6.63486">
        <ele>1803.0999755859</ele>
        <time>2013-03-01T14:19:50Z</time>
      </trkpt>
      <trkpt lat="45.4135" lon="6.63443">
        <ele>1802.3000488281</ele>
        <time>2013-03-01T14:19:54Z</time>
      </trkpt>
      <trkpt lat="45.41371" lon="6.63413">
        <ele>1796.0999755859</ele>
        <time>2013-03-01T14:19:59Z</time>
      </trkpt>
      <trkpt lat="45.41391" lon="6.63381">
        <ele>1791.4000244141</ele>
        <time>2013-03-01T14:20:03Z</time>
      </trkpt>
      <trkpt lat="45.41386" lon="6.63341">
        <ele>1784.5999755859</ele>
        <time>2013-03-01T14:20:08Z</time>
      </trkpt>
      <trkpt lat="45.41409" lon="6.63318">
        <ele>1783</ele>
        <time>2013-03-01T14:21:35Z</time>
      </trkpt>
      <trkpt lat="45.41434" lon="6.63297">
        <ele>1775.4000244141</ele>
        <time>2013-03-01T14:21:40Z</time>
      </trkpt>
      <trkpt lat="45.41457" lon="6.63267">
        <ele>1774.1999511719</ele>
        <time>2013-03-01T14:21:45Z</time>
      </trkpt>
      <trkpt lat="45.4148" lon="6.63242">
        <ele>1771.5999755859</ele>
        <time>2013-03-01T14:21:51Z</time>
      </trkpt>
      <trkpt lat="45.41509" lon="6.63245">
        <ele>1771.4000244141</ele>
        <time>2013-03-01T14:21:56Z</time>
      </trkpt>
      <trkpt lat="45.41536" lon="6.63267">
        <ele>1771.5</ele>
        <time>2013-03-01T14:22:00Z</time>
      </trkpt>
      <trkpt lat="45.41549" lon="6.63304">
        <ele>1768</ele>
        <time>2013-03-01T14:22:04Z</time>
      </trkpt>
      <trkpt lat="45.41573" lon="6.63323">
        <ele>1765.1999511719</ele>
        <time>2013-03-01T14:22:09Z</time>
      </trkpt>
      <trkpt lat="45.41604" lon="6.63339">
        <ele>1754</ele>
        <time>2013-03-01T14:22:14Z</time>
      </trkpt>
      <trkpt lat="45.4163" lon="6.63355">
        <ele>1749.3000488281</ele>
        <time>2013-03-01T14:22:20Z</time>
      </trkpt>
      <trkpt lat="45.41658" lon="6.63366">
        <ele>1743.4000244141</ele>
        <time>2013-03-01T14:22:24Z</time>
      </trkpt>
      <trkpt lat="45.4169" lon="6.63371">
        <ele>1736.6999511719</ele>
        <time>2013-03-01T14:22:28Z</time>
      </trkpt>
      <trkpt lat="45.41718" lon="6.63359">
        <ele>1733</ele>
        <time>2013-03-01T14:22:33Z</time>
      </trkpt>
      <trkpt lat="45.41744" lon="6.6334">
        <ele>1731.0999755859</ele>
        <time>2013-03-01T14:22:38Z</time>
      </trkpt>
      <trkpt lat="45.41773" lon="6.63326">
        <ele>1726</ele>
        <time>2013-03-01T14:22:43Z</time>
      </trkpt>
      <trkpt lat="45.41796" lon="6.63297">
        <ele>1725.5</ele>
        <time>2013-03-01T14:22:47Z</time>
      </trkpt>
      <trkpt lat="45.4182" lon="6.63268">
        <ele>1726.6999511719</ele>
        <time>2013-03-01T14:22:52Z</time>
      </trkpt>
      <trkpt lat="45.41848" lon="6.63254">
        <ele>1723.5</ele>
        <time>2013-03-01T14:22:56Z</time>
      </trkpt>
      <trkpt lat="45.41879" lon="6.63248">
        <ele>1722.4000244141</ele>
        <time>2013-03-01T14:23:01Z</time>
      </trkpt>
      <trkpt lat="45.41909" lon="6.63241">
        <ele>1719.8000488281</ele>
        <time>2013-03-01T14:23:06Z</time>
      </trkpt>
      <trkpt lat="45.41936" lon="6.6324">
        <ele>1717.6999511719</ele>
        <time>2013-03-01T14:23:12Z</time>
      </trkpt>
      <trkpt lat="45.41964" lon="6.63238">
        <ele>1717.0999755859</ele>
        <time>2013-03-01T14:23:18Z</time>
      </trkpt>
      <trkpt lat="45.41979" lon="6.63273">
        <ele>1712.3000488281</ele>
        <time>2013-03-01T14:23:23Z</time>
      </trkpt>
      <trkpt lat="45.42006" lon="6.63293">
        <ele>1706.3000488281</ele>
        <time>2013-03-01T14:23:28Z</time>
      </trkpt>
      <trkpt lat="45.42034" lon="6.63285">
        <ele>1704.5</ele>
        <time>2013-03-01T14:23:39Z</time>
      </trkpt>
      <trkpt lat="45.42031" lon="6.63236">
        <ele>1681.0999755859</ele>
        <time>2013-03-01T14:24:48Z</time>
      </trkpt>
      <trkpt lat="45.42012" lon="6.63203">
        <ele>1687.0999755859</ele>
        <time>2013-03-01T14:24:53Z</time>
      </trkpt>
      <trkpt lat="45.41995" lon="6.63168">
        <ele>1691.0999755859</ele>
        <time>2013-03-01T14:25:01Z</time>
      </trkpt>
      <trkpt lat="45.41977" lon="6.63132">
        <ele>1691.6999511719</ele>
        <time>2013-03-01T14:25:09Z</time>
      </trkpt>
      <trkpt lat="45.4196" lon="6.631">
        <ele>1696.5999755859</ele>
        <time>2013-03-01T14:25:17Z</time>
      </trkpt>
      <trkpt lat="45.41941" lon="6.63066">
        <ele>1703.4000244141</ele>
        <time>2013-03-01T14:25:23Z</time>
      </trkpt>
      <trkpt lat="45.41922" lon="6.63033">
        <ele>1713.3000488281</ele>
        <time>2013-03-01T14:25:30Z</time>
      </trkpt>
      <trkpt lat="45.41901" lon="6.62998">
        <ele>1719</ele>
        <time>2013-03-01T14:25:38Z</time>
      </trkpt>
      <trkpt lat="45.41881" lon="6.62963">
        <ele>1731.4000244141</ele>
        <time>2013-03-01T14:25:45Z</time>
      </trkpt>
      <trkpt lat="45.41864" lon="6.62932">
        <ele>1743.8000488281</ele>
        <time>2013-03-01T14:25:52Z</time>
      </trkpt>
      <trkpt lat="45.41845" lon="6.62897">
        <ele>1755.0999755859</ele>
        <time>2013-03-01T14:25:59Z</time>
      </trkpt>
      <trkpt lat="45.41826" lon="6.62865">
        <ele>1758.0999755859</ele>
        <time>2013-03-01T14:26:06Z</time>
      </trkpt>
      <trkpt lat="45.41808" lon="6.62831">
        <ele>1768.5999755859</ele>
        <time>2013-03-01T14:26:12Z</time>
      </trkpt>
      <trkpt lat="45.41785" lon="6.62793">
        <ele>1781</ele>
        <time>2013-03-01T14:26:20Z</time>
      </trkpt>
      <trkpt lat="45.41765" lon="6.62761">
        <ele>1793.8000488281</ele>
        <time>2013-03-01T14:26:26Z</time>
      </trkpt>
      <trkpt lat="45.41746" lon="6.62728">
        <ele>1808.5999755859</ele>
        <time>2013-03-01T14:26:33Z</time>
      </trkpt>
      <trkpt lat="45.41728" lon="6.62693">
        <ele>1820.3000488281</ele>
        <time>2013-03-01T14:26:41Z</time>
      </trkpt>
      <trkpt lat="45.4171" lon="6.62662">
        <ele>1834.0999755859</ele>
        <time>2013-03-01T14:26:47Z</time>
      </trkpt>
      <trkpt lat="45.41691" lon="6.62629">
        <ele>1838.8000488281</ele>
        <time>2013-03-01T14:26:54Z</time>
      </trkpt>
      <trkpt lat="45.41672" lon="6.62596">
        <ele>1847.1999511719</ele>
        <time>2013-03-01T14:27:02Z</time>
      </trkpt>
      <trkpt lat="45.41655" lon="6.62565">
        <ele>1858.8000488281</ele>
        <time>2013-03-01T14:27:10Z</time>
      </trkpt>
      <trkpt lat="45.41637" lon="6.62531">
        <ele>1855.4000244141</ele>
        <time>2013-03-01T14:27:16Z</time>
      </trkpt>
      <trkpt lat="45.41618" lon="6.62498">
        <ele>1866.4000244141</ele>
        <time>2013-03-01T14:27:23Z</time>
      </trkpt>
      <trkpt lat="45.41598" lon="6.62464">
        <ele>1894.3000488281</ele>
        <time>2013-03-01T14:27:31Z</time>
      </trkpt>
      <trkpt lat="45.41579" lon="6.62431">
        <ele>1915.4000244141</ele>
        <time>2013-03-01T14:27:38Z</time>
      </trkpt>
      <trkpt lat="45.41564" lon="6.62394">
        <ele>1921.4000244141</ele>
        <time>2013-03-01T14:27:47Z</time>
      </trkpt>
      <trkpt lat="45.41544" lon="6.62359">
        <ele>1933.1999511719</ele>
        <time>2013-03-01T14:27:54Z</time>
      </trkpt>
      <trkpt lat="45.41526" lon="6.62327">
        <ele>1947</ele>
        <time>2013-03-01T14:28:02Z</time>
      </trkpt>
      <trkpt lat="45.41508" lon="6.62296">
        <ele>1958.9000244141</ele>
        <time>2013-03-01T14:28:11Z</time>
      </trkpt>
      <trkpt lat="45.4149" lon="6.62261">
        <ele>1975.4000244141</ele>
        <time>2013-03-01T14:28:20Z</time>
      </trkpt>
      <trkpt lat="45.41472" lon="6.6223">
        <ele>1987.4000244141</ele>
        <time>2013-03-01T14:28:26Z</time>
      </trkpt>
      <trkpt lat="45.41454" lon="6.62199">
        <ele>1999.9000244141</ele>
        <time>2013-03-01T14:28:33Z</time>
      </trkpt>
      <trkpt lat="45.41435" lon="6.62169">
        <ele>2015.8999023438</ele>
        <time>2013-03-01T14:28:40Z</time>
      </trkpt>
      <trkpt lat="45.41417" lon="6.62138">
        <ele>2026</ele>
        <time>2013-03-01T14:28:47Z</time>
      </trkpt>
      <trkpt lat="45.41397" lon="6.62104">
        <ele>2038.8000488281</ele>
        <time>2013-03-01T14:28:54Z</time>
      </trkpt>
      <trkpt lat="45.41379" lon="6.62072">
        <ele>2049.1999511719</ele>
        <time>2013-03-01T14:29:01Z</time>
      </trkpt>
      <trkpt lat="45.41361" lon="6.62042">
        <ele>2061</ele>
        <time>2013-03-01T14:29:07Z</time>
      </trkpt>
      <trkpt lat="45.41343" lon="6.62011">
        <ele>2077.8999023438</ele>
        <time>2013-03-01T14:29:14Z</time>
      </trkpt>
      <trkpt lat="45.41325" lon="6.61979">
        <ele>2091.3000488281</ele>
        <time>2013-03-01T14:29:21Z</time>
      </trkpt>
      <trkpt lat="45.41305" lon="6.61945">
        <ele>2103.1000976562</ele>
        <time>2013-03-01T14:29:28Z</time>
      </trkpt>
      <trkpt lat="45.41286" lon="6.61911">
        <ele>2111.1000976562</ele>
        <time>2013-03-01T14:29:35Z</time>
      </trkpt>
      <trkpt lat="45.41266" lon="6.61876">
        <ele>2120.1999511719</ele>
        <time>2013-03-01T14:29:42Z</time>
      </trkpt>
      <trkpt lat="45.41246" lon="6.61841">
        <ele>2131.5</ele>
        <time>2013-03-01T14:29:49Z</time>
      </trkpt>
      <trkpt lat="45.41227" lon="6.61806">
        <ele>2142.1999511719</ele>
        <time>2013-03-01T14:29:56Z</time>
      </trkpt>
      <trkpt lat="45.41209" lon="6.61774">
        <ele>2153.6999511719</ele>
        <time>2013-03-01T14:30:03Z</time>
      </trkpt>
      <trkpt lat="45.41189" lon="6.61739">
        <ele>2163</ele>
        <time>2013-03-01T14:30:10Z</time>
      </trkpt>
      <trkpt lat="45.4117" lon="6.61705">
        <ele>2170.6000976562</ele>
        <time>2013-03-01T14:30:17Z</time>
      </trkpt>
      <trkpt lat="45.4115" lon="6.61671">
        <ele>2179.6000976562</ele>
        <time>2013-03-01T14:30:24Z</time>
      </trkpt>
      <trkpt lat="45.41132" lon="6.61641">
        <ele>2182</ele>
        <time>2013-03-01T14:30:30Z</time>
      </trkpt>
      <trkpt lat="45.41114" lon="6.61608">
        <ele>2189.6000976562</ele>
        <time>2013-03-01T14:30:41Z</time>
      </trkpt>
      <trkpt lat="45.41127" lon="6.61573">
        <ele>2189.1000976562</ele>
        <time>2013-03-01T14:30:53Z</time>
      </trkpt>
      <trkpt lat="45.41146" lon="6.61608">
        <ele>2187</ele>
        <time>2013-03-01T14:31:04Z</time>
      </trkpt>
      <trkpt lat="45.41158" lon="6.61648">
        <ele>2183.3000488281</ele>
        <time>2013-03-01T14:31:10Z</time>
      </trkpt>
      <trkpt lat="45.41187" lon="6.61672">
        <ele>2178.1999511719</ele>
        <time>2013-03-01T14:31:16Z</time>
      </trkpt>
      <trkpt lat="45.41215" lon="6.61696">
        <ele>2177.3000488281</ele>
        <time>2013-03-01T14:31:20Z</time>
      </trkpt>
      <trkpt lat="45.41243" lon="6.61701">
        <ele>2165.3000488281</ele>
        <time>2013-03-01T14:31:22Z</time>
      </trkpt>
      <trkpt lat="45.41271" lon="6.61734">
        <ele>2162.1999511719</ele>
        <time>2013-03-01T14:31:25Z</time>
      </trkpt>
      <trkpt lat="45.41295" lon="6.61755">
        <ele>2156.3999023438</ele>
        <time>2013-03-01T14:31:28Z</time>
      </trkpt>
      <trkpt lat="45.41327" lon="6.61761">
        <ele>2148</ele>
        <time>2013-03-01T14:31:31Z</time>
      </trkpt>
      <trkpt lat="45.41357" lon="6.61787">
        <ele>2143.3999023438</ele>
        <time>2013-03-01T14:31:34Z</time>
      </trkpt>
      <trkpt lat="45.41385" lon="6.61809">
        <ele>2123.3999023438</ele>
        <time>2013-03-01T14:32:07Z</time>
      </trkpt>
      <trkpt lat="45.41401" lon="6.61848">
        <ele>2113.1999511719</ele>
        <time>2013-03-01T14:32:12Z</time>
      </trkpt>
      <trkpt lat="45.4143" lon="6.61857">
        <ele>2108.6999511719</ele>
        <time>2013-03-01T14:32:16Z</time>
      </trkpt>
      <trkpt lat="45.41452" lon="6.61882">
        <ele>2103.3000488281</ele>
        <time>2013-03-01T14:32:22Z</time>
      </trkpt>
      <trkpt lat="45.41481" lon="6.61893">
        <ele>2095.5</ele>
        <time>2013-03-01T14:32:26Z</time>
      </trkpt>
      <trkpt lat="45.41509" lon="6.61909">
        <ele>2091.5</ele>
        <time>2013-03-01T14:32:30Z</time>
      </trkpt>
      <trkpt lat="45.4154" lon="6.61918">
        <ele>2088.8999023438</ele>
        <time>2013-03-01T14:32:34Z</time>
      </trkpt>
      <trkpt lat="45.41566" lon="6.61895">
        <ele>2075.5</ele>
        <time>2013-03-01T14:32:47Z</time>
      </trkpt>
      <trkpt lat="45.41596" lon="6.61901">
        <ele>2067.6999511719</ele>
        <time>2013-03-01T14:32:52Z</time>
      </trkpt>
      <trkpt lat="45.4163" lon="6.61887">
        <ele>2052.6999511719</ele>
        <time>2013-03-01T14:32:58Z</time>
      </trkpt>
      <trkpt lat="45.41659" lon="6.61903">
        <ele>2049.6000976562</ele>
        <time>2013-03-01T14:33:02Z</time>
      </trkpt>
      <trkpt lat="45.41684" lon="6.61921">
        <ele>2037.5</ele>
        <time>2013-03-01T14:33:06Z</time>
      </trkpt>
      <trkpt lat="45.41692" lon="6.6196">
        <ele>2021.8999023438</ele>
        <time>2013-03-01T14:33:46Z</time>
      </trkpt>
      <trkpt lat="45.41716" lon="6.61984">
        <ele>2016.6000976562</ele>
        <time>2013-03-01T14:33:53Z</time>
      </trkpt>
      <trkpt lat="45.41748" lon="6.61996">
        <ele>2000.5</ele>
        <time>2013-03-01T14:34:01Z</time>
      </trkpt>
      <trkpt lat="45.41775" lon="6.62022">
        <ele>1987.5</ele>
        <time>2013-03-01T14:34:09Z</time>
      </trkpt>
      <trkpt lat="45.41784" lon="6.6206">
        <ele>1986.3000488281</ele>
        <time>2013-03-01T14:34:13Z</time>
      </trkpt>
      <trkpt lat="45.41814" lon="6.62065">
        <ele>1962.9000244141</ele>
        <time>2013-03-01T14:34:20Z</time>
      </trkpt>
      <trkpt lat="45.41822" lon="6.62107">
        <ele>1948.5999755859</ele>
        <time>2013-03-01T14:34:27Z</time>
      </trkpt>
      <trkpt lat="45.4184" lon="6.62143">
        <ele>1940.8000488281</ele>
        <time>2013-03-01T14:34:35Z</time>
      </trkpt>
      <trkpt lat="45.4186" lon="6.6217">
        <ele>1933.6999511719</ele>
        <time>2013-03-01T14:34:42Z</time>
      </trkpt>
      <trkpt lat="45.41889" lon="6.62199">
        <ele>1901.8000488281</ele>
        <time>2013-03-01T14:36:23Z</time>
      </trkpt>
      <trkpt lat="45.41914" lon="6.6224">
        <ele>1900.1999511719</ele>
        <time>2013-03-01T14:36:26Z</time>
      </trkpt>
      <trkpt lat="45.41921" lon="6.62282">
        <ele>1897.4000244141</ele>
        <time>2013-03-01T14:36:28Z</time>
      </trkpt>
      <trkpt lat="45.41922" lon="6.62326">
        <ele>1895.0999755859</ele>
        <time>2013-03-01T14:36:30Z</time>
      </trkpt>
      <trkpt lat="45.41934" lon="6.62368">
        <ele>1885.4000244141</ele>
        <time>2013-03-01T14:36:33Z</time>
      </trkpt>
      <trkpt lat="45.41947" lon="6.62411">
        <ele>1876.5</ele>
        <time>2013-03-01T14:36:36Z</time>
      </trkpt>
      <trkpt lat="45.41973" lon="6.62438">
        <ele>1870.8000488281</ele>
        <time>2013-03-01T14:36:39Z</time>
      </trkpt>
      <trkpt lat="45.41995" lon="6.6248">
        <ele>1866.5</ele>
        <time>2013-03-01T14:36:42Z</time>
      </trkpt>
      <trkpt lat="45.42009" lon="6.62533">
        <ele>1860.0999755859</ele>
        <time>2013-03-01T14:36:45Z</time>
      </trkpt>
      <trkpt lat="45.42018" lon="6.62574">
        <ele>1855.6999511719</ele>
        <time>2013-03-01T14:36:47Z</time>
      </trkpt>
      <trkpt lat="45.42028" lon="6.62631">
        <ele>1850.3000488281</ele>
        <time>2013-03-01T14:36:50Z</time>
      </trkpt>
      <trkpt lat="45.42034" lon="6.62682">
        <ele>1846.0999755859</ele>
        <time>2013-03-01T14:36:53Z</time>
      </trkpt>
      <trkpt lat="45.42056" lon="6.62707">
        <ele>1827.9000244141</ele>
        <time>2013-03-01T14:36:58Z</time>
      </trkpt>
      <trkpt lat="45.42082" lon="6.62731">
        <ele>1815.9000244141</ele>
        <time>2013-03-01T14:37:04Z</time>
      </trkpt>
      <trkpt lat="45.42102" lon="6.6276">
        <ele>1808.8000488281</ele>
        <time>2013-03-01T14:37:09Z</time>
      </trkpt>
      <trkpt lat="45.42121" lon="6.62794">
        <ele>1786.1999511719</ele>
        <time>2013-03-01T14:37:17Z</time>
      </trkpt>
      <trkpt lat="45.42132" lon="6.62833">
        <ele>1777.0999755859</ele>
        <time>2013-03-01T14:37:24Z</time>
      </trkpt>
      <trkpt lat="45.42154" lon="6.62861">
        <ele>1762.5999755859</ele>
        <time>2013-03-01T14:37:32Z</time>
      </trkpt>
      <trkpt lat="45.42177" lon="6.62891">
        <ele>1750.0999755859</ele>
        <time>2013-03-01T14:37:40Z</time>
      </trkpt>
      <trkpt lat="45.42202" lon="6.62907">
        <ele>1737.3000488281</ele>
        <time>2013-03-01T14:37:47Z</time>
      </trkpt>
      <trkpt lat="45.42232" lon="6.62915">
        <ele>1686.5999755859</ele>
        <time>2013-03-01T14:39:34Z</time>
      </trkpt>
      <trkpt lat="45.42266" lon="6.62909">
        <ele>1681.8000488281</ele>
        <time>2013-03-01T14:39:39Z</time>
      </trkpt>
      <trkpt lat="45.42294" lon="6.62926">
        <ele>1676.5999755859</ele>
        <time>2013-03-01T14:39:44Z</time>
      </trkpt>
      <trkpt lat="45.42327" lon="6.6292">
        <ele>1669.0999755859</ele>
        <time>2013-03-01T14:39:50Z</time>
      </trkpt>
      <trkpt lat="45.42357" lon="6.62931">
        <ele>1655.8000488281</ele>
        <time>2013-03-01T14:39:56Z</time>
      </trkpt>
      <trkpt lat="45.42381" lon="6.62953">
        <ele>1647.6999511719</ele>
        <time>2013-03-01T14:40:02Z</time>
      </trkpt>
      <trkpt lat="45.42404" lon="6.62976">
        <ele>1638.4000244141</ele>
        <time>2013-03-01T14:40:07Z</time>
      </trkpt>
      <trkpt lat="45.42421" lon="6.63012">
        <ele>1626.0999755859</ele>
        <time>2013-03-01T14:40:12Z</time>
      </trkpt>
      <trkpt lat="45.4243" lon="6.63057">
        <ele>1615.0999755859</ele>
        <time>2013-03-01T14:40:18Z</time>
      </trkpt>
      <trkpt lat="45.42452" lon="6.63084">
        <ele>1608.8000488281</ele>
        <time>2013-03-01T14:40:23Z</time>
      </trkpt>
      <trkpt lat="45.4246" lon="6.63122">
        <ele>1603.9000244141</ele>
        <time>2013-03-01T14:40:26Z</time>
      </trkpt>
      <trkpt lat="45.42494" lon="6.63129">
        <ele>1565.3000488281</ele>
        <time>2013-03-01T14:40:52Z</time>
      </trkpt>
      <trkpt lat="45.42524" lon="6.63128">
        <ele>1550.6999511719</ele>
        <time>2013-03-01T14:40:58Z</time>
      </trkpt>
      <trkpt lat="45.42551" lon="6.63134">
        <ele>1528.4000244141</ele>
        <time>2013-03-01T14:41:06Z</time>
      </trkpt>
      <trkpt lat="45.42579" lon="6.6314">
        <ele>1512.3000488281</ele>
        <time>2013-03-01T14:41:14Z</time>
      </trkpt>
      <trkpt lat="45.42608" lon="6.63153">
        <ele>1478</ele>
        <time>2013-03-01T14:41:22Z</time>
      </trkpt>
      <trkpt lat="45.42631" lon="6.6313">
        <ele>1468.6999511719</ele>
        <time>2013-03-01T14:41:29Z</time>
      </trkpt>
      <trkpt lat="45.42655" lon="6.63112">
        <ele>1446.4000244141</ele>
        <time>2013-03-01T14:41:41Z</time>
      </trkpt>
      <trkpt lat="45.42683" lon="6.63087">
        <ele>1434</ele>
        <time>2013-03-01T14:41:46Z</time>
      </trkpt>
      <trkpt lat="45.42711" lon="6.63059">
        <ele>1420.5999755859</ele>
        <time>2013-03-01T14:42:49Z</time>
      </trkpt>
      <trkpt lat="45.42729" lon="6.63029">
        <ele>1415.9000244141</ele>
        <time>2013-03-01T14:42:52Z</time>
      </trkpt>
      <trkpt lat="45.42756" lon="6.63011">
        <ele>1405.5</ele>
        <time>2013-03-01T14:42:58Z</time>
      </trkpt>
      <trkpt lat="45.42782" lon="6.62977">
        <ele>1383.1999511719</ele>
        <time>2013-03-01T14:43:27Z</time>
      </trkpt>
      <trkpt lat="45.42812" lon="6.62948">
        <ele>1376.4000244141</ele>
        <time>2013-03-01T14:43:30Z</time>
      </trkpt>
      <trkpt lat="45.42847" lon="6.62921">
        <ele>1372.4000244141</ele>
        <time>2013-03-01T14:43:33Z</time>
      </trkpt>
      <trkpt lat="45.42873" lon="6.62906">
        <ele>1362</ele>
        <time>2013-03-01T14:43:36Z</time>
      </trkpt>
      <trkpt lat="45.42891" lon="6.62876">
        <ele>1355</ele>
        <time>2013-03-01T14:43:39Z</time>
      </trkpt>
      <trkpt lat="45.42918" lon="6.62853">
        <ele>1338.3000488281</ele>
        <time>2013-03-01T14:43:43Z</time>
      </trkpt>
      <trkpt lat="45.42945" lon="6.62832">
        <ele>1318.1999511719</ele>
        <time>2013-03-01T14:44:06Z</time>
      </trkpt>
      <trkpt lat="45.42968" lon="6.62794">
        <ele>1315</ele>
        <time>2013-03-01T14:44:09Z</time>
      </trkpt>
      <trkpt lat="45.42993" lon="6.62752">
        <ele>1313.5</ele>
        <time>2013-03-01T14:44:11Z</time>
      </trkpt>
      <trkpt lat="45.43024" lon="6.62709">
        <ele>1311.6999511719</ele>
        <time>2013-03-01T14:44:13Z</time>
      </trkpt>
      <trkpt lat="45.43044" lon="6.62672">
        <ele>1307.5</ele>
        <time>2013-03-01T14:44:15Z</time>
      </trkpt>
      <trkpt lat="45.4306" lon="6.62636">
        <ele>1304.6999511719</ele>
        <time>2013-03-01T14:44:17Z</time>
      </trkpt>
      <trkpt lat="45.43074" lon="6.62601">
        <ele>1303.0999755859</ele>
        <time>2013-03-01T14:44:19Z</time>
      </trkpt>
      <trkpt lat="45.4309" lon="6.62549">
        <ele>1297.4000244141</ele>
        <time>2013-03-01T14:44:22Z</time>
      </trkpt>
      <trkpt lat="45.43108" lon="6.62505">
        <ele>1294.0999755859</ele>
        <time>2013-03-01T14:44:25Z</time>
      </trkpt>
      <trkpt lat="45.43125" lon="6.62467">
        <ele>1290.9000244141</ele>
        <time>2013-03-01T14:44:28Z</time>
      </trkpt>
      <trkpt lat="45.43124" lon="6.62421">
        <ele>1284.5</ele>
        <time>2013-03-01T14:44:32Z</time>
      </trkpt>
      <trkpt lat="45.43115" lon="6.62378">
        <ele>1278.5</ele>
        <time>2013-03-01T14:44:37Z</time>
      </trkpt>
      <trkpt lat="45.43104" lon="6.62337">
        <ele>1269.3000488281</ele>
        <time>2013-03-01T14:44:46Z</time>
      </trkpt>
      <trkpt lat="45.43093" lon="6.623">
        <ele>1267.0999755859</ele>
        <time>2013-03-01T14:44:52Z</time>
      </trkpt>
      <trkpt lat="45.43089" lon="6.62261">
        <ele>1264.8000488281</ele>
        <time>2013-03-01T14:44:58Z</time>
      </trkpt>
      <trkpt lat="45.43087" lon="6.62218">
        <ele>1264.4000244141</ele>
        <time>2013-03-01T14:45:05Z</time>
      </trkpt>
      <trkpt lat="45.43091" lon="6.62169">
        <ele>1265.4000244141</ele>
        <time>2013-03-01T14:45:15Z</time>
      </trkpt>
      <trkpt lat="45.43078" lon="6.62132">
        <ele>1261.4000244141</ele>
        <time>2013-03-01T14:45:21Z</time>
      </trkpt>
      <trkpt lat="45.43075" lon="6.6209">
        <ele>1256.0999755859</ele>
        <time>2013-03-01T14:45:38Z</time>
      </trkpt>
      <trkpt lat="45.43096" lon="6.62063">
        <ele>1254.0999755859</ele>
        <time>2013-03-01T14:45:51Z</time>
      </trkpt>
      <trkpt lat="45.43112" lon="6.6203">
        <ele>1256.5</ele>
        <time>2013-03-01T14:46:02Z</time>
      </trkpt>
      <trkpt lat="45.43119" lon="6.61992">
        <ele>1253.5999755859</ele>
        <time>2013-03-01T14:46:14Z</time>
      </trkpt>
      <trkpt lat="45.43147" lon="6.61982">
        <ele>1251.5999755859</ele>
        <time>2013-03-01T14:46:31Z</time>
      </trkpt>
      <trkpt lat="45.43175" lon="6.6199">
        <ele>1253</ele>
        <time>2013-03-01T14:46:50Z</time>
      </trkpt>
      <trkpt lat="45.43196" lon="6.62016">
        <ele>1263.3000488281</ele>
        <time>2013-03-01T14:47:30Z</time>
      </trkpt>
      <trkpt lat="45.4317" lon="6.62026">
        <ele>1241.6999511719</ele>
        <time>2013-03-01T14:52:38Z</time>
      </trkpt>
      <trkpt lat="45.43143" lon="6.62018">
        <ele>1273.3000488281</ele>
        <time>2013-03-01T14:52:47Z</time>
      </trkpt>
      <trkpt lat="45.43112" lon="6.62011">
        <ele>1283.1999511719</ele>
        <time>2013-03-01T14:52:54Z</time>
      </trkpt>
      <trkpt lat="45.43083" lon="6.62007">
        <ele>1291.8000488281</ele>
        <time>2013-03-01T14:53:03Z</time>
      </trkpt>
      <trkpt lat="45.43053" lon="6.62001">
        <ele>1306.8000488281</ele>
        <time>2013-03-01T14:53:12Z</time>
      </trkpt>
      <trkpt lat="45.43026" lon="6.61998">
        <ele>1319.5</ele>
        <time>2013-03-01T14:53:21Z</time>
      </trkpt>
      <trkpt lat="45.42997" lon="6.6199">
        <ele>1333.5</ele>
        <time>2013-03-01T14:53:31Z</time>
      </trkpt>
      <trkpt lat="45.42966" lon="6.61984">
        <ele>1346.4000244141</ele>
        <time>2013-03-01T14:53:39Z</time>
      </trkpt>
      <trkpt lat="45.42936" lon="6.61977">
        <ele>1364.3000488281</ele>
        <time>2013-03-01T14:53:49Z</time>
      </trkpt>
      <trkpt lat="45.42906" lon="6.61971">
        <ele>1375.0999755859</ele>
        <time>2013-03-01T14:53:58Z</time>
      </trkpt>
      <trkpt lat="45.42877" lon="6.61969">
        <ele>1381</ele>
        <time>2013-03-01T14:54:06Z</time>
      </trkpt>
      <trkpt lat="45.42847" lon="6.61964">
        <ele>1385.1999511719</ele>
        <time>2013-03-01T14:54:14Z</time>
      </trkpt>
      <trkpt lat="45.42817" lon="6.61958">
        <ele>1392.3000488281</ele>
        <time>2013-03-01T14:54:22Z</time>
      </trkpt>
      <trkpt lat="45.42788" lon="6.61953">
        <ele>1398.3000488281</ele>
        <time>2013-03-01T14:54:30Z</time>
      </trkpt>
      <trkpt lat="45.42759" lon="6.61948">
        <ele>1413.6999511719</ele>
        <time>2013-03-01T14:54:39Z</time>
      </trkpt>
      <trkpt lat="45.42732" lon="6.61944">
        <ele>1436.9000244141</ele>
        <time>2013-03-01T14:54:49Z</time>
      </trkpt>
      <trkpt lat="45.42702" lon="6.61938">
        <ele>1464.4000244141</ele>
        <time>2013-03-01T14:55:00Z</time>
      </trkpt>
      <trkpt lat="45.42671" lon="6.61935">
        <ele>1484.1999511719</ele>
        <time>2013-03-01T14:55:10Z</time>
      </trkpt>
      <trkpt lat="45.42644" lon="6.61931">
        <ele>1512.6999511719</ele>
        <time>2013-03-01T14:55:20Z</time>
      </trkpt>
      <trkpt lat="45.42613" lon="6.61928">
        <ele>1536.9000244141</ele>
        <time>2013-03-01T14:55:31Z</time>
      </trkpt>
      <trkpt lat="45.42585" lon="6.6192">
        <ele>1558.9000244141</ele>
        <time>2013-03-01T14:55:40Z</time>
      </trkpt>
      <trkpt lat="45.42556" lon="6.61915">
        <ele>1581.0999755859</ele>
        <time>2013-03-01T14:55:50Z</time>
      </trkpt>
      <trkpt lat="45.42527" lon="6.6191">
        <ele>1599.3000488281</ele>
        <time>2013-03-01T14:55:59Z</time>
      </trkpt>
      <trkpt lat="45.425" lon="6.61906">
        <ele>1617.5</ele>
        <time>2013-03-01T14:56:08Z</time>
      </trkpt>
      <trkpt lat="45.42472" lon="6.61903">
        <ele>1630.3000488281</ele>
        <time>2013-03-01T14:56:16Z</time>
      </trkpt>
      <trkpt lat="45.42442" lon="6.61897">
        <ele>1646</ele>
        <time>2013-03-01T14:56:25Z</time>
      </trkpt>
      <trkpt lat="45.42413" lon="6.61892">
        <ele>1662.8000488281</ele>
        <time>2013-03-01T14:56:34Z</time>
      </trkpt>
      <trkpt lat="45.42385" lon="6.61887">
        <ele>1678.9000244141</ele>
        <time>2013-03-01T14:56:43Z</time>
      </trkpt>
      <trkpt lat="45.42356" lon="6.61882">
        <ele>1692.8000488281</ele>
        <time>2013-03-01T14:56:52Z</time>
      </trkpt>
      <trkpt lat="45.42327" lon="6.61878">
        <ele>1707.1999511719</ele>
        <time>2013-03-01T14:57:01Z</time>
      </trkpt>
      <trkpt lat="45.42298" lon="6.61873">
        <ele>1723.6999511719</ele>
        <time>2013-03-01T14:57:10Z</time>
      </trkpt>
      <trkpt lat="45.42269" lon="6.61868">
        <ele>1740.6999511719</ele>
        <time>2013-03-01T14:57:19Z</time>
      </trkpt>
      <trkpt lat="45.42241" lon="6.61864">
        <ele>1756.1999511719</ele>
        <time>2013-03-01T14:57:28Z</time>
      </trkpt>
      <trkpt lat="45.42212" lon="6.61859">
        <ele>1772.3000488281</ele>
        <time>2013-03-01T14:57:37Z</time>
      </trkpt>
      <trkpt lat="45.42184" lon="6.61855">
        <ele>1785.1999511719</ele>
        <time>2013-03-01T14:57:46Z</time>
      </trkpt>
      <trkpt lat="45.42154" lon="6.61851">
        <ele>1801.1999511719</ele>
        <time>2013-03-01T14:57:56Z</time>
      </trkpt>
      <trkpt lat="45.42124" lon="6.61845">
        <ele>1818.5</ele>
        <time>2013-03-01T14:58:05Z</time>
      </trkpt>
      <trkpt lat="45.42096" lon="6.6184">
        <ele>1833.8000488281</ele>
        <time>2013-03-01T14:58:14Z</time>
      </trkpt>
      <trkpt lat="45.42066" lon="6.61836">
        <ele>1846</ele>
        <time>2013-03-01T14:58:24Z</time>
      </trkpt>
      <trkpt lat="45.42038" lon="6.61833">
        <ele>1863.3000488281</ele>
        <time>2013-03-01T14:58:32Z</time>
      </trkpt>
      <trkpt lat="45.4201" lon="6.61828">
        <ele>1877.1999511719</ele>
        <time>2013-03-01T14:58:41Z</time>
      </trkpt>
      <trkpt lat="45.4198" lon="6.6182">
        <ele>1898</ele>
        <time>2013-03-01T14:58:51Z</time>
      </trkpt>
      <trkpt lat="45.41953" lon="6.61814">
        <ele>1914.9000244141</ele>
        <time>2013-03-01T14:58:59Z</time>
      </trkpt>
      <trkpt lat="45.41926" lon="6.61809">
        <ele>1929</ele>
        <time>2013-03-01T14:59:07Z</time>
      </trkpt>
      <trkpt lat="45.41896" lon="6.61804">
        <ele>1945.0999755859</ele>
        <time>2013-03-01T14:59:16Z</time>
      </trkpt>
      <trkpt lat="45.41868" lon="6.61801">
        <ele>1960.4000244141</ele>
        <time>2013-03-01T14:59:25Z</time>
      </trkpt>
      <trkpt lat="45.41839" lon="6.61798">
        <ele>1976</ele>
        <time>2013-03-01T14:59:34Z</time>
      </trkpt>
      <trkpt lat="45.41809" lon="6.61793">
        <ele>1990.9000244141</ele>
        <time>2013-03-01T14:59:44Z</time>
      </trkpt>
      <trkpt lat="45.4178" lon="6.61788">
        <ele>2004.1000976562</ele>
        <time>2013-03-01T14:59:53Z</time>
      </trkpt>
      <trkpt lat="45.41752" lon="6.61784">
        <ele>2018.1000976562</ele>
        <time>2013-03-01T15:00:00Z</time>
      </trkpt>
      <trkpt lat="45.41725" lon="6.6178">
        <ele>2033</ele>
        <time>2013-03-01T15:00:09Z</time>
      </trkpt>
      <trkpt lat="45.41695" lon="6.61774">
        <ele>2048.6000976562</ele>
        <time>2013-03-01T15:00:17Z</time>
      </trkpt>
      <trkpt lat="45.41666" lon="6.6177">
        <ele>2061.6000976562</ele>
        <time>2013-03-01T15:00:26Z</time>
      </trkpt>
      <trkpt lat="45.41639" lon="6.61765">
        <ele>2067.1999511719</ele>
        <time>2013-03-01T15:00:34Z</time>
      </trkpt>
      <trkpt lat="45.41609" lon="6.61758">
        <ele>2073</ele>
        <time>2013-03-01T15:00:43Z</time>
      </trkpt>
      <trkpt lat="45.4158" lon="6.61753">
        <ele>2067.3000488281</ele>
        <time>2013-03-01T15:00:52Z</time>
      </trkpt>
      <trkpt lat="45.41553" lon="6.61747">
        <ele>2074.1000976562</ele>
        <time>2013-03-01T15:01:35Z</time>
      </trkpt>
      <trkpt lat="45.41556" lon="6.61708">
        <ele>2072.3999023438</ele>
        <time>2013-03-01T15:04:11Z</time>
      </trkpt>
      <trkpt lat="45.41529" lon="6.61692">
        <ele>2078.1999511719</ele>
        <time>2013-03-01T15:05:01Z</time>
      </trkpt>
      <trkpt lat="45.41501" lon="6.61681">
        <ele>2088.1000976562</ele>
        <time>2013-03-01T15:05:18Z</time>
      </trkpt>
      <trkpt lat="45.41474" lon="6.6167">
        <ele>2106.6999511719</ele>
        <time>2013-03-01T15:05:35Z</time>
      </trkpt>
      <trkpt lat="45.41445" lon="6.61658">
        <ele>2112.5</ele>
        <time>2013-03-01T15:05:51Z</time>
      </trkpt>
      <trkpt lat="45.41419" lon="6.61647">
        <ele>2121</ele>
        <time>2013-03-01T15:06:07Z</time>
      </trkpt>
      <trkpt lat="45.41392" lon="6.61633">
        <ele>2129.5</ele>
        <time>2013-03-01T15:06:22Z</time>
      </trkpt>
      <trkpt lat="45.41365" lon="6.61622">
        <ele>2132.3000488281</ele>
        <time>2013-03-01T15:06:38Z</time>
      </trkpt>
      <trkpt lat="45.41337" lon="6.61611">
        <ele>2137.6999511719</ele>
        <time>2013-03-01T15:06:53Z</time>
      </trkpt>
      <trkpt lat="45.4131" lon="6.616">
        <ele>2147.3999023438</ele>
        <time>2013-03-01T15:07:05Z</time>
      </trkpt>
      <trkpt lat="45.41283" lon="6.61586">
        <ele>2153.3999023438</ele>
        <time>2013-03-01T15:07:19Z</time>
      </trkpt>
      <trkpt lat="45.41257" lon="6.61575">
        <ele>2159.6999511719</ele>
        <time>2013-03-01T15:07:35Z</time>
      </trkpt>
      <trkpt lat="45.4123" lon="6.61565">
        <ele>2173.1999511719</ele>
        <time>2013-03-01T15:07:47Z</time>
      </trkpt>
      <trkpt lat="45.41203" lon="6.6155">
        <ele>2172</ele>
        <time>2013-03-01T15:08:09Z</time>
      </trkpt>
      <trkpt lat="45.41175" lon="6.6154">
        <ele>2178.1000976562</ele>
        <time>2013-03-01T15:08:24Z</time>
      </trkpt>
      <trkpt lat="45.41149" lon="6.61528">
        <ele>2187.3000488281</ele>
        <time>2013-03-01T15:08:39Z</time>
      </trkpt>
      <trkpt lat="45.41122" lon="6.61517">
        <ele>2199.3999023438</ele>
        <time>2013-03-01T15:08:52Z</time>
      </trkpt>
      <trkpt lat="45.41095" lon="6.61505">
        <ele>2198.6999511719</ele>
        <time>2013-03-01T15:09:10Z</time>
      </trkpt>
      <trkpt lat="45.41068" lon="6.61495">
        <ele>2208.8000488281</ele>
        <time>2013-03-01T15:09:23Z</time>
      </trkpt>
      <trkpt lat="45.4104" lon="6.61482">
        <ele>2216.3999023438</ele>
        <time>2013-03-01T15:09:38Z</time>
      </trkpt>
      <trkpt lat="45.41013" lon="6.61471">
        <ele>2223.1999511719</ele>
        <time>2013-03-01T15:09:54Z</time>
      </trkpt>
      <trkpt lat="45.40986" lon="6.61459">
        <ele>2232.1999511719</ele>
        <time>2013-03-01T15:10:10Z</time>
      </trkpt>
      <trkpt lat="45.40959" lon="6.61446">
        <ele>2236.3000488281</ele>
        <time>2013-03-01T15:10:26Z</time>
      </trkpt>
      <trkpt lat="45.40932" lon="6.61436">
        <ele>2238.3999023438</ele>
        <time>2013-03-01T15:10:41Z</time>
      </trkpt>
      <trkpt lat="45.40905" lon="6.61423">
        <ele>2241</ele>
        <time>2013-03-01T15:10:55Z</time>
      </trkpt>
      <trkpt lat="45.40877" lon="6.6141">
        <ele>2230.8000488281</ele>
        <time>2013-03-01T15:11:15Z</time>
      </trkpt>
      <trkpt lat="45.40849" lon="6.61397">
        <ele>2224.3000488281</ele>
        <time>2013-03-01T15:11:28Z</time>
      </trkpt>
      <trkpt lat="45.4082" lon="6.61387">
        <ele>2222.6999511719</ele>
        <time>2013-03-01T15:12:42Z</time>
      </trkpt>
      <trkpt lat="45.40793" lon="6.61391">
        <ele>2225.1999511719</ele>
        <time>2013-03-01T15:12:52Z</time>
      </trkpt>
      <trkpt lat="45.40764" lon="6.61382">
        <ele>2231.8999023438</ele>
        <time>2013-03-01T15:13:00Z</time>
      </trkpt>
      <trkpt lat="45.40736" lon="6.61377">
        <ele>2231</ele>
        <time>2013-03-01T15:13:11Z</time>
      </trkpt>
      <trkpt lat="45.40708" lon="6.61368">
        <ele>2230.5</ele>
        <time>2013-03-01T15:13:25Z</time>
      </trkpt>
      <trkpt lat="45.40681" lon="6.61355">
        <ele>2229.8000488281</ele>
        <time>2013-03-01T15:13:37Z</time>
      </trkpt>
      <trkpt lat="45.40654" lon="6.61338">
        <ele>2227.6000976562</ele>
        <time>2013-03-01T15:13:52Z</time>
      </trkpt>
      <trkpt lat="45.40634" lon="6.61308">
        <ele>2223.1999511719</ele>
        <time>2013-03-01T15:14:04Z</time>
      </trkpt>
      <trkpt lat="45.40622" lon="6.61273">
        <ele>2227.8000488281</ele>
        <time>2013-03-01T15:14:28Z</time>
      </trkpt>
      <trkpt lat="45.40626" lon="6.61234">
        <ele>2235.6999511719</ele>
        <time>2013-03-01T15:15:47Z</time>
      </trkpt>
      <trkpt lat="45.40628" lon="6.61194">
        <ele>2235.8999023438</ele>
        <time>2013-03-01T15:16:04Z</time>
      </trkpt>
      <trkpt lat="45.40631" lon="6.61154">
        <ele>2234.1999511719</ele>
        <time>2013-03-01T15:16:23Z</time>
      </trkpt>
      <trkpt lat="45.40633" lon="6.61113">
        <ele>2236.6000976562</ele>
        <time>2013-03-01T15:16:41Z</time>
      </trkpt>
      <trkpt lat="45.40638" lon="6.61074">
        <ele>2239.3000488281</ele>
        <time>2013-03-01T15:16:58Z</time>
      </trkpt>
      <trkpt lat="45.40641" lon="6.61034">
        <ele>2243.1999511719</ele>
        <time>2013-03-01T15:17:16Z</time>
      </trkpt>
      <trkpt lat="45.40645" lon="6.60994">
        <ele>2244.6000976562</ele>
        <time>2013-03-01T15:17:36Z</time>
      </trkpt>
      <trkpt lat="45.40648" lon="6.60954">
        <ele>2248.3999023438</ele>
        <time>2013-03-01T15:17:54Z</time>
      </trkpt>
      <trkpt lat="45.40651" lon="6.60913">
        <ele>2249.1999511719</ele>
        <time>2013-03-01T15:18:13Z</time>
      </trkpt>
      <trkpt lat="45.40653" lon="6.60874">
        <ele>2250</ele>
        <time>2013-03-01T15:18:31Z</time>
      </trkpt>
      <trkpt lat="45.40656" lon="6.60833">
        <ele>2251.8000488281</ele>
        <time>2013-03-01T15:18:49Z</time>
      </trkpt>
      <trkpt lat="45.4066" lon="6.60794">
        <ele>2253.1999511719</ele>
        <time>2013-03-01T15:19:11Z</time>
      </trkpt>
      <trkpt lat="45.40662" lon="6.60753">
        <ele>2258.6999511719</ele>
        <time>2013-03-01T15:19:31Z</time>
      </trkpt>
      <trkpt lat="45.40665" lon="6.60715">
        <ele>2258.8000488281</ele>
        <time>2013-03-01T15:19:49Z</time>
      </trkpt>
      <trkpt lat="45.40668" lon="6.60673">
        <ele>2267.8000488281</ele>
        <time>2013-03-01T15:20:07Z</time>
      </trkpt>
      <trkpt lat="45.40671" lon="6.60633">
        <ele>2275.8000488281</ele>
        <time>2013-03-01T15:20:24Z</time>
      </trkpt>
      <trkpt lat="45.40675" lon="6.60594">
        <ele>2279</ele>
        <time>2013-03-01T15:20:43Z</time>
      </trkpt>
      <trkpt lat="45.40675" lon="6.60553">
        <ele>2280</ele>
        <time>2013-03-01T15:21:09Z</time>
      </trkpt>
      <trkpt lat="45.40678" lon="6.60514">
        <ele>2284</ele>
        <time>2013-03-01T15:21:26Z</time>
      </trkpt>
      <trkpt lat="45.40683" lon="6.60473">
        <ele>2287.3000488281</ele>
        <time>2013-03-01T15:21:45Z</time>
      </trkpt>
      <trkpt lat="45.40686" lon="6.60433">
        <ele>2294.5</ele>
        <time>2013-03-01T15:22:01Z</time>
      </trkpt>
      <trkpt lat="45.40688" lon="6.60394">
        <ele>2298.1999511719</ele>
        <time>2013-03-01T15:22:19Z</time>
      </trkpt>
      <trkpt lat="45.40692" lon="6.60354">
        <ele>2307.3999023438</ele>
        <time>2013-03-01T15:22:34Z</time>
      </trkpt>
      <trkpt lat="45.40695" lon="6.60315">
        <ele>2312.1000976562</ele>
        <time>2013-03-01T15:22:50Z</time>
      </trkpt>
      <trkpt lat="45.40699" lon="6.60275">
        <ele>2312.6999511719</ele>
        <time>2013-03-01T15:23:08Z</time>
      </trkpt>
      <trkpt lat="45.40724" lon="6.60252">
        <ele>2309.3000488281</ele>
        <time>2013-03-01T15:23:17Z</time>
      </trkpt>
      <trkpt lat="45.40733" lon="6.6029">
        <ele>2309.1000976562</ele>
        <time>2013-03-01T15:23:37Z</time>
      </trkpt>
      <trkpt lat="45.40738" lon="6.60329">
        <ele>2307.3999023438</ele>
        <time>2013-03-01T15:23:48Z</time>
      </trkpt>
      <trkpt lat="45.40753" lon="6.60364">
        <ele>2300.1999511719</ele>
        <time>2013-03-01T15:24:30Z</time>
      </trkpt>
      <trkpt lat="45.40774" lon="6.60391">
        <ele>2278.3000488281</ele>
        <time>2013-03-01T15:24:47Z</time>
      </trkpt>
      <trkpt lat="45.40774" lon="6.60434">
        <ele>2265.5</ele>
        <time>2013-03-01T15:25:00Z</time>
      </trkpt>
      <trkpt lat="45.40804" lon="6.60443">
        <ele>2238.8000488281</ele>
        <time>2013-03-01T15:26:05Z</time>
      </trkpt>
      <trkpt lat="45.40831" lon="6.60441">
        <ele>2239.1000976562</ele>
        <time>2013-03-01T15:26:11Z</time>
      </trkpt>
      <trkpt lat="45.40863" lon="6.60438">
        <ele>2231.3000488281</ele>
        <time>2013-03-01T15:26:18Z</time>
      </trkpt>
      <trkpt lat="45.40895" lon="6.60436">
        <ele>2229</ele>
        <time>2013-03-01T15:26:23Z</time>
      </trkpt>
      <trkpt lat="45.40925" lon="6.6044">
        <ele>2232</ele>
        <time>2013-03-01T15:26:29Z</time>
      </trkpt>
      <trkpt lat="45.40957" lon="6.6044">
        <ele>2217.3999023438</ele>
        <time>2013-03-01T15:26:46Z</time>
      </trkpt>
      <trkpt lat="45.40987" lon="6.60433">
        <ele>2207</ele>
        <time>2013-03-01T15:26:52Z</time>
      </trkpt>
      <trkpt lat="45.41013" lon="6.60419">
        <ele>2200.1999511719</ele>
        <time>2013-03-01T15:27:00Z</time>
      </trkpt>
      <trkpt lat="45.41036" lon="6.60396">
        <ele>2194.3000488281</ele>
        <time>2013-03-01T15:27:52Z</time>
      </trkpt>
      <trkpt lat="45.41065" lon="6.60395">
        <ele>2176.1999511719</ele>
        <time>2013-03-01T15:27:58Z</time>
      </trkpt>
      <trkpt lat="45.41084" lon="6.60425">
        <ele>2139.3000488281</ele>
        <time>2013-03-01T15:28:11Z</time>
      </trkpt>
      <trkpt lat="45.41112" lon="6.60421">
        <ele>2117.6999511719</ele>
        <time>2013-03-01T15:28:22Z</time>
      </trkpt>
      <trkpt lat="45.41142" lon="6.60427">
        <ele>2096.6000976562</ele>
        <time>2013-03-01T15:28:32Z</time>
      </trkpt>
      <trkpt lat="45.41173" lon="6.60422">
        <ele>2077.1999511719</ele>
        <time>2013-03-01T15:28:40Z</time>
      </trkpt>
      <trkpt lat="45.41195" lon="6.60451">
        <ele>2061</ele>
        <time>2013-03-01T15:28:55Z</time>
      </trkpt>
      <trkpt lat="45.41201" lon="6.60489">
        <ele>2055</ele>
        <time>2013-03-01T15:30:07Z</time>
      </trkpt>
      <trkpt lat="45.41207" lon="6.60529">
        <ele>2041.5</ele>
        <time>2013-03-01T15:30:37Z</time>
      </trkpt>
      <trkpt lat="45.41233" lon="6.60549">
        <ele>2024.1999511719</ele>
        <time>2013-03-01T15:30:45Z</time>
      </trkpt>
      <trkpt lat="45.41262" lon="6.60545">
        <ele>1997.5999755859</ele>
        <time>2013-03-01T15:30:50Z</time>
      </trkpt>
      <trkpt lat="45.41289" lon="6.60547">
        <ele>1986.9000244141</ele>
        <time>2013-03-01T15:30:55Z</time>
      </trkpt>
      <trkpt lat="45.4132" lon="6.60551">
        <ele>1980.3000488281</ele>
        <time>2013-03-01T15:31:00Z</time>
      </trkpt>
      <trkpt lat="45.41346" lon="6.60572">
        <ele>1975.1999511719</ele>
        <time>2013-03-01T15:31:04Z</time>
      </trkpt>
      <trkpt lat="45.41372" lon="6.60592">
        <ele>1970.1999511719</ele>
        <time>2013-03-01T15:31:08Z</time>
      </trkpt>
      <trkpt lat="45.41402" lon="6.60585">
        <ele>1962.4000244141</ele>
        <time>2013-03-01T15:31:13Z</time>
      </trkpt>
      <trkpt lat="45.4143" lon="6.60578">
        <ele>1947.4000244141</ele>
        <time>2013-03-01T15:31:50Z</time>
      </trkpt>
      <trkpt lat="45.41458" lon="6.60561">
        <ele>1925.3000488281</ele>
        <time>2013-03-01T15:31:57Z</time>
      </trkpt>
      <trkpt lat="45.41489" lon="6.60548">
        <ele>1909</ele>
        <time>2013-03-01T15:32:05Z</time>
      </trkpt>
      <trkpt lat="45.41504" lon="6.60582">
        <ele>1900.5</ele>
        <time>2013-03-01T15:32:10Z</time>
      </trkpt>
      <trkpt lat="45.41518" lon="6.60619">
        <ele>1886.4000244141</ele>
        <time>2013-03-01T15:32:15Z</time>
      </trkpt>
      <trkpt lat="45.41535" lon="6.60655">
        <ele>1881.6999511719</ele>
        <time>2013-03-01T15:32:19Z</time>
      </trkpt>
      <trkpt lat="45.41567" lon="6.60668">
        <ele>1875.1999511719</ele>
        <time>2013-03-01T15:32:22Z</time>
      </trkpt>
      <trkpt lat="45.41598" lon="6.6067">
        <ele>1871.4000244141</ele>
        <time>2013-03-01T15:32:25Z</time>
      </trkpt>
      <trkpt lat="45.41627" lon="6.60662">
        <ele>1870.1999511719</ele>
        <time>2013-03-01T15:33:12Z</time>
      </trkpt>
      <trkpt lat="45.41657" lon="6.6068">
        <ele>1863.4000244141</ele>
        <time>2013-03-01T15:33:18Z</time>
      </trkpt>
      <trkpt lat="45.41684" lon="6.60701">
        <ele>1860.1999511719</ele>
        <time>2013-03-01T15:33:22Z</time>
      </trkpt>
      <trkpt lat="45.41715" lon="6.60708">
        <ele>1858</ele>
        <time>2013-03-01T15:33:26Z</time>
      </trkpt>
      <trkpt lat="45.41743" lon="6.60711">
        <ele>1857.1999511719</ele>
        <time>2013-03-01T15:33:31Z</time>
      </trkpt>
      <trkpt lat="45.4177" lon="6.60705">
        <ele>1850.4000244141</ele>
        <time>2013-03-01T15:33:37Z</time>
      </trkpt>
      <trkpt lat="45.41802" lon="6.60683">
        <ele>1847.4000244141</ele>
        <time>2013-03-01T15:33:42Z</time>
      </trkpt>
      <trkpt lat="45.41833" lon="6.60687">
        <ele>1845.6999511719</ele>
        <time>2013-03-01T15:33:45Z</time>
      </trkpt>
      <trkpt lat="45.41867" lon="6.60676">
        <ele>1835.4000244141</ele>
        <time>2013-03-01T15:33:49Z</time>
      </trkpt>
      <trkpt lat="45.419" lon="6.60672">
        <ele>1829.4000244141</ele>
        <time>2013-03-01T15:33:53Z</time>
      </trkpt>
      <trkpt lat="45.41928" lon="6.60659">
        <ele>1817.0999755859</ele>
        <time>2013-03-01T15:33:57Z</time>
      </trkpt>
      <trkpt lat="45.41965" lon="6.60648">
        <ele>1813.4000244141</ele>
        <time>2013-03-01T15:34:01Z</time>
      </trkpt>
      <trkpt lat="45.41998" lon="6.60644">
        <ele>1797.6999511719</ele>
        <time>2013-03-01T15:34:03Z</time>
      </trkpt>
      <trkpt lat="45.42027" lon="6.60612">
        <ele>1783.4000244141</ele>
        <time>2013-03-01T15:34:06Z</time>
      </trkpt>
      <trkpt lat="45.42051" lon="6.60567">
        <ele>1769.5999755859</ele>
        <time>2013-03-01T15:34:09Z</time>
      </trkpt>
      <trkpt lat="45.42084" lon="6.60542">
        <ele>1755.3000488281</ele>
        <time>2013-03-01T15:34:12Z</time>
      </trkpt>
      <trkpt lat="45.4212" lon="6.60517">
        <ele>1739.4000244141</ele>
        <time>2013-03-01T15:34:15Z</time>
      </trkpt>
      <trkpt lat="45.42147" lon="6.605">
        <ele>1726.6999511719</ele>
        <time>2013-03-01T15:34:17Z</time>
      </trkpt>
      <trkpt lat="45.42179" lon="6.60478">
        <ele>1711.6999511719</ele>
        <time>2013-03-01T15:34:19Z</time>
      </trkpt>
      <trkpt lat="45.42212" lon="6.60455">
        <ele>1700.3000488281</ele>
        <time>2013-03-01T15:34:21Z</time>
      </trkpt>
      <trkpt lat="45.42243" lon="6.60443">
        <ele>1697.1999511719</ele>
        <time>2013-03-01T15:34:24Z</time>
      </trkpt>
      <trkpt lat="45.42273" lon="6.60437">
        <ele>1691.0999755859</ele>
        <time>2013-03-01T15:34:26Z</time>
      </trkpt>
      <trkpt lat="45.42301" lon="6.6044">
        <ele>1681.1999511719</ele>
        <time>2013-03-01T15:34:44Z</time>
      </trkpt>
      <trkpt lat="45.42333" lon="6.60453">
        <ele>1675.9000244141</ele>
        <time>2013-03-01T15:34:48Z</time>
      </trkpt>
      <trkpt lat="45.42366" lon="6.60441">
        <ele>1667.3000488281</ele>
        <time>2013-03-01T15:34:53Z</time>
      </trkpt>
      <trkpt lat="45.42402" lon="6.60432">
        <ele>1648.0999755859</ele>
        <time>2013-03-01T15:34:57Z</time>
      </trkpt>
      <trkpt lat="45.42429" lon="6.60409">
        <ele>1640.3000488281</ele>
        <time>2013-03-01T15:35:00Z</time>
      </trkpt>
      <trkpt lat="45.42455" lon="6.60385">
        <ele>1629.5999755859</ele>
        <time>2013-03-01T15:35:04Z</time>
      </trkpt>
      <trkpt lat="45.42476" lon="6.60346">
        <ele>1632.0999755859</ele>
        <time>2013-03-01T15:35:07Z</time>
      </trkpt>
      <trkpt lat="45.42503" lon="6.60318">
        <ele>1626.4000244141</ele>
        <time>2013-03-01T15:35:11Z</time>
      </trkpt>
      <trkpt lat="45.42536" lon="6.60291">
        <ele>1622.9000244141</ele>
        <time>2013-03-01T15:35:13Z</time>
      </trkpt>
      <trkpt lat="45.42561" lon="6.60264">
        <ele>1616.8000488281</ele>
        <time>2013-03-01T15:35:16Z</time>
      </trkpt>
      <trkpt lat="45.42584" lon="6.60239">
        <ele>1595.4000244141</ele>
        <time>2013-03-01T15:35:21Z</time>
      </trkpt>
      <trkpt lat="45.42615" lon="6.60221">
        <ele>1576.5999755859</ele>
        <time>2013-03-01T15:35:25Z</time>
      </trkpt>
      <trkpt lat="45.42651" lon="6.6021">
        <ele>1555.6999511719</ele>
        <time>2013-03-01T15:35:30Z</time>
      </trkpt>
      <trkpt lat="45.42686" lon="6.60201">
        <ele>1539.3000488281</ele>
        <time>2013-03-01T15:35:32Z</time>
      </trkpt>
      <trkpt lat="45.42721" lon="6.60187">
        <ele>1533</ele>
        <time>2013-03-01T15:35:35Z</time>
      </trkpt>
      <trkpt lat="45.42749" lon="6.60171">
        <ele>1519.0999755859</ele>
        <time>2013-03-01T15:35:37Z</time>
      </trkpt>
      <trkpt lat="45.42783" lon="6.60174">
        <ele>1506.6999511719</ele>
        <time>2013-03-01T15:35:41Z</time>
      </trkpt>
      <trkpt lat="45.42812" lon="6.60167">
        <ele>1497.8000488281</ele>
        <time>2013-03-01T15:35:43Z</time>
      </trkpt>
      <trkpt lat="45.42846" lon="6.60154">
        <ele>1484.3000488281</ele>
        <time>2013-03-01T15:35:46Z</time>
      </trkpt>
      <trkpt lat="45.4288" lon="6.60144">
        <ele>1475.9000244141</ele>
        <time>2013-03-01T15:35:49Z</time>
      </trkpt>
      <trkpt lat="45.42908" lon="6.60136">
        <ele>1460.4000244141</ele>
        <time>2013-03-01T15:35:54Z</time>
      </trkpt>
      <trkpt lat="45.42937" lon="6.60122">
        <ele>1446.1999511719</ele>
        <time>2013-03-01T15:36:01Z</time>
      </trkpt>
      <trkpt lat="45.42966" lon="6.60103">
        <ele>1437.1999511719</ele>
        <time>2013-03-01T15:36:04Z</time>
      </trkpt>
      <trkpt lat="45.42999" lon="6.60095">
        <ele>1415.8000488281</ele>
        <time>2013-03-01T15:36:11Z</time>
      </trkpt>
      <trkpt lat="45.43026" lon="6.60074">
        <ele>1410.5999755859</ele>
        <time>2013-03-01T15:36:15Z</time>
      </trkpt>
      <trkpt lat="45.43055" lon="6.60049">
        <ele>1398.5</ele>
        <time>2013-03-01T15:36:19Z</time>
      </trkpt>
      <trkpt lat="45.43083" lon="6.60045">
        <ele>1381.8000488281</ele>
        <time>2013-03-01T15:36:33Z</time>
      </trkpt>
      <trkpt lat="45.43112" lon="6.60041">
        <ele>1374.9000244141</ele>
        <time>2013-03-01T15:36:40Z</time>
      </trkpt>
      <trkpt lat="45.43131" lon="6.60068">
        <ele>1359.8000488281</ele>
        <time>2013-03-01T15:37:06Z</time>
      </trkpt>
      <trkpt lat="45.43155" lon="6.60092">
        <ele>1351.6999511719</ele>
        <time>2013-03-01T15:41:40Z</time>
      </trkpt>
    </trkseg>
  </trk>
</gpx>